[[{"header":{"parameterUnit":"m.s-1","parameterCategory":1,"la1":30.6,"la2":29.2853,"lo1":-89.7004,"lo2":-87.6739,"dy":0.0162,"dx":0.0183,"nx":112,"ny":82,"refTime":"2024-09-11T06:00:00:Z","depth":0,"parameterNumber":2,"parameterNumberName":"U-component_of_WINDS"},"data":[0.0,0.0,0.0,0.0,0.0,0.0,0.0,0.0,0.0,0.0,0.0,0.0,0.0,0.0,0.0,0.0,0.0,0.0,0.0,0.0,0.0,0.0,0.0,0.0,0.0,0.0,0.0,0.0,0.0,0.0,0.0,0.0,0.0,0.0,0.0,0.0,0.0,0.0,0.0,0.0,0.0,0.0,0.0,0.0,0.0,0.0,0.0,0.0,0.0,0.0,0.0,0.0,0.0,0.0,0.0,0.0,0.0,0.0,0.0,0.0,0.0,0.0,0.0,0.0,0.0,0.0,0.0,0.0,0.0,0.0,0.0,0.0,0.0,0.0,0.0,0.0,0.0,0.0,0.0,0.0,0.0,0.0,0.0,0.0,0.0,0.0,0.0,0.0,0.0,0.0,0.7497,0.7716,0.7824,0.7964,0.8233,0.8033,0.7889,0.7795,0.0,0.0,0.0,0.0,0.0,0.0,0.0,0.0,0.0,0.0,0.0,0.0,0.0,0.0,0.0,0.0,0.0,0.0,0.0,0.0,0.0,0.0,0.0,0.0,0.0,0.0,0.0,0.0,0.0,0.0,0.0,0.0,0.0,0.0,0.0,0.0,0.0,0.0,0.0,0.0,0.0,0.0,0.0,0.0,0.0,0.0,0.0,0.0,0.0,0.0,0.0,0.0,0.0,0.0,0.0,0.0,0.0,0.0,0.0,0.0,0.0,0.0,0.0,0.0,0.0,0.0,0.0,0.0,0.0,0.0,0.0,0.0,0.0,0.0,0.0,0.0,0.0,0.0,0.0,0.0,0.0,0.0,0.0,0.0,0.0,0.0,0.0,0.0,0.0,0.0,0.0,0.0,0.0,0.0,0.0,0.0,0.0,0.0,0.0,0.0,0.0,0.0,0.0,0.0,0.6121,0.5844,0.6103,0.648,0.7109,0.675,0.6852,0.7676,0.0,0.0,0.0,0.0,0.0,0.0,0.0,0.0,0.0,0.0,0.0,0.0,0.0,0.0,0.0,0.0,0.0,0.0,0.0,0.0,0.0,0.0,0.0,0.0,0.0,0.0,0.0,0.0,0.0,0.0,0.0,0.0,0.0,0.0,0.0,0.0,0.0,0.0,0.0,0.0,0.0,0.0,0.0,0.0,0.0,0.0,0.0,0.0,0.0,0.0,0.0,0.0,0.0,0.0,0.0,0.0,0.0,0.0,0.0,0.0,0.0,0.0,0.0,0.0,0.0,0.0,0.0,0.0,0.0,0.0,0.0,0.0,0.0,0.0,0.0,0.0,0.0,0.0,0.0,0.0,0.0,0.0,0.0,0.0,0.0,0.0,0.0,0.0,0.0,0.0,0.0,0.0,0.0,0.0,0.0,0.0,0.0,0.0,0.0,0.0,0.0,0.0,0.0,0.5667,0.544,0.5196,0.5199,0.5482,0.6053,0.5808,0.5965,0.6649,0.681,0.0,0.0,0.0,0.0,0.0,0.0,0.0,0.0,0.0,0.0,0.0,0.0,0.0,0.0,0.0,0.0,0.0,0.0,0.0,0.0,0.0,0.0,0.0,0.0,0.0,0.0,0.0,0.0,0.0,0.0,0.0,0.0,0.0,0.0,0.0,0.0,0.0,0.0,0.0,0.0,0.0,0.0,0.0,0.0,0.0,0.0,0.0,0.0,0.0,0.0,0.0,0.0,0.0,0.0,0.0,0.0,0.0,0.0,0.0,0.0,0.0,0.0,0.0,0.0,0.0,0.0,0.0,0.0,0.0,0.0,0.0,0.0,0.0,0.0,0.0,0.0,0.0,0.0,0.0,0.0,0.0,0.0,0.0,0.0,0.0,0.0,0.0,0.0,0.0,0.0,0.0,0.0,0.0,0.0,0.0,0.0,0.0,0.0,0.0,0.0,0.0,0.0,0.5016,0.4994,0.4796,0.4735,0.4838,0.5277,0.5261,0.5423,0.5787,0.5793,0.0,0.0,0.0,0.0,0.0,0.0,0.0,0.0,0.0,0.0,0.0,0.0,0.0,0.0,0.0,0.0,0.0,0.0,0.0,0.0,0.0,0.0,0.0,0.0,0.0,0.0,0.0,0.0,0.0,0.0,0.0,0.0,0.0,0.0,0.0,0.0,0.0,0.0,0.0,0.0,0.0,0.0,0.0,0.0,0.0,0.0,0.0,0.0,0.0,0.0,0.0,0.0,0.0,0.0,0.0,0.0,0.0,0.0,0.0,0.0,0.0,0.0,0.0,0.0,0.0,0.0,0.0,0.0,0.0,0.0,0.0,0.0,0.0,0.0,0.0,0.0,0.0,0.0,0.0,0.0,0.0,0.0,0.0,0.0,0.0,0.0,0.0,0.0,0.0,0.0,0.0,0.0,0.0,0.0,0.0,0.0,0.0,0.0,0.0,0.0,0.0,0.0,0.4738,0.4618,0.4132,0.4384,0.469,0.489,0.5231,0.5482,0.5771,0.5668,0.0,0.0,0.0,0.0,0.0,0.0,0.0,0.0,0.0,0.0,0.0,0.0,0.0,0.0,0.0,0.0,0.0,0.0,0.0,0.0,0.0,0.0,0.0,0.0,0.0,0.0,0.0,0.0,0.0,0.0,0.0,0.0,0.0,0.0,0.0,0.0,0.0,0.0,0.0,0.0,0.0,0.0,0.0,0.0,0.0,0.0,0.0,0.0,0.0,0.0,0.0,0.0,0.0,0.0,0.0,0.0,0.0,0.0,0.0,0.0,0.0,0.0,0.0,0.0,0.0,0.0,0.0,0.0,0.0,0.0,0.0,0.0,0.0,0.0,0.0,0.0,0.0,0.0,0.0,0.0,0.0,0.0,0.0,0.0,0.0,0.0,0.0,0.0,0.0,0.0,0.0,0.0,0.0,0.0,0.0,0.0,0.0,0.0,0.0,0.0,0.0,0.0,0.4549,0.432,0.3831,0.3972,0.4164,0.4307,0.4455,0.48,0.5458,0.0,0.0,0.0,0.0,0.0,0.0,0.0,0.0,0.0,0.0,0.0,0.0,0.0,0.0,0.0,0.0,0.0,0.0,0.0,0.0,0.0,0.0,0.0,0.0,0.0,0.0,0.0,0.0,0.0,0.0,0.0,0.0,0.0,0.0,0.0,0.0,0.0,0.0,0.0,0.0,0.0,0.0,0.0,0.0,0.0,0.0,0.0,0.0,0.0,0.0,0.0,0.0,0.0,0.0,0.0,0.0,0.0,0.0,0.0,0.0,0.0,0.0,0.0,0.0,0.0,0.0,0.0,0.0,0.0,0.0,0.0,0.0,0.0,0.0,0.0,0.0,0.0,0.0,0.0,0.0,0.0,0.0,0.0,0.0,0.0,0.0,0.0,0.0,0.0,0.0,0.0,0.0,0.0,0.0,0.0,0.0,0.0,0.0,0.0,0.0,0.0,0.0,0.3898,0.4148,0.4111,0.3388,0.3603,0.3865,0.3981,0.4076,0.444,0.5147,0.0,0.0,0.0,0.0,0.0,0.0,0.0,0.0,0.0,0.0,0.0,0.0,0.0,0.0,0.0,0.0,0.0,0.0,0.0,0.0,0.0,0.0,0.0,0.0,0.0,0.0,0.0,0.0,0.0,0.0,0.0,0.0,0.0,0.0,0.0,0.0,0.0,0.0,0.0,0.0,0.0,0.0,0.0,0.0,0.0,0.0,0.0,0.0,0.0,0.0,0.0,0.0,0.0,0.0,0.0,0.0,0.0,0.0,0.0,0.0,0.0,0.0,0.0,0.0,0.0,0.0,0.0,0.0,0.0,0.0,0.0,0.0,0.0,0.0,0.0,0.0,0.0,0.0,0.0,0.0,0.0,0.0,0.0,0.0,0.0,0.0,0.0,0.0,0.0,0.0,0.0,0.0,0.0,0.0,0.0,0.0,0.0,0.0,0.0,0.0,0.0,0.0,0.2577,0.3559,0.3855,0.2832,0.3433,0.3895,0.399,0.4298,0.4616,0.0,0.0,0.0,0.0,0.0,0.0,0.0,0.0,0.0,0.0,0.0,0.0,0.0,0.0,0.0,0.0,0.0,0.0,0.0,0.0,0.0,0.0,0.0,0.0,0.0,0.0,0.0,0.0,0.0,0.0,0.0,0.0,0.0,0.0,0.0,0.0,0.0,0.0,0.0,0.0,0.0,0.0,0.0,0.0,0.0,0.0,0.0,0.0,0.0,0.0,0.0,0.0,0.0,0.0,0.0,0.0,0.0,0.0,0.0,0.0,0.0,0.0,0.0,0.0,0.0,0.0,0.0,0.0,0.0,0.0,0.0,0.0,0.0,0.0,0.0,0.0,0.0,0.0,0.0,0.0,0.0,0.0,0.0,0.0,0.0,0.0,0.0,0.0,0.0,0.0,0.0,0.0,0.0,0.0,0.0,0.0,0.0,0.0,0.0,0.0,0.0,0.0,0.0,0.2683,0.2881,0.2888,0.2377,0.2962,0.3278,0.3254,0.3633,0.4006,0.4392,0.0,0.0,0.0,0.0,0.0,0.0,0.0,0.0,0.0,0.0,0.0,0.0,0.0,0.0,0.0,0.0,0.0,0.0,0.0,0.0,0.0,0.0,0.0,0.0,0.0,0.0,0.0,0.0,0.0,0.0,0.0,0.0,0.0,0.0,0.0,0.0,0.0,0.0,0.0,0.0,0.0,0.0,0.0,0.0,0.0,0.0,0.0,0.0,0.0,0.0,0.0,0.0,0.0,0.0,0.0,0.0,0.0,0.0,0.0,0.0,0.0,0.0,0.0,0.0,0.0,0.0,0.0,0.0,0.0,0.0,0.0,0.0,0.0,0.0,0.0,0.0,0.0,0.0,0.0,0.0,0.0,0.0,0.0,0.0,0.0,0.0,0.0,0.0,0.0,0.0,0.0,0.0,0.0,0.0,0.0,0.0,0.0,0.0,0.0,0.0,0.0,0.0,0.1903,0.2311,0.2435,0.1958,0.2439,0.2741,0.2571,0.3159,0.3558,0.3718,0.0,0.0,0.0,0.0,0.0,0.0,0.0,0.0,0.0,0.0,0.0,0.0,0.0,0.0,0.0,0.0,0.0,0.0,0.0,0.0,0.0,0.0,0.0,0.0,0.0,0.0,0.0,0.0,0.0,0.0,0.0,0.0,0.0,0.0,0.0,0.0,0.0,0.0,0.0,0.0,0.0,0.0,0.0,0.0,0.0,0.0,0.0,0.0,0.0,0.0,0.0,0.0,0.0,0.0,0.0,0.0,0.0,0.0,0.0,0.0,0.0,0.0,0.0,0.0,0.0,0.0,0.0,0.0,0.0,0.0,0.0,0.0,0.0,0.0,0.0,0.0,0.0,0.0,0.0,0.0,0.0,0.0,0.0,0.0,0.0,0.0,0.0,0.0,0.0,0.0,0.0,0.0,0.0,0.0,0.0,0.0,0.0,0.0,0.0,0.0,0.0,0.0,0.0789,0.1762,0.2192,0.1414,0.1932,0.2225,0.205,0.279,0.3147,0.2939,0.0,0.0,0.0,0.0,0.0,0.0,0.0,0.0,0.0,0.0,0.0,0.0,0.0,0.0,0.0,0.0,0.0,0.0,0.0,0.0,0.0,0.0,0.0,0.0,0.0,0.0,0.0,0.0,0.0,0.0,0.0,0.0,0.0,0.0,0.0,0.0,0.0,0.0,0.0,0.0,0.0,0.0,0.0,0.0,0.0,0.0,0.0,0.0,0.0,0.0,0.0,0.0,0.0,0.0,0.0,0.0,0.0,0.0,0.0,0.0,-0.0064,0.0,0.0,0.0,0.0,0.0,0.0,0.0,0.0,0.0,0.0,0.0,0.0,0.0,0.0,0.0,0.0,0.0,0.0,0.0,0.0,0.0,0.0,0.0,0.0,0.0,0.0,0.0,0.0,0.0,0.0,0.0,0.0,0.0,0.0,0.0,0.0,0.0,0.0,0.0,0.0,0.0,0.0901,0.1135,0.1277,0.1027,0.1472,0.1698,0.1474,0.1968,0.2287,0.2215,0.2855,0.0,0.0,0.0,0.0,0.0,0.0,0.0,0.0,0.0,0.0,0.0,0.0,0.0,0.0,0.0,0.0,0.0,0.0,0.0,0.0,0.0,0.0,0.0,0.0,0.0,0.0,0.0,0.0,0.0,0.0,0.0,0.0,0.0,0.0,0.0,0.0,0.0,0.0,0.0,0.0,0.0,0.0,0.0,0.0,0.0,0.0,0.0,0.0,0.0,0.0,0.0,0.0,0.0,0.0,0.0,0.0,0.0,0.0,0.0,0.0,0.0206,0.0,0.0,0.0,0.0,0.0,0.0,0.0,0.0,0.0,0.0,0.0,0.0,0.0,0.0,0.0,0.0,0.0,0.0,0.0,0.0,0.0,0.0,0.0,0.0,0.0,0.0,0.0,0.0,0.0,0.0,0.0,0.0,0.0,0.0,0.0,0.0,0.0,0.0,0.0,0.0,0.0943,0.0908,0.0915,0.0945,0.0971,0.1015,0.1033,0.1413,0.1679,0.1681,0.2233,0.0,0.0,0.0,0.0,0.0,0.0,0.0,0.0,0.0,0.0,0.0,0.0,0.0,0.0,0.0,0.0,0.0,0.0,0.0,0.0,0.0,0.0,0.0,0.0,0.0,0.0,0.0,0.0,0.0,0.0,0.0,0.0,0.0,0.0,0.0,0.0,0.0,0.0,0.0,0.0,0.0,0.0,0.0,0.0,0.0,0.0,0.0,0.0,0.0,0.0,0.0,0.0,0.0,-0.3841,-0.3624,-0.368,-0.3006,-0.2237,-0.1441,-0.0366,0.0294,0.0533,0.0,0.0,0.0,0.0,0.0,0.0,0.0,0.0,0.0,0.0,0.0,0.0,0.0,0.0,0.0,0.0,0.0,0.0,0.0,0.0,0.0,0.0,0.0,0.0,0.0,0.1266,0.1282,0.0,0.0,0.0,0.0,0.0,0.0,0.0,0.0,0.0,0.0,0.0,0.0,0.0989,0.0927,0.0863,0.0981,0.064,0.0512,0.0646,0.0976,0.1189,0.1142,0.1751,0.2437,0.0,0.0,0.0,0.0,0.0,0.0,0.0,0.0,0.0,0.0,0.0,0.0,0.0,0.0,0.0,0.0,0.0,0.0,0.0,0.0,0.0,0.0,0.0,0.0,0.0,0.0,0.0,0.0,0.0,0.0,0.0,0.0,-0.3149,-0.3332,0.0,0.0,0.0,0.0,0.0,0.0,0.0,0.0,0.0,0.0,0.0,0.0,0.0,-0.456,-0.448,-0.4339,-0.3828,-0.3052,-0.3738,-0.3272,-0.1959,-0.2724,-0.2565,-0.1796,-0.0871,0.0,0.0547,0.0312,0.0,0.0,0.0,0.0,0.0,0.0,0.0,0.0,0.0,0.0,0.0,0.0,0.0,0.0,0.0,0.0,0.0,0.0,0.0,0.0,0.0,0.0,0.1296,0.1292,0.1296,0.1299,0.0,0.1267,0.1232,0.1167,0.1179,0.0,0.0,0.0,0.0,0.0,0.0,0.0,0.0992,0.0988,0.0978,0.0892,0.0746,0.0625,0.047,0.0528,0.0592,0.0609,0.1161,0.1691,0.2046,0.2329,0.0,0.0,0.0,0.0,0.0,0.0,0.0,0.0,0.0,0.0,0.0,0.0,0.0,0.0,0.0,0.0,0.0,0.0,0.0,0.0,0.0,0.0,0.0,0.0,0.0,0.0,0.0,0.0,0.0,-0.3283,-0.3395,-0.3364,-0.3444,-0.3477,0.0,0.0,0.0,0.0,0.0,0.0,0.0,0.0,0.0,-0.4236,-0.4376,-0.4292,-0.414,-0.4114,-0.3848,-0.3436,-0.3787,-0.3315,-0.2156,-0.2207,-0.1803,-0.0943,-0.0241,0.0,-0.016,0.0,0.0,-0.008,0.0,0.0,0.0,0.0,0.0241,0.0727,0.0579,0.0745,0.1067,0.1146,0.0,0.0,0.0,0.0,0.0,0.0,0.0,0.0,0.0,0.0,0.1324,0.1307,0.1316,0.1328,0.1328,0.133,0.1314,0.0,0.1254,0.1234,0.1142,0.0,0.0,0.0,0.0,0.1052,0.1039,0.0945,0.086,0.0848,0.0636,0.0568,0.0588,0.053,0.0538,0.0616,0.0878,0.128,0.1706,0.2007,0.231,0.0,0.0,0.0,0.0,0.0,0.0,0.0,0.0,0.0,0.0,0.0,0.0,0.0,0.0,0.0,0.0,0.0,0.0,0.0,0.0,0.0,0.0,0.0,0.0,0.0,0.0,0.0,0.0,-0.3491,-0.3509,-0.3438,-0.3589,-0.3606,0.0,0.0,0.0,0.0,0.0,0.0,-0.3828,-0.438,-0.4467,-0.4067,-0.4224,-0.4278,-0.3971,-0.4014,-0.3989,-0.3897,-0.3808,-0.348,-0.2892,-0.2133,-0.149,-0.0786,0.008,0.0,-0.0651,-0.0167,-0.0252,-0.0588,-0.0336,-0.0252,-0.0252,0.0085,0.0425,0.0682,0.061,0.0786,0.1129,0.1117,0.1194,0.135,0.1224,0.0,0.0,0.0,0.0,0.0987,0.124,0.1331,0.1331,0.1308,0.132,0.1337,0.1337,0.1358,0.1366,0.0,0.1314,0.1285,0.1194,0.0,0.0,0.0,0.0,0.1076,0.1076,0.0902,0.0812,0.0874,0.0595,0.0525,0.0722,0.0664,0.0612,0.0694,0.0839,0.1047,0.1449,0.1657,0.1911,0.2334,0.0,0.0,0.0,0.0,0.0,0.0,0.0,0.0,0.0,0.0,0.0,0.0,0.0,0.0,0.0,0.0,0.0,0.0,0.0,0.0,0.0,0.0,0.0,0.0,0.0,0.0,0.0,0.0,0.0,-0.3756,-0.3677,0.0,0.0,0.0,0.0,-0.363,-0.4203,-0.4412,-0.4018,-0.4941,-0.5081,-0.4249,-0.4601,-0.4685,-0.4159,-0.4077,-0.3989,-0.3897,-0.3808,-0.3765,-0.369,-0.2824,-0.2431,-0.2277,-0.0643,-0.0081,-0.0244,0.0417,0.0084,-0.0672,-0.0336,0.0168,0.0591,0.0,0.0347,0.1046,0.1068,0.1238,0.1395,0.1422,0.1411,0.1388,0.1127,0.1025,0.0,0.0,0.1026,0.1098,0.1293,0.1346,0.1304,0.1303,0.1303,0.1305,0.1305,0.1328,0.1265,0.0,0.1261,0.1316,0.1226,0.0,0.1144,0.1084,0.1076,0.1076,0.1076,0.0919,0.0838,0.0967,0.0689,0.056,0.077,0.0772,0.0781,0.0804,0.1006,0.1087,0.1115,0.1219,0.1237,0.131,0.1267,0.0,0.0,0.0,0.0,0.0,0.0,0.0,0.0,0.0,0.0,0.0,0.0,0.0,0.0,0.0,0.0,0.0,0.0,0.0,0.0,0.0,0.0,0.0,0.0,0.0,0.0,0.0,0.0,-0.3932,-0.3884,0.0,-0.3778,-0.377,-0.3863,-0.4219,-0.4587,-0.4765,-0.4547,-0.4952,-0.5005,-0.4694,-0.4606,-0.4577,-0.486,-0.4415,-0.4235,-0.4382,-0.4279,-0.3917,-0.3368,-0.3056,-0.2585,-0.2036,-0.079,-0.056,-0.1055,0.0492,0.0754,0.0172,0.0344,0.052,0.0703,0.0442,0.0532,0.08,0.0805,0.0982,0.1243,0.1342,0.1428,0.133,0.0976,0.0971,0.1055,0.0885,0.0962,0.1031,0.128,0.1333,0.1298,0.1278,0.1258,0.1244,0.1244,0.1253,0.1182,0.1103,0.1196,0.1266,0.1195,0.1174,0.1146,0.1084,0.1093,0.1097,0.1078,0.0985,0.084,0.0711,0.0629,0.0625,0.058,0.0711,0.0779,0.0787,0.0918,0.0996,0.0888,0.1051,0.1155,0.1195,0.1055,0.1266,0.0,0.0,0.0,0.0,0.0,0.0,0.0,0.0,0.0,0.0,0.0,0.0,0.0,0.0,0.0,0.0,0.0,0.0,0.0,0.0,0.0,0.0,0.0,0.0,0.0,-0.3928,-0.3862,-0.4026,-0.4053,-0.4049,-0.4146,-0.4142,-0.425,-0.4561,-0.4867,-0.4875,-0.4736,-0.5063,-0.5099,-0.4924,-0.4746,-0.4802,-0.517,-0.4718,-0.4534,-0.4596,-0.4489,-0.4104,-0.3522,-0.321,-0.2818,-0.2268,-0.1252,-0.1026,-0.1362,0.0,0.0576,0.0597,0.0773,0.0872,0.0887,0.0793,0.0794,0.0798,0.0705,0.0883,0.1155,0.1244,0.1338,0.1345,0.0987,0.0987,0.1075,0.0978,0.0962,0.1028,0.1257,0.131,0.1279,0.1249,0.1226,0.1209,0.1123,0.1122,0.1044,0.0961,0.1062,0.1149,0.1028,0.1013,0.0992,0.1017,0.1026,0.1031,0.1078,0.0994,0.0852,0.072,0.0708,0.0706,0.0719,0.0851,0.0917,0.0917,0.0991,0.1005,0.0887,0.106,0.117,0.1211,0.1438,0.1576,0.1549,0.0,0.0,0.0,0.0,0.0,0.0,0.0,0.0,0.0,0.0,0.0,0.0,0.0,0.0,0.0,0.0,0.0,0.0,0.0,0.0,0.0,0.0,0.0,-0.4162,-0.4021,-0.38,-0.411,-0.417,-0.4306,-0.4544,-0.4625,-0.4547,-0.4493,-0.494,-0.4988,-0.4383,-0.5186,-0.5366,-0.475,-0.5193,-0.528,-0.501,-0.4913,-0.4808,-0.4701,-0.4676,-0.4566,-0.4384,-0.3522,-0.3132,-0.3132,-0.2268,-0.1564,-0.094,-0.094,-0.0398,0.0407,0.0834,0.1108,0.1299,0.0849,0.0854,0.104,0.0764,0.0854,0.1131,0.1131,0.1234,0.1343,0.1343,0.1253,0.1159,0.1309,0.1197,0.1088,0.1228,0.1279,0.1249,0.1219,0.1211,0.1126,0.0952,0.0873,0.0866,0.0914,0.0875,0.0823,0.0657,0.0569,0.0624,0.0745,0.0809,0.0,0.1076,0.0943,0.0876,0.1076,0.0943,0.0876,0.1076,0.1076,0.1076,0.1076,0.1103,0.112,0.1123,0.1179,0.1211,0.1213,0.2349,0.2651,0.2119,0.0,0.0,0.0,0.0,0.0,0.0,0.0,0.0,0.0,0.0,0.0,0.0,0.0,0.0,0.0,0.0,0.0,0.0,0.0,0.0,0.0,-0.2579,-0.3412,-0.3589,-0.3726,-0.3942,-0.4201,-0.425,-0.4306,-0.4544,-0.4544,-0.468,-0.5155,-0.5328,-0.5426,-0.5359,-0.5542,-0.5633,-0.5455,-0.5188,-0.5369,-0.5813,-0.5346,-0.5147,-0.5202,-0.5081,-0.4967,-0.4857,-0.4623,-0.4467,-0.4387,-0.3441,-0.2891,-0.2579,-0.1252,-0.0551,-0.0238,0.0326,0.0666,0.0849,0.076,0.0761,0.0764,0.076,0.0761,0.085,0.085,0.0853,0.0857,0.0857,0.0943,0.1028,0.1107,0.1171,0.1231,0.1142,0.1026,0.0993,0.0834,0.0736,0.0715,0.0709,0.0629,0.055,0.0478,0.0552,0.0626,0.0759,0.0616,0.0544,0.0607,0.0607,0.0,0.0876,0.0809,0.0809,0.0876,0.0809,0.0809,0.0876,0.0876,0.0942,0.1076,0.1083,0.1108,0.1152,0.1024,0.0899,0.0777,0.1089,0.1166,0.0,0.0,0.0,0.0,0.0,0.0,0.0,0.0,0.0,0.0,0.0,0.0,0.0,0.0,0.0,0.0,0.0,0.0,0.0,0.0,0.0,0.0,-0.1586,-0.2355,-0.2644,-0.3471,-0.4068,-0.432,-0.4355,-0.4499,-0.4781,-0.4826,-0.4984,-0.5265,-0.5383,-0.5478,-0.545,-0.5364,-0.5455,-0.5544,-0.528,-0.5369,-0.5908,-0.5521,-0.5318,-0.5368,-0.5246,-0.5127,-0.5018,-0.5018,-0.5018,-0.4937,-0.4304,-0.391,-0.3439,-0.2033,-0.1175,0.0,0.0,0.0,0.0,0.0,0.0495,0.0409,0.0409,0.0577,0.0664,0.0664,0.0836,0.0927,0.0927,0.1011,0.1093,0.1166,0.1234,0.1215,0.1032,0.0928,0.0829,0.0663,0.0573,0.0559,0.0484,0.0477,0.0404,0.0337,0.027,0.0,0.0539,0.0539,0.0472,0.0472,0.0539,0.0674,0.0876,0.0943,0.0943,0.0943,0.0943,0.0947,0.0959,0.0959,0.0,0.0,0.0,0.116,0.1221,0.1146,0.0,0.0,0.0,0.0,0.0,0.0,0.0,0.0,0.4421,0.4418,0.0,0.0,0.0,0.0,0.0,0.0,0.0,0.0,0.0,0.0,0.0,0.0,0.0,0.0,0.0,0.0,0.008,-0.0236,-0.1489,-0.3034,-0.4174,-0.4396,-0.4543,-0.4818,-0.5156,-0.5265,-0.5301,-0.5258,-0.5365,-0.5343,-0.5099,0.0,0.0,0.0,0.0,-0.5552,-0.5733,-0.5526,-0.5488,-0.5368,-0.5246,-0.5127,-0.5018,-0.5018,-0.5018,-0.5018,-0.5018,-0.4621,-0.3832,-0.2893,-0.1957,-0.1097,-0.0078,0.0398,0.0567,0.0405,0.024,0.0,0.0,0.0,0.0,0.0648,0.0905,0.117,0.1254,0.1254,0.1249,0.1305,0.1297,0.1204,0.092,0.0831,0.0819,0.0567,0.0559,0.0485,0.0271,0.027,0.027,0.027,0.0135,0.0067,0.027,0.0404,0.0472,0.0472,0.0607,0.0809,0.1009,0.1076,0.1076,0.1076,0.0,0.0,0.1049,0.1051,0.1064,0.1097,0.1125,0.1164,0.1214,0.1219,0.1315,0.1426,0.1938,0.2612,0.336,0.3954,0.462,0.5181,0.4024,0.3829,0.0,0.0,0.0,0.0,0.0,0.0,0.0,0.0,0.0,0.0,0.0,0.0,0.0,0.0,0.0,0.1613,0.0394,-0.048,-0.0157,-0.1964,-0.362,-0.4309,-0.4543,-0.4787,-0.5048,-0.5069,-0.5173,-0.5388,-0.5426,-0.5438,-0.5542,-0.5552,-0.5552,-0.5644,-0.5644,-0.5644,-0.5733,-0.5526,-0.5488,-0.5368,0.0,0.0,-0.5018,-0.5018,-0.5018,-0.5018,-0.5018,-0.4937,-0.4623,-0.3129,-0.1644,-0.0235,0.0,0.0079,0.0158,0.0079,0.0079,0.0,0.0,0.0079,0.0158,0.0316,0.0397,0.0557,0.0876,0.0956,0.0,0.1268,0.1266,0.1179,0.0763,0.0671,0.0583,0.0212,0.0138,0.0136,0.0067,0.0067,0.0067,0.0067,0.0135,0.027,0.027,0.0202,0.0135,0.0337,0.0404,0.0539,0.0809,0.0876,0.0943,0.1076,0.1076,0.102,0.0839,0.0841,0.0786,0.0749,0.0846,0.0862,0.0712,0.0967,0.1305,0.1964,0.195,0.231,0.3106,0.3759,0.4145,0.4162,0.4738,0.5145,0.0,0.0,0.0,0.0,0.0,0.0,0.0,0.0,0.0,0.0,0.0,0.1681,0.1852,0.0,0.151,0.2278,0.1199,0.0241,0.0314,-0.1017,-0.2506,-0.3759,-0.4465,-0.4859,-0.5018,-0.5067,-0.5175,-0.5355,-0.5426,-0.554,-0.5725,-0.5733,-0.5733,-0.5733,-0.5733,-0.5733,-0.5733,-0.5551,-0.5428,-0.5366,-0.5186,-0.5072,-0.5018,-0.5018,-0.5018,-0.5018,-0.4543,-0.4384,-0.4304,-0.2582,-0.1176,0.0,0.0,0.0,0.0,0.0,0.0,0.0,0.0,0.0079,0.0157,0.0393,0.055,0.0629,0.1021,0.11,0.11,0.1257,0.1335,0.1169,0.075,0.0589,0.0505,0.0069,0.0,0.0,0.0,0.0,0.0,0.0,0.0269,0.0471,0.0337,0.0472,0.0539,0.0539,0.0539,0.0607,0.0809,0.0742,0.0741,0.0942,0.0886,0.0833,0.0856,0.0732,0.0751,0.077,0.0858,0.1026,0.1277,0.1794,0.2311,0.2805,0.3068,0.3598,0.4272,0.4608,0.4914,0.5271,0.5767,0.5864,0.0,0.0,0.0,0.0,0.0,0.0,0.0,0.1985,0.208,0.2152,0.2073,0.2067,0.2421,0.223,0.2258,0.2744,0.2099,0.1284,0.0707,-0.0235,-0.1409,-0.282,-0.3917,-0.4543,-0.4779,-0.4859,-0.5038,-0.5325,-0.5445,-0.557,-0.5692,-0.5722,-0.5733,-0.5733,-0.5733,-0.5722,-0.5697,-0.548,-0.5358,-0.533,-0.5118,-0.4937,-0.4779,-0.4779,-0.4701,-0.4465,-0.3832,-0.3441,-0.3207,-0.1879,-0.0784,0.0,0.0,0.0,0.0,0.0,0.0,0.0,0.0079,0.0157,0.0314,0.055,0.0786,0.0943,0.1257,0.1335,0.1335,0.1335,0.1335,0.1166,0.0739,0.0732,0.0724,0.0273,0.0271,0.0339,0.0337,0.0337,0.0337,0.0337,0.0676,0.0881,0.0679,0.1022,0.1225,0.0945,0.0876,0.0944,0.1078,0.0876,0.0743,0.0883,0.0692,0.064,0.0811,0.0768,0.0787,0.0948,0.1102,0.1428,0.2189,0.2804,0.3418,0.3936,0.4511,0.5109,0.5693,0.5671,0.6003,0.6698,0.6603,0.6366,0.5421,0.4493,0.3883,0.3565,0.3486,0.3426,0.0,0.3299,0.3409,0.3024,0.3113,0.3281,0.3366,0.3456,0.362,0.3622,0.2755,0.2045,0.1725,0.0235,-0.1097,-0.1488,-0.227,-0.3051,-0.3832,-0.3919,-0.4281,-0.5197,-0.532,-0.5442,-0.5478,-0.5673,-0.5733,-0.5733,-0.5733,-0.5681,-0.5486,-0.5436,-0.5314,-0.5205,-0.5078,-0.4621,-0.391,-0.391,-0.3519,-0.2738,-0.266,-0.227,-0.1567,-0.141,-0.0784,0.0,0.0,0.0,0.0,0.0,0.0,0.0,0.0236,0.0314,0.0393,0.0707,0.0864,0.0943,0.1257,0.1335,0.1335,0.1335,0.1335,0.1243,0.096,0.1186,0.1407,0.1028,0.1234,0.1525,0.142,0.1412,0.1412,0.1412,0.151,0.1675,0.1815,0.1991,0.1918,0.1355,0.1211,0.1412,0.1952,0.1682,0.1426,0.1253,0.0979,0.0722,0.062,0.1018,0.1268,0.1293,0.1746,0.2376,0.3236,0.3408,0.4102,0.5527,0.5455,0.5791,0.6533,0.6599,0.6599,0.6788,0.6898,0.7037,0.5298,0.4409,0.3837,0.3136,0.3204,0.3338,0.32,0.3398,0.3606,0.353,0.3606,0.3684,0.3684,0.357,0.3508,0.3614,0.2776,0.1992,0.1728,0.0706,-0.0157,-0.0471,-0.0862,-0.1566,-0.2893,-0.3051,-0.3396,-0.4369,-0.4554,-0.4828,-0.5284,-0.4863,-0.483,-0.528,-0.4687,-0.4637,-0.5122,-0.4525,-0.4177,-0.4297,-0.3561,-0.3129,-0.3051,-0.2893,-0.2503,-0.1801,-0.1801,-0.1332,-0.0549,-0.0549,-0.0314,0.0,0.0,0.0,0.0,0.0,0.0,0.0,0.0236,0.0314,0.0393,0.0786,0.0864,0.0943,0.1257,0.1335,0.1335,0.1335,0.1492,0.1557,0.1204,0.1486,0.1755,0.1394,0.1442,0.1638,0.1618,0.1614,0.1614,0.1614,0.1899,0.2052,0.1986,0.2308,0.2472,0.221,0.1953,0.1902,0.2184,0.1972,0.1708,0.168,0.1612,0.1568,0.1407,0.1882,0.2203,0.2303,0.2989,0.361,0.4281,0.4818,0.552,0.6634,0.6805,0.7188,0.7694,0.7525,0.7492,0.7674,0.7743,0.7956,0.5368,0.468,0.418,0.3258,0.3124,0.3273,0.3322,0.345,0.3604,0.3763,0.3763,0.3684,0.3684,0.3421,0.3204,0.3381,0.2626,0.2,0.1807,0.1177,0.0707,0.0471,0.0471,-0.0079,-0.1421,-0.1963,-0.2522,-0.3365,-0.3548,-0.38,-0.4291,-0.3698,-0.3653,-0.4168,-0.3493,-0.3447,-0.4091,-0.3381,-0.2992,-0.3132,-0.2287,-0.1955,-0.1956,-0.1643,-0.1331,-0.0941,-0.0941,-0.0549,0.0,0.0,0.0,0.0079,0.0079,0.0079,0.0157,0.0157,0.0157,0.0157,0.0396,0.0474,0.055,0.0864,0.1021,0.1021,0.1257,0.1414,0.1492,0.1492,0.1726,0.195,0.1599,0.1875,0.2134,0.1767,0.1885,0.208,0.2116,0.2121,0.2133,0.2133,0.242,0.264,0.2433,0.2914,0.3325,0.3325,0.3229,0.3027,0.2625,0.227,0.2147,0.2187,0.2356,0.2466,0.2525,0.3062,0.3452,0.3632,0.4153,0.4774,0.5442,0.6086,0.6802,0.7408,0.7865,0.8209,0.8351,0.8176,0.8187,0.8365,0.8365,0.8503,0.5801,0.5365,0.5124,0.4605,0.4085,0.3849,0.4003,0.3921,0.3763,0.3763,0.3682,0.3526,0.3526,0.3297,0.3142,0.3141,0.2591,0.2198,0.2195,0.1649,0.1335,0.1568,0.1568,0.1344,0.0809,-0.0476,-0.1567,-0.2192,-0.2289,-0.2265,-0.2099,-0.2096,-0.2214,-0.2258,-0.2254,-0.2208,-0.2193,-0.2189,-0.2083,-0.1957,-0.1955,-0.1486,-0.0627,-0.0078,0.0157,-0.0079,-0.0079,0.0,0.0,0.0,0.0079,0.0314,0.0314,0.0393,0.055,0.055,0.0471,0.0394,0.0807,0.0961,0.0943,0.1178,0.1257,0.1257,0.1335,0.1569,0.1882,0.1882,0.2038,0.2183,0.2207,0.2308,0.2461,0.2494,0.2838,0.3276,0.3327,0.343,0.3419,0.3419,0.3483,0.3539,0.3539,0.4148,0.4608,0.4608,0.5146,0.4985,0.3666,0.2979,0.2795,0.302,0.3084,0.3313,0.3951,0.4592,0.4969,0.4916,0.5297,0.5914,0.669,0.702,0.7419,0.8,0.8267,0.8363,0.8284,0.828,0.8377,0.856,0.856,0.8564,0.6367,0.6303,0.6156,0.5087,0.4873,0.4706,0.4249,0.4155,0.4153,0.3841,0.3793,0.3691,0.3515,0.3251,0.3083,0.3054,0.2704,0.2396,0.2043,0.1935,0.1717,0.1447,0.1465,0.1401,0.1245,0.0562,-0.0238,-0.1228,-0.1415,-0.1605,-0.1713,-0.1391,-0.1399,-0.1911,-0.1434,-0.1318,-0.1623,-0.112,-0.079,-0.0626,-0.0392,0.0,0.0392,0.0471,0.0628,0.0864,0.0864,0.0864,0.0864,0.0864,0.0707,0.0471,0.0471,0.055,0.063,0.08,0.0796,0.0708,0.0872,0.0949,0.0943,0.1178,0.1492,0.1726,0.1726,0.1961,0.2275,0.2275,0.2511,0.2741,0.2485,0.2697,0.2969,0.2893,0.3025,0.3306,0.3467,0.3479,0.3642,0.4,0.4101,0.4269,0.4711,0.503,0.5217,0.5303,0.547,0.5437,0.4971,0.4765,0.4632,0.4786,0.4743,0.4859,0.5053,0.5727,0.6035,0.6081,0.6834,0.7367,0.7664,0.8023,0.8336,0.869,0.8615,0.8628,0.8731,0.8558,0.8507,0.8568,0.8568,0.8568,0.7367,0.7277,0.7227,0.6136,0.5755,0.541,0.4867,0.454,0.4307,0.4075,0.3921,0.3732,0.3667,0.3229,0.2983,0.3161,0.2898,0.2676,0.2335,0.2394,0.2258,0.1977,0.1999,0.2023,0.1785,0.1647,0.1141,0.0084,0.0,-0.0086,-0.026,0.0087,0.0087,-0.0343,0.0083,0.0162,-0.008,0.0316,0.0549,0.0784,0.102,0.1256,0.1334,0.1256,0.1334,0.1492,0.1335,0.1335,0.1257,0.11,0.0943,0.0707,0.0707,0.0864,0.1101,0.1278,0.1353,0.1415,0.1269,0.1265,0.1334,0.1649,0.1884,0.2117,0.2117,0.2431,0.2746,0.2746,0.2981,0.3139,0.2824,0.2948,0.3061,0.2956,0.3233,0.3581,0.3698,0.4013,0.4333,0.4773,0.4847,0.5012,0.5582,0.6007,0.6443,0.6702,0.672,0.6441,0.5712,0.5622,0.5699,0.5935,0.5935,0.6109,0.6475,0.6876,0.7219,0.7359,0.7944,0.8332,0.8332,0.8595,0.8835,0.8874,0.8777,0.8702,0.8828,0.8652,0.8568,0.8568,0.8568,0.874,0.8612,0.8382,0.8213,0.7723,0.6769,0.6002,0.5925,0.5154,0.446,0.4377,0.3986,0.3646,0.3809,0.322,0.2838,0.3217,0.3089,0.2956,0.302,0.2952,0.2955,0.2952,0.3204,0.3147,0.252,0.2649,0.2448,0.1771,0.1804,0.1913,0.2089,0.2087,0.2151,0.2272,0.2055,0.2008,0.2196,0.2042,0.2042,0.2196,0.2196,0.2196,0.2196,0.2195,0.2117,0.196,0.1492,0.1335,0.1335,0.0942,0.0864,0.1021,0.1021,0.1334,0.196,0.196,0.2195,0.2439,0.2093,0.1918,0.196,0.2353,0.2511,0.2511,0.2511,0.2826,0.3141,0.3141,0.3294,0.3448,0.3217,0.2982,0.2887,0.2819,0.3546,0.4203,0.4261,0.501,0.5643,0.5718,0.5721,0.5918,0.6291,0.716,0.8008,0.8595,0.8682,0.7975,0.5989,0.5721,0.6032,0.6662,0.674,0.7114,0.807,0.8166,0.8324,0.8669,0.869,0.8695,0.8695,0.8875,0.8891,0.8641,0.8818,0.8823,0.8568,0.8656,0.8656,0.8656,0.8744,0.917,0.9337,0.9395,0.9311,0.8609,0.8161,0.7698,0.6391,0.5774,0.528,0.4586,0.411,0.3754,0.3704,0.3397,0.3067,0.3144,0.31,0.2926,0.2775,0.2858,0.29,0.2852,0.2974,0.2922,0.276,0.2922,0.2912,0.2649,0.2099,0.2013,0.2402,0.2104,0.1979,0.2104,0.1891,0.1928,0.2433,0.2512,0.2512,0.2431,0.2431,0.2431,0.2431,0.1962,0.212,0.2747,0.2198,0.2198,0.2671,0.2512,0.2354,0.2119,0.2119,0.2198,0.2353,0.2353,0.2431,0.2512,0.2686,0.2603,0.2353,0.2431,0.2668,0.2982,0.2982,0.3295,0.3608,0.3608,0.3528,0.3604,0.3995,0.3915,0.3906,0.4498,0.5042,0.5518,0.5647,0.6147,0.6735,0.7141,0.7631,0.7975,0.8024,0.8315,0.8513,0.8682,0.8682,0.8479,0.7971,0.7878,0.7963,0.8129,0.8129,0.8231,0.8521,0.8526,0.8629,0.8677,0.8813,0.8888,0.8888,0.9077,0.9096,0.8839,0.8886,0.8823,0.8568,0.9257,0.9602,0.9602,1.0294,1.0722,0.9487,0.9507,0.9484,0.9145,0.8791,0.8257,0.7346,0.659,0.5872,0.5285,0.4509,0.3949,0.3989,0.3599,0.3315,0.3401,0.3399,0.334,0.3285,0.3183,0.3127,0.3001,0.3029,0.2962,0.2875,0.323,0.3318,0.3051,0.2661,0.2569,0.278,0.2549,0.2407,0.2607,0.2385,0.233,0.2511,0.2826,0.2904,0.2747,0.2901,0.2979,0.3059,0.2746,0.2902,0.3374,0.0,0.2826,0.3062,0.2904,0.2668,0.2511,0.2511,0.2589,0.2747,0.2747,0.2902,0.3137,0.3295,0.3295,0.3059,0.3059,0.3215,0.3374,0.3374,0.3608,0.3841,0.4229,0.4151,0.424,0.4988,0.5078,0.501,0.5536,0.6089,0.6471,0.6722,0.7204,0.7687,0.8094,0.8578,0.8976,0.8976,0.9131,0.9269,0.9269,0.9269,0.9269,0.9269,0.8953,0.8682,0.8682,0.8682,0.8799,0.8971,0.8892,0.8923,0.9096,0.9119,0.909,0.909,0.9113,0.9087,0.8911,0.9341,0.9469,0.9385,1.044,1.0924,1.0924,1.1351,1.18,0.9346,0.9206,0.9254,0.9475,0.9,0.833,0.8184,0.7237,0.6316,0.594,0.4965,0.4227,0.4319,0.3771,0.3448,0.3788,0.3874,0.3843,0.3859,0.3683,0.3501,0.3239,0.3232,0.3229,0.3053,0.3409,0.3497,0.3317,0.3227,0.3227,0.3227,0.3171,0.3189,0.3446,0.3208,0.2975,0.2668,0.2982,0.3219,0.3219,0.345,0.3604,0.3763,0.3684,0.3684,0.3763,0.3295,0.3139,0.3141,0.2824,0.2668,0.2668,0.2668,0.2902,0.3219,0.3219,0.3452,0.3763,0.3763,0.3763,0.3763,0.3763,0.3763,0.3841,0.3919,0.3997,0.4153,0.4927,0.5018,0.5053,0.6032,0.6154,0.6112,0.6397,0.694,0.7458,0.7714,0.8238,0.8678,0.8844,0.9149,0.9351,0.9351,0.9751,1.0038,1.0038,1.0038,1.0038,1.0038,0.9301,0.8839,0.8839,0.8839,0.8993,0.9338,0.9172,0.9244,0.9506,0.9345,0.9262,0.9432,0.917,0.9082,0.9257,1.0154,1.0522,1.0343,1.1551,1.221,1.2204,1.2086,1.2647,0.9432,0.9351,0.9217,0.926,0.9124,0.869,0.7401,0.6976,0.65,0.5374,0.4488,0.4062,0.4356,0.3889,0.3456,0.3534,0.3656,0.3623,0.3469,0.3535,0.352,0.3305,0.3443,0.3497,0.3499,0.3678,0.3767,0.3587,0.3497,0.3408,0.3227,0.3215,0.3327,0.3617,0.3701,0.3696,0.3608,0.3606,0.3686,0.3686,0.3763,0.3763,0.3763,0.3215,0.3294,0.3763,0.3139,0.0,0.3686,0.3606,0.3606,0.3606,0.3606,0.3606,0.3686,0.3686,0.3763,0.3763,0.3763,0.3763,0.3763,0.3763,0.3763,0.3919,0.4616,0.4771,0.4927,0.5777,0.5855,0.587,0.6701,0.688,0.7058,0.7843,0.838,0.8742,0.8919,0.9388,0.9756,0.9756,0.9875,0.9899,0.9899,0.9927,1.0038,1.0038,1.0038,1.0038,1.0038,0.9889,0.9756,0.9756,0.9756,0.9688,0.9552,0.9552,0.9479,0.9345,0.9087,0.9345,1.012,0.9859,1.012,1.0895,1.1294,1.1143,1.0249,1.1449,1.2016,1.2016,1.2796,1.3718,0.9158,0.8912,0.8732,0.8996,0.9028,0.8817,0.8117,0.742,0.6769,0.6283,0.5173,0.4349,0.4542,0.416,0.3852,0.364,0.3781,0.377,0.3616,0.3609,0.3524,0.3506,0.3484,0.3448,0.359,0.3767,0.3857,0.3587,0.3678,0.3678,0.3406,0.3335,0.3416,0.3635,0.3714,0.357,0.3452,0.3686,0.3763,0.3682,0.3763,0.3763,0.3763,0.345,0.3528,0.3763,0.345,0.3528,0.3763,0.3763,0.3763,0.3763,0.3763,0.3763,0.3763,0.3763,0.3763,0.3763,0.3763,0.4073,0.4462,0.4462,0.4462,0.446,0.4849,0.5234,0.5712,0.6723,0.6799,0.6896,0.8057,0.8338,0.8342,0.8869,0.9136,0.9284,0.9293,0.9712,1.0038,1.0038,1.0038,1.0038,1.0038,1.0038,1.0038,1.0038,1.0038,1.0038,1.0038,1.0038,1.0038,1.0038,0.9864,0.9777,0.9602,0.9345,0.917,0.9087,0.8911,0.8911,0.9432,0.935,0.9841,1.0808,1.1679,1.2129,1.2221,1.3391,1.3987,1.3981,1.4314,1.4793,0.9091,0.8759,0.8549,0.893,0.8996,0.8929,0.8721,0.7831,0.701,0.6881,0.5684,0.468,0.4645,0.4397,0.4123,0.3853,0.3928,0.402,0.3946,0.3791,0.3728,0.3807,0.3615,0.3577,0.3773,0.3857,0.3946,0.3765,0.3767,0.376,0.3653,0.3535,0.351,0.3656,0.3589,0.3467,0.3219,0.3608,0.3684,0.3604,0.3763,0.3763,0.3763,0.3763,0.3763,0.3763,0.3763,0.3763,0.0,0.3763,0.3763,0.3763,0.3763,0.3763,0.3763,0.3763,0.3919,0.4077,0.4097,0.4651,0.5358,0.5384,0.5358,0.5312,0.5467,0.5873,0.6539,0.7699,0.7877,0.7923,0.9224,0.9427,0.933,0.9396,0.9515,0.9515,0.9349,0.9689,1.0038,1.0038,1.0038,1.0038,1.0038,1.0038,1.0038,1.0038,1.0038,1.0038,1.0038,0.9951,0.9951,0.9951,0.9689,0.9515,0.9428,0.9082,0.8911,0.8823,0.8828,0.902,0.9231,0.9549,1.0272,1.1394,1.2531,1.3409,1.3975,1.5012,1.5445,1.5439,1.5217,1.5417,0.975,0.953,0.9391,0.9325,0.9321,0.9114,0.8097,0.7419,0.6805,0.6058,0.5293,0.4742,0.4546,0.437,0.4215,0.3939,0.3971,0.404,0.4019,0.4147,0.427,0.4169,0.4204,0.4308,0.4218,0.421,0.43,0.421,0.3855,0.3646,0.3751,0.3557,0.3567,0.3903,0.3891,0.3846,0.3765,0.3763,0.3763,0.3763,0.3763,0.3763,0.3763,0.3763,0.3763,0.3763,0.3763,0.3763,0.0,0.3763,0.3763,0.3763,0.3763,0.3763,0.3763,0.3763,0.4229,0.494,0.5121,0.5716,0.6378,0.6682,0.6464,0.624,0.7015,0.7434,0.7799,0.862,0.8968,0.9181,0.9306,0.9275,0.9235,0.8995,0.9257,0.9515,0.9349,0.9689,1.0038,1.0038,1.0038,1.0038,1.0038,1.0038,1.0038,1.0038,1.0038,1.0038,1.0038,0.9777,0.9602,0.9602,0.9602,0.9432,0.8999,0.8911,0.8828,0.8656,0.9345,1.0294,1.1462,1.2286,1.33,1.4552,1.4956,1.4731,1.3776,1.4248,1.449,1.449,1.437,1.4943,1.0086,0.978,0.952,0.9723,0.965,0.9422,0.9091,0.7938,0.6929,0.6972,0.5626,0.4579,0.4738,0.4422,0.3973,0.3876,0.3848,0.3882,0.3882,0.4009,0.4076,0.4167,0.4208,0.4235,0.4385,0.4332,0.43,0.43,0.3944,0.38,0.3925,0.3576,0.3503,0.3822,0.3818,0.3799,0.3763,0.3763,0.3763,0.3763,0.3763,0.3763,0.3763,0.3763,0.3763,0.3763,0.3763,0.3763,0.0,0.3763,0.4073,0.4538,0.4538,0.4849,0.5246,0.5396,0.5659,0.5915,0.6218,0.676,0.7508,0.7577,0.7833,0.8037,0.7881,0.8176,0.8662,0.9196,0.9354,0.9342,0.9628,0.9548,0.9262,0.9174,0.9174,0.917,0.9257,0.9519,0.9777,0.9951,1.0038,1.0038,1.0038,1.0038,1.0038,1.0038,1.0038,1.0038,1.0038,0.9777,0.9777,1.012,0.9602,0.9082,0.8911,0.9257,0.9569,0.9687,1.0573,1.1379,1.1972,1.2478,1.325,1.4381,1.4659,1.4798,1.4974,1.5102,1.5159,1.5159,1.5159,1.5445,1.0588,1.0308,1.0064,1.019,1.0091,0.9926,0.9903,0.8441,0.7122,0.7474,0.6005,0.4699,0.4779,0.4424,0.4006,0.3787,0.3746,0.3838,0.388,0.3974,0.4087,0.4263,0.4254,0.4214,0.4348,0.4353,0.43,0.43,0.4034,0.3963,0.396,0.3613,0.3538,0.3769,0.3763,0.3763,0.3763,0.3763,0.3763,0.3763,0.3763,0.3763,0.3763,0.3763,0.3919,0.4151,0.4151,0.4307,0.0,0.4538,0.4849,0.5392,0.543,0.5758,0.6322,0.6551,0.6767,0.7035,0.7281,0.784,0.8521,0.866,0.9007,0.9428,0.8844,0.8888,0.9206,0.9522,0.9521,0.9515,0.974,0.9519,0.9262,0.9087,0.9087,0.9087,0.9262,0.9519,0.9777,0.9951,1.0038,1.0038,1.0038,1.0038,1.0038,1.0038,1.0212,1.0318,1.0382,1.0387,1.0582,1.1087,1.0391,0.9841,0.9786,1.0269,1.0721,1.0875,1.1779,1.2434,1.2676,1.3124,1.3731,1.4478,1.4671,1.5064,1.5832,1.5832,1.5832,1.5832,1.5832,1.5737,1.1475,1.1304,1.1279,1.0867,1.0725,1.0569,1.0292,0.8675,0.7282,0.713,0.6243,0.5208,0.4339,0.4453,0.442,0.3637,0.3641,0.381,0.4159,0.4402,0.4569,0.4573,0.4651,0.4634,0.4453,0.4353,0.43,0.43,0.4034,0.3963,0.396,0.3783,0.3704,0.3769,0.3763,0.3763,0.3763,0.3763,0.3763,0.3763,0.3763,0.3763,0.3763,0.3763,0.4229,0.5004,0.5004,0.5467,0.0,0.6163,0.6163,0.6177,0.6396,0.6454,0.6551,0.6795,0.7432,0.8119,0.8295,0.8869,0.9592,0.988,0.9946,1.0028,0.9946,0.9804,0.9559,0.9559,0.979,0.9864,0.9432,0.9349,0.9174,0.8744,0.9003,0.9262,0.9262,0.9694,1.0038,1.0038,1.0038,1.0038,1.0038,1.0038,1.0038,1.0038,1.0554,1.1065,1.1379,1.1766,1.221,1.245,1.2296,1.2021,1.1782,1.1977,1.2204,1.221,1.303,1.3701,1.3963,1.4922,1.5531,1.5818,1.5825,1.5825,1.5832,1.5832,1.5832,1.5832,1.5832,1.5737,1.174,1.1442,1.1189,1.0995,1.0729,1.0566,1.0539,0.9385,0.8147,0.7694,0.6474,0.528,0.4499,0.4173,0.3972,0.3718,0.3764,0.4022,0.4322,0.5062,0.5361,0.4747,0.4636,0.4567,0.4447,0.4353,0.43,0.43,0.421,0.4136,0.4044,0.4534,0.4522,0.3847,0.4307,0.4616,0.4616,0.5157,0.5467,0.5467,0.5467,0.5467,0.547,0.5556,0.5753,0.5997,0.6257,0.6465,0.0,0.6711,0.7035,0.7527,0.7578,0.7923,0.8414,0.8479,0.8669,0.8946,0.9149,0.939,0.9677,0.9885,1.0038,1.0038,1.0038,0.9904,0.9856,0.9684,0.9639,0.9689,0.9345,0.9262,0.9174,0.8911,0.8911,0.9087,0.9262,0.9432,0.9607,0.9951,1.0038,1.0125,1.0641,1.0636,1.0814,1.1327,1.1585,1.176,1.2092,1.212,1.2483,1.3369,1.3469,1.3101,1.2117,1.2717,1.3203,1.3379,1.432,1.4916,1.5201,1.5503,1.5732,1.5832,1.5832,1.5832,1.5832,1.5832,1.5832,1.5832,1.5832,1.5737,1.1783,1.1459,1.1289,1.1115,1.083,1.0659,1.0688,0.9654,0.847,0.7855,0.678,0.564,0.4437,0.4019,0.383,0.3542,0.3659,0.3907,0.4036,0.4862,0.5156,0.4642,0.4552,0.4551,0.4491,0.4373,0.43,0.43,0.4654,0.4761,0.4598,0.5388,0.5519,0.4838,0.526,0.5467,0.5467,0.6061,0.6322,0.6322,0.6383,0.6489,0.6493,0.6582,0.6785,0.7119,0.7304,0.7514,0.0,0.7843,0.809,0.8595,0.8674,0.8904,0.9332,0.9417,0.9393,0.9341,0.9478,0.9526,0.9559,0.9767,0.9889,1.0038,1.0038,1.0038,0.9951,0.9777,0.9689,0.9519,0.9345,0.9262,0.9087,0.8911,0.8999,0.9087,0.9345,0.9519,0.9694,1.0299,1.0381,1.0554,1.1241,1.1413,1.1532,1.2146,1.2417,1.2721,1.3171,1.3303,1.3683,1.4504,1.4689,1.4347,1.3612,1.4069,1.452,1.469,1.5271,1.5645,1.5818,1.5832,1.5832,1.5832,1.5832,1.5832,1.5832,1.5832,1.5832,1.5832,1.5832,1.573,0.0,1.1424,1.1514,1.1151,1.0935,1.0812,1.0812,0.9771,0.0,0.7714,0.7099,0.6142,0.4293,0.4075,0.4027,0.3283,0.35,0.3735,0.3802,0.424,0.4561,0.463,0.4685,0.4769,0.4666,0.4589,0.4476,0.4476,0.5275,0.5753,0.5717,0.6441,0.6706,0.6621,0.6492,0.6423,0.6335,0.6558,0.6711,0.6715,0.6948,0.7102,0.7102,0.7116,0.7537,0.0,0.8214,0.863,0.0,0.937,0.937,0.9389,0.9592,0.9535,0.937,0.9554,0.9488,0.9299,0.9299,0.9299,0.9341,0.9573,0.9776,0.9932,1.0033,1.0038,1.0038,0.9951,0.9777,0.9519,0.9345,0.9087,0.8911,0.8911,0.9087,0.9345,0.9515,0.9864,1.0294,1.0895,1.1068,1.1332,1.2037,1.2129,1.2215,1.2645,1.3215,1.3856,1.4389,1.5021,1.5504,1.5798,1.5832,1.5832,1.5832,1.5832,1.5832,1.5832,1.5832,1.5832,1.5832,1.5832,1.5832,1.5832,1.5832,1.5832,1.5832,1.5832,1.5832,1.5832,1.5832,1.573,1.1384,0.0,1.1514,1.1013,1.0797,1.0755,0.0,1.0297,0.9496,0.8073,0.7488,0.6705,0.4876,0.5054,0.5173,0.4143,0.5279,0.6075,0.5411,0.6266,0.6918,0.6853,0.6789,0.646,0.5705,0.6125,0.6419,0.6419,0.6684,0.6711,0.6662,0.7384,0.7729,0.7505,0.823,0.8213,0.7442,0.8256,0.8675,0.8675,0.8724,0.8746,0.875,0.891,0.9065,0.9242,0.9482,0.0,0.9804,0.9804,0.9804,0.9809,0.9861,0.9752,0.9559,0.9441,0.9271,0.9096,0.9096,0.9096,0.9157,0.9442,0.9677,0.9748,0.9904,1.0038,0.9951,0.9777,0.9689,0.9519,0.9087,0.9087,0.9174,0.8911,0.9087,0.9345,0.9515,1.0207,1.0895,1.1154,1.1671,1.2342,1.3231,1.3268,1.3454,1.4269,1.4589,1.4804,1.516,1.5305,1.5504,1.5798,1.5832,1.5832,1.5832,1.5832,1.5832,1.5832,1.5832,1.5832,1.5832,1.5832,1.5832,1.5832,1.5832,1.5832,1.5832,1.5832,1.5832,1.5832,1.6204,1.64,1.1235,1.1339,1.1663,1.1293,1.1168,1.1111,1.1111,1.0668,0.9974,0.869,0.8216,0.7655,0.6299,0.6241,0.6201,0.579,0.6549,0.7,0.6481,0.6107,0.6152,0.7063,0.6728,0.6409,0.6374,0.6725,0.7037,0.7122,0.7478,0.7709,0.7711,0.8406,0.8774,0.8651,0.9165,0.9078,0.8383,0.9073,0.9474,0.9474,0.9568,0.9611,0.9615,0.9734,0.9786,0.979,0.9904,0.0,1.0038,1.0038,1.0038,1.0038,1.0038,0.9828,0.9536,0.9403,0.9195,0.9011,0.8911,0.8944,0.9063,0.9289,0.9422,0.9516,0.963,0.9734,0.9828,0.9749,0.9689,0.9515,0.9257,0.9257,0.9257,0.9257,0.9602,0.9946,1.0294,1.1068,1.1791,1.2337,1.2799,1.3318,1.4222,1.4356,1.4537,1.5117,1.5255,1.5454,1.5558,1.5591,1.5658,1.5812,1.6021,1.6204,1.6204,1.6204,1.6015,1.5825,1.5832,1.5832,1.5832,1.6015,1.6298,1.6487,1.648,1.648,1.648,1.6341,1.6271,1.6271,1.655,1.6643,1.1338,1.163,1.2045,1.1732,1.167,1.168,1.1605,1.0959,1.0184,0.9291,0.9018,0.864,0.7855,0.7565,0.7453,0.7561,0.7592,0.7529,0.7524,0.5846,0.5148,0.6657,0.6277,0.6258,0.7008,0.7131,0.7305,0.7474,0.8165,0.8678,0.8678,0.9222,0.9545,0.9513,0.9658,0.9507,0.9124,0.9502,0.9691,0.9696,0.9866,1.0038,1.0038,1.0038,0.9951,0.9951,0.0,0.0,0.9951,0.9951,1.0038,1.0038,1.0038,0.9828,0.9536,0.9403,0.9195,0.8996,0.8774,0.8822,0.8978,0.9015,0.9138,0.9285,0.9313,0.9455,0.9634,0.9809,0.9812,0.9689,0.9777,0.9602,0.9607,0.9864,1.0381,1.0895,1.1413,1.2129,1.2918,1.376,1.4018,1.4405,1.5066,1.5286,1.5382,1.551,1.5656,1.5844,1.5798,1.5825,1.592,1.592,1.6393,1.6676,1.6676,1.6676,1.6487,1.6015,1.592,1.592,1.6015,1.6487,1.6864,1.7326,1.7326,1.7326,1.7326,1.6996,1.6956,1.7091,1.713,1.7198,1.1953,1.2228,1.2557,1.1677,1.1754,1.2,1.1594,1.1244,1.0734,0.9585,0.9466,0.9396,0.8508,0.8995,0.9409,0.8984,0.901,0.9186,0.9388,0.9395,0.9027,0.8063,0.8777,0.8864,0.7942,0.8476,0.899,0.9161,0.9189,0.9271,0.9436,0.9578,0.9563,0.9379,0.9719,0.979,0.947,0.9786,0.9904,0.9904,1.0024,1.0038,1.0038,1.0038,0.9864,0.9689,0.0,0.9864,0.9689,0.9864,1.0038,1.0038,1.0038,0.9828,0.9536,0.9403,0.9195,0.8996,0.8774,0.8722,0.8779,0.8963,0.9044,0.91,0.9271,0.9346,0.9379,0.9412,0.9677,1.0038,1.0381,1.0463,1.0549,1.1241,1.1499,1.1671,1.2106,1.3133,1.3996,1.4309,1.5055,1.5789,1.6196,1.5979,1.5807,1.6014,1.5961,1.5778,1.5825,1.6204,1.6494,1.6494,1.6864,1.7239,1.7239,1.7239,1.7145,1.7044,1.6676,1.6676,1.7044,1.7138,1.7232,1.7326,1.7326,1.7326,1.7326,1.6996,1.7424,1.8493,1.8579,1.9057,1.1608,1.1895,1.2285,1.1942,1.2324,1.2717,1.2277,1.1775,1.1171,1.0422,1.0339,1.0428,1.0488,1.0803,1.1002,1.0789,1.0162,0.9961,1.0712,0.9645,0.8973,0.9064,0.9005,0.8769,0.8527,0.887,0.9257,0.9602,0.9424,0.9395,0.9559,0.9535,0.9478,0.9497,0.9686,0.9738,0.9564,0.9852,1.0038,1.0038,1.0038,0.9951,0.9777,0.9777,0.9689,0.9432,0.0,0.9689,0.9602,0.9864,1.0038,1.0038,1.0038,0.9894,0.9771,0.9445,0.9204,0.915,0.8813,0.8703,0.8718,0.8817,0.8852,0.8965,0.9533,0.9717,0.975,1.0449,1.0475,1.0298,1.0123,1.0716,1.1273,1.0973,1.1789,1.2691,1.2921,1.402,1.5137,1.5486,1.5908,1.6385,1.6707,1.6665,1.6614,1.648,1.6407,1.6312,1.5832,1.6298,1.6588,1.6588,1.7239,1.7707,1.7707,1.7707,1.7613,1.7326,1.7145,1.7239,1.7707,1.7707,1.7893,1.8079,1.8611,1.888,1.888,1.9052,1.9487,2.0093,2.0202,2.0385,1.1415,1.16,1.1945,1.2241,1.2686,1.3065,1.2838,1.2203,1.164,1.1388,1.1421,1.1642,1.2011,1.2147,1.2142,1.2029,1.115,1.0663,1.1344,0.9661,0.8821,0.9952,0.905,0.8517,0.9016,0.8911,0.8999,0.9515,0.9253,0.931,0.9559,0.9358,0.9321,0.9484,0.9489,0.9428,0.9475,0.9628,0.9765,0.9804,0.9904,0.9753,0.9538,0.9497,0.9432,0.9262,0.9519,0.9602,0.9519,0.9864,1.0038,1.0038,1.0038,0.9981,0.9937,0.9611,0.9647,0.9769,0.9311,0.9412,0.9668,0.9469,0.9642,0.9941,1.06,1.0781,1.0892,1.1755,1.1775,1.1398,1.0884,1.1525,1.225,1.1798,1.275,1.3875,1.3898,1.49,1.5937,1.6457,1.6747,1.697,1.7124,1.734,1.7333,1.6965,1.6972,1.6878,1.6204,1.6581,1.6871,1.6871,1.7621,1.8179,1.8272,1.8272,1.8172,1.7971,1.7699,1.7792,1.8535,1.8627,1.8904,1.9455,2.0257,2.0619,2.061,2.102,2.1309,2.1575,2.1558,2.1607,1.2048,1.1991,1.1989,1.2476,1.2393,1.2447,1.2886,1.2563,1.2144,1.2292,1.2678,1.2786,1.2161,1.2441,1.2586,1.2041,1.2088,1.1929,1.1344,1.0988,1.0821,1.0803,1.0186,0.9666,0.9556,0.8999,0.8828,0.9257,0.8905,0.8963,0.9564,0.9197,0.901,0.9023,0.9028,0.9027,0.9043,0.9061,0.914,0.9374,0.951,0.9506,0.9342,0.9352,0.9174,0.8911,0.9432,0.9519,0.9345,0.9777,1.0038,1.0038,1.0038,0.9969,0.9866,0.9836,1.0534,1.1378,1.0784,1.1546,1.2635,1.1831,1.2346,1.3225,1.2863,1.2939,1.314,1.2983,1.3531,1.4176,1.4236,1.3828,1.3755,1.5362,1.5274,1.4937,1.5136,1.5624,1.619,1.6408,1.7291,1.7878,1.7721,1.79,1.7994,1.7628,1.7434,1.7239,1.7232,1.7434,1.7628,1.7628,1.8102,1.8566,1.8735,1.8735,1.9096,2.0068,1.8804,1.8627,2.0076,2.0158,2.0529,2.1427,2.1606,2.1606,2.1606,2.1369,2.1717,2.2707,2.2551,2.2809,1.1694,1.1948,1.2129,1.2139,1.2188,1.2322,1.2684,1.2467,1.2342,1.2501,1.2904,1.3052,1.2985,1.2982,1.3005,1.2904,1.2978,1.2899,1.2325,1.2052,1.1701,1.1071,1.0532,1.021,0.9878,0.9345,0.9174,0.9432,0.8901,0.8793,0.9128,0.8914,0.8937,0.9187,0.9032,0.8995,0.9027,0.9032,0.895,0.8709,0.9169,0.9294,0.9048,0.9038,0.8966,0.8911,0.9257,0.9432,0.9519,0.9864,1.0038,1.0125,1.0885,1.1539,1.198,1.2056,1.2437,1.2791,1.2087,1.2285,1.2811,1.2609,1.2885,1.3451,1.4115,1.4213,1.4256,1.4977,1.5252,1.5109,1.4047,1.4535,1.5383,1.5214,1.5484,1.5636,1.5629,1.6137,1.67,1.6972,1.7624,1.8087,1.8195,1.8288,1.8288,1.7994,1.79,1.7707,1.7326,1.7714,1.7908,1.7908,1.8373,1.8658,1.8658,1.8743,1.9271,2.0249,1.9621,1.9803,2.115,2.097,2.1159,2.1695,2.2306,2.257,2.257,2.3036,2.3487,2.382,2.366,2.376,1.1694,1.1825,1.1988,1.2128,1.2082,1.2053,1.2601,1.2543,1.2563,1.2878,1.2983,1.3116,1.3442,1.3137,1.2989,1.3234,1.3297,1.3114,1.2614,1.2288,1.1973,1.1378,1.0865,1.0549,1.0294,0.9864,0.9607,0.9777,0.9216,0.897,0.9217,0.8913,0.8864,0.9217,0.8901,0.8815,0.8844,0.8786,0.8541,0.8365,0.8787,0.8949,0.8866,0.8817,0.8777,0.8822,0.9318,0.9515,0.9602,0.9951,1.0294,1.0631,1.1821,1.2841,1.3594,1.3594,1.3943,1.4295,1.3457,1.3581,1.4069,1.4055,1.4392,1.4942,1.5778,1.5893,1.6006,1.6795,1.6877,1.6345,1.5171,1.5707,1.6511,1.5978,1.6153,1.6408,1.6324,1.677,1.7254,1.7434,1.7893,1.8365,1.8481,1.8658,1.8651,1.8365,1.8365,1.8179,1.78,1.7986,1.8179,1.845,1.8643,1.8743,1.892,1.9096,1.9538,2.052,2.0701,2.106,2.205,2.1872,2.1961,2.2501,2.3115,2.3464,2.3464,2.4186,2.4454,2.4282,2.4196,2.411,1.221,1.1713,1.1392,1.2444,1.1916,1.1488,1.2769,1.2851,1.286,1.3252,1.3052,1.2876,1.3362,1.2846,1.247,1.2626,1.2713,1.2582,1.2062,1.1817,1.1787,1.196,1.121,1.0722,1.0987,1.0381,1.0125,1.0294,0.9689,0.9519,0.9951,0.9154,0.8709,0.8963,0.8534,0.8442,0.862,0.8184,0.8094,0.8263,0.8395,0.8462,0.8727,0.8621,0.862,0.8632,0.9506,0.9772,0.9602,1.012,1.0799,1.1724,1.2668,1.3585,1.4303,1.4075,1.4904,1.5895,1.4999,1.5782,1.7057,1.6558,1.7215,1.8151,1.8143,1.8263,1.8342,1.8172,1.8087,1.8087,1.8087,1.7467,1.7212,1.8172,1.7878,1.7326,1.7326,1.7527,1.7721,1.7721,1.828,1.8743,1.8574,1.8928,1.9104,1.8827,1.8827,1.8827,1.8827,1.8365,1.8365,1.9096,1.8751,1.8928,1.9803,1.9894,2.0339,2.1239,2.2041,2.2482,2.2755,2.2843,2.3212,2.4206,2.4206,2.4206,2.4206,2.4368,2.4272,2.3841,2.4024,2.4024,1.1758,1.1837,1.1968,1.2109,1.206,1.2129,1.2308,1.255,1.2825,1.3399,1.2841,1.2288,1.2628,1.2411,1.2173,1.2406,1.27,1.2619,1.2117,1.2032,1.1822,1.1581,1.13,1.1084,1.117,1.0733,1.0463,1.0549,1.0033,0.9951,1.0207,0.9923,0.9705,0.9675,0.9428,0.9032,0.8438,0.8166,0.8007,0.7969,0.7987,0.8182,0.8471,0.8591,0.8708,0.8789,0.9101,0.9551,1.0207,1.1235,1.2431,1.3613,1.4357,1.5141,1.5815,1.606,1.6393,1.6701,1.6133,1.6522,1.7195,1.7171,1.765,1.8289,1.8536,1.8661,1.8635,1.8643,1.855,1.855,1.855,1.8295,1.8157,1.8611,1.8087,1.7621,1.7621,1.7628,1.7721,1.7721,1.828,1.8735,1.8743,1.8827,1.892,1.8827,1.8827,1.8735,1.8566,1.9004,1.908,1.8272,1.9363,2.0002,1.9455,2.0175,2.1069,2.2041,2.2306,2.2755,2.3474,2.3484,2.3657,2.3927,2.3927,2.3927,2.3927,2.4013,2.3927,2.3841,2.3764,2.3677,1.1819,1.1871,1.2065,1.2407,1.2476,1.2346,1.2202,1.218,1.2422,1.2862,1.2397,1.1935,1.2273,1.2189,1.2036,1.2225,1.2352,1.2344,1.1871,1.1738,1.1755,1.1548,1.1435,1.1348,1.1602,1.1165,1.0906,1.0906,1.0467,1.0294,1.0376,1.0179,0.9989,1.0024,0.962,0.9243,0.891,0.8311,0.7965,0.7857,0.7794,0.8086,0.8659,0.8751,0.8882,0.902,0.9757,1.058,1.1488,1.2851,1.3866,1.4706,1.5455,1.6214,1.6812,1.7049,1.7139,1.7025,1.6734,1.6788,1.7104,1.7536,1.7826,1.8184,1.8676,1.8827,1.8827,1.8827,1.8743,1.8651,1.8651,1.8473,1.8381,1.8658,1.828,1.7908,1.8009,1.8009,1.8009,1.8094,1.8458,1.8827,1.8827,1.8827,1.8827,1.8827,1.9096,1.9004,1.8381,1.9546,1.9994,1.8996,2.0175,2.0808,2.0357,2.0988,2.1695,2.2227,2.2668,2.3038,2.3493,2.358,2.3667,2.3667,2.3667,2.3667,2.3667,2.3754,2.3754,2.3667,2.359,2.3503,1.23,1.192,1.1781,1.3065,1.2845,1.2248,1.2225,1.1788,1.1604,1.1915,1.1748,1.1747,1.2112,1.2073,1.1937,1.1937,1.2037,1.1999,1.1515,1.139,1.1602,1.2015,1.1682,1.1591,1.1986,1.1649,1.1402,1.1402,1.0956,1.0702,1.0722,1.0113,0.9928,1.0376,0.9482,0.9204,0.9634,0.8576,0.8143,0.8122,0.8034,0.8403,0.9155,0.9135,0.919,0.9423,1.1326,1.2559,1.3262,1.4531,1.5115,1.5267,1.6131,1.6812,1.731,1.7139,1.7057,1.7057,1.6812,1.6754,1.6889,1.7556,1.7795,1.7946,1.8621,1.8827,1.8735,1.8735,1.8651,1.8481,1.8481,1.8288,1.8179,1.8381,1.828,1.8087,1.8381,1.8481,1.8473,1.8735,1.8735,1.8827,1.8827,1.8827,1.892,1.892,1.9538,1.953,1.8357,1.9903,2.0988,2.0628,2.0898,2.1436,2.1971,2.2148,2.2236,2.2236,2.296,2.3319,2.3135,2.3319,2.3503,2.3503,2.3503,2.3503,2.3503,2.3667,2.3667,2.3503,2.3503,2.3503,1.2125,1.1843,1.1733,1.2662,1.2486,1.1957,1.1384,1.0928,1.0794,1.1419,1.1191,1.091,1.1043,1.1243,1.1558,1.174,1.2133,1.2337,1.2371,1.2398,1.2448,1.2534,1.2619,1.262,1.2498,1.248,1.2314,1.1813,1.164,1.1562,1.151,1.1305,1.1117,1.0895,1.0424,0.9996,0.962,0.9209,0.8996,0.0,0.9494,0.9895,1.0196,1.0024,1.065,1.2019,1.3014,1.3877,1.4678,1.5538,1.6057,1.6386,1.6558,1.673,1.682,1.6812,1.6812,1.6812,1.673,1.6921,1.7231,1.7636,1.7962,1.8263,1.8692,1.8651,1.8574,1.8574,1.8381,1.8187,1.8481,1.8288,1.8087,1.8179,1.8001,1.7815,1.7822,1.8001,1.8179,1.8272,1.855,1.8827,1.8827,1.9271,1.9621,1.9621,2.0266,2.0357,1.9355,2.0799,2.1427,2.0421,2.1695,2.2422,2.1872,2.2422,2.2872,2.2872,2.3047,2.3144,2.3135,2.3319,2.3406,2.3232,2.3232,2.3232,2.3232,2.3232,2.3232,2.3232,2.3232,2.3232,1.1708,1.1831,1.2196,1.271,1.2312,1.1722,1.1222,1.0647,1.0298,1.0745,1.0647,1.0558,1.0942,1.1073,1.1332,1.1935,1.2088,1.2307,1.2687,1.2705,1.279,1.3045,1.296,1.2905,1.2937,1.2835,1.2667,1.2326,1.2073,1.1883,1.1854,1.1577,1.131,1.1165,1.0683,1.0302,1.0119,1.0065,1.0134,1.0084,1.0622,1.1265,1.1883,1.1283,1.1808,1.3101,1.3866,1.4743,1.5627,1.621,1.6652,1.6894,1.673,1.673,1.673,1.673,1.673,1.673,1.673,1.6857,1.7104,1.7612,1.781,1.7966,1.8493,1.8566,1.8481,1.8381,1.8187,1.8087,1.828,1.8094,1.79,1.8087,1.7994,1.79,1.79,1.8094,1.8465,1.8904,1.9171,1.9455,1.982,2.0175,2.0348,2.0266,2.0988,2.1159,2.0175,2.1516,2.2227,2.123,2.2325,2.2872,2.2413,2.2784,2.3135,2.3135,2.3135,2.3135,2.3135,2.3232,2.3232,2.3135,2.3135,2.3135,2.3135,2.3135,2.3135,2.3135,2.3135,2.3135,1.1535,1.2081,1.283,1.2956,1.2412,1.1663,1.1543,1.0864,1.0277,1.0348,1.0322,1.0406,1.107,1.1043,1.1219,1.2149,1.2224,1.2254,1.2771,1.2893,1.2996,1.3476,1.3215,1.3112,1.3412,1.3146,1.2886,1.2808,1.2462,1.214,1.2015,1.1483,1.1223,1.1257,1.0688,1.0483,1.0747,1.102,1.1227,1.1305,1.186,1.2729,1.3821,1.2996,1.3127,1.3972,1.453,1.5436,1.6453,1.6618,1.6894,1.6976,1.6812,1.673,1.673,1.673,1.673,1.673,1.673,1.673,1.6849,1.7548,1.7692,1.7562,1.8271,1.8481,1.8381,1.8179,1.7994,1.7994,1.8087,1.8087,1.8001,1.8265,1.845,1.8542,1.8357,1.8558,1.9104,1.9894,2.0076,2.0348,2.1078,2.1177,2.1078,2.0898,2.1704,2.1971,2.0988,2.2157,2.2872,2.2325,2.2784,2.3135,2.3135,2.3135,2.3135,2.3135,2.3135,2.3135,2.3135,2.3135,2.3135,2.3135,2.3135,2.3135,2.3135,2.3135,2.3135,2.3135,2.3135,2.3135,1.2576,1.3067,1.3248,1.2851,1.2481,1.2318,1.2454,1.1764,1.1104,1.1155,1.0543,1.011,1.0566,1.0887,1.1375,1.1867,1.2246,1.2724,1.3415,1.3448,1.3629,1.3971,1.4068,1.4045,1.3892,1.4022,1.3851,1.3194,1.3112,1.2714,1.2003,1.1901,1.1729,1.1348,1.1027,1.0999,1.1193,1.1845,1.2191,1.2431,1.3655,1.4683,1.5454,1.5351,1.5699,1.6363,1.5873,1.6239,1.7212,1.674,1.6581,1.6738,1.673,1.673,1.673,1.673,1.673,1.673,1.673,1.673,1.6849,1.7548,1.7771,1.7818,1.8362,1.8381,1.8179,1.8087,1.78,1.7613,1.8288,1.8743,1.9096,1.9263,1.9994,2.0357,1.9271,1.9729,2.0365,2.0447,2.0718,2.1078,2.1793,2.1971,2.1971,2.1882,2.2511,2.2687,2.1971,2.2599,2.3057,2.296,2.3047,2.3135,2.3135,2.3135,2.3135,2.3135,2.3135,2.3135,2.3135,2.3135,2.3135,2.3135,2.3135,2.3135,2.3135,2.3135,2.3135,2.3135,2.3135,2.3135,1.2705,1.3178,1.344,1.3297,1.2997,1.2724,1.2741,1.2184,1.1691,1.1501,1.1078,1.0704,1.0847,1.0919,1.1192,1.1982,1.2201,1.2438,1.2959,1.3078,1.3124,1.3418,1.3652,1.3774,1.3736,1.4035,1.4054,1.3721,1.3464,1.3111,1.2571,1.2196,1.1866,1.1483,1.1256,1.1437,1.2108,1.2901,1.3736,1.4778,1.5701,1.6134,1.5938,1.6196,1.6296,1.643,1.628,1.6604,1.7246,1.6826,1.6733,1.6894,1.673,1.673,1.673,1.673,1.673,1.673,1.673,1.673,1.6849,1.7548,1.7684,1.773,1.8263,1.8388,1.8373,1.8643,1.8627,1.8711,1.9463,1.9828,1.9994,2.0266,2.0988,2.1436,2.0979,2.0808,2.0988,2.1347,2.1882,2.2246,2.2599,2.2687,2.2687,2.2687,2.2872,2.296,2.2687,2.296,2.3135,2.3135,2.3135,2.3135,2.3135,2.3135,2.3135,2.3135,2.3135,2.3135,2.3135,2.3135,2.3135,2.3135,2.3135,2.3135,2.3135,2.3135,2.3135,2.3135,2.3135,2.3135,1.2528,1.3237,1.3908,1.3734,1.3613,1.3386,1.3095,1.265,1.2236,1.2101,1.1751,1.1504,1.1385,1.1132,1.1177,1.1926,1.1868,1.1908,1.2425,1.2469,1.2574,1.2803,1.3072,1.331,1.347,1.3848,1.4058,1.3975,1.3633,1.3252,1.2889,1.2397,1.1937,1.1649,1.1415,1.1679,1.2263,1.3348,1.4846,1.6757,1.7088,1.7038,1.6573,1.6649,1.6564,1.6401,1.6388,1.6733,1.7178,1.6839,1.6885,1.7049,1.6812,1.673,1.673,1.673,1.673,1.673,1.673,1.673,1.6849,1.7548,1.7684,1.765,1.853,1.8743,1.8835,1.9371,1.9629,1.9803,2.0538,2.0808,2.0988,2.1257,2.1793,2.2325,2.2325,2.1971,2.1802,2.2325,2.2872,2.3232,2.3309,2.3135,2.3135,2.3232,2.3144,2.3135,2.3135,2.3135,2.3135,2.3135,2.3135,2.3135,2.3135,2.3135,2.3135,2.3135,2.3135,2.3135,2.3135,2.3135,2.3135,2.3135,2.3135,2.3135,2.3135,2.3135,2.3135,2.3135,2.3135,2.3135,1.2147,1.3615,1.5204,1.4088,1.4232,1.4503,1.4088,1.3618,1.3244,1.3218,1.2612,1.2081,1.1868,1.1481,1.1135,1.1378,1.144,1.1608,1.2139,1.2254,1.2356,1.2619,1.2962,1.324,1.3287,1.3661,1.3831,1.3667,1.3585,1.329,1.2597,1.2517,1.2227,1.1638,1.1572,1.1416,1.1082,1.2883,1.4902,1.7359,1.702,1.7171,1.7848,1.7235,1.7107,1.7398,1.6313,1.6355,1.7178,1.6697,1.6742,1.7049,1.6812,1.673,1.673,1.673,1.673,1.673,1.673,1.673,1.6849,1.7548,1.7771,1.7986,1.9134,1.9446,1.9629,2.0357,2.0348,2.0331,2.0808,2.1347,2.1695,2.1971,2.2599,2.3047,2.3047,2.3232,2.3406,2.3416,2.3503,2.3503,2.3754,2.3396,2.3232,2.3416,2.3232,2.3135,2.3135,2.3135,2.3135,2.3135,2.3135,2.3135,2.3135,2.3135,2.3135,2.3135,2.3135,2.3135,2.3135,2.3135,2.3135,2.3135,2.3135,2.3135,2.3135,2.3135,2.3135,2.3135,2.3135,2.3135,1.3359,1.4258,1.5157,1.4982,1.4605,1.4405,1.4664,1.4253,1.3708,1.3352,1.3069,1.2795,1.2457,1.1802,1.126,1.1186,1.1186,1.1297,1.1476,1.1721,1.1979,1.2157,1.2709,1.3094,1.3287,1.3478,1.3675,1.3791,1.3474,1.324,1.2969,1.2644,1.2282,1.197,1.1723,1.2052,1.2884,1.4029,1.5397,1.7221,1.7171,1.7304,1.7522,1.732,1.7081,1.6747,1.658,1.664,1.6825,1.6913,1.685,1.6742,1.6887,1.6812,1.673,1.673,1.673,1.673,1.673,1.6889,1.7243,1.8222,1.8622,1.8999,2.0112,2.0447,2.0628,2.1347,2.1516,2.1596,2.2157,2.2511,2.2599,2.2687,2.296,2.3144,2.3319,2.3406,2.3503,2.3503,2.3503,2.359,2.3754,2.358,2.3416,2.3503,2.3416,2.3319,2.3135,2.3135,2.3135,2.3135,2.3135,2.3135,2.3135,2.3135,2.3135,2.3135,2.3135,2.3135,2.3135,2.3135,2.3135,2.3135,2.3135,2.3135,2.3135,2.3135,2.3135,2.3135,2.3135,2.3135,1.4159,1.484,1.5438,1.5584,1.5217,1.4919,1.5345,1.4996,1.44,1.3973,1.3783,1.3567,1.2985,1.2317,1.1815,1.1419,1.1407,1.1371,1.1273,1.1558,1.1781,1.2077,1.2621,1.301,1.3189,1.346,1.3676,1.3725,1.3396,0.0,1.299,1.2667,1.2312,1.2075,1.1944,1.2535,1.4054,1.4607,1.5648,1.7139,1.731,1.7429,1.7347,1.7378,1.7201,1.673,1.6572,1.6488,1.6514,1.6825,1.674,1.6626,1.6782,1.679,1.673,1.673,1.6812,1.7057,1.7057,1.7384,1.7913,1.8905,1.9316,1.9791,2.1007,2.1347,2.1526,2.2236,2.2413,2.2511,2.296,2.3135,2.3135,2.3135,2.3135,2.3135,2.3416,2.358,2.359,2.3764,2.3764,2.3764,2.4013,2.3754,2.359,2.3764,2.359,2.3416,2.3232,2.3144,2.3135,2.3135,2.3135,2.3135,2.3135,2.3135,2.3135,2.3135,2.3135,2.3135,2.3135,2.3135,2.3135,2.3135,2.3135,2.3135,2.3135,2.3135,2.3135,2.3135,2.3135,2.3135,0.0,0.0,0.0,1.5926,1.5863,1.5886,1.6029,1.5782,1.541,1.5184,1.49,1.4346,1.3484,1.3098,1.2745,1.2073,1.1945,1.191,1.1764,1.1719,1.1868,1.2305,1.2673,1.2938,1.3003,1.3568,1.3726,1.3348,1.3265,1.3064,1.2627,1.2385,1.2221,1.2062,1.2236,1.2981,1.4332,1.4581,1.5486,1.7057,1.731,1.7465,1.7683,1.7347,1.7335,1.7424,1.623,1.5905,1.6289,1.6296,1.65,1.6735,1.6357,1.642,1.673,1.673,1.7131,1.7781,1.7781,1.8193,1.8816,1.9569,1.9827,2.0157,2.1632,2.2148,2.2236,2.296,2.3135,2.3135,2.3135,2.3135,2.3135,2.3135,2.3135,2.3232,2.3503,2.3667,2.3937,2.412,2.4206,2.4282,2.4454,2.41,2.3937,2.412,2.3851,2.3503,2.3503,2.3232,2.3144,2.3135,2.3135,2.3135,2.3135,2.3135,2.3135,2.3135,2.3135,2.3135,2.3135,2.3135,2.3135,2.3135,2.3135,2.3135,2.3135,2.3135,2.3135,2.3135,2.3135,2.3135,1.5188,0.0,0.0,0.0,0.0,0.0,1.5822,1.5576,1.5362,1.5778,1.5546,1.5153,1.4662,1.4552,1.4152,1.3043,1.2664,1.2427,1.2431,1.2688,1.2914,1.2921,1.3346,1.3528,1.3395,1.3402,1.3496,0.0,1.2995,1.2702,1.2914,1.2344,1.2071,1.2062,1.2286,1.3021,1.4325,1.4581,1.5404,1.6812,1.7229,1.7392,1.7465,1.7518,1.7564,1.7441,1.6513,1.6163,1.615,1.603,1.6053,1.6244,1.6355,1.6894,1.7602,1.7602,1.8086,1.8638,1.8638,1.902,1.9618,2.0355,2.0983,2.1674,2.2532,2.2784,2.2872,2.3047,2.3135,2.3135,2.3135,2.3135,2.3135,2.3135,2.3396,2.3744,2.4166,2.4186,2.411,2.4206,2.4024,2.4024,2.4454,2.41,2.3841,2.3927,2.3937,2.3851,2.3319,2.3319,2.3319,2.3135,2.3135,2.3135,2.3135,2.3135,2.3135,2.3135,2.3135,2.3135,2.3135,2.3135,2.3135,2.3135,2.3135,2.3135,2.3135,2.3135,2.3135,2.3135,2.3135,2.3135,1.565,1.5429,1.5191,1.5859,0.0,0.0,1.6421,1.5888,1.5412,1.5698,1.5602,1.5292,1.4839,1.5148,1.526,1.4578,1.4232,1.3839,1.3042,1.312,1.3393,1.3521,1.371,1.3725,1.3645,1.3492,1.3499,1.3755,1.3219,1.2977,1.2927,1.2317,1.2087,1.2188,1.2882,1.3563,1.4228,1.4977,1.5784,1.6566,1.7057,1.7302,1.731,1.7375,1.7338,1.7215,1.6382,1.5953,1.5839,1.5626,1.5681,1.5883,1.6166,1.6894,1.7755,1.7755,1.8399,1.9301,1.9476,1.9933,2.0477,2.1333,2.1864,2.237,2.2911,2.3135,2.3144,2.3309,2.3396,2.3396,2.3647,2.3387,2.3135,2.3319,2.358,2.3927,2.4262,2.4444,2.4444,2.4444,2.41,2.3927,2.4186,2.4013,2.3841,2.3841,2.3851,2.3764,2.3319,2.3319,2.3232,2.3135,2.3135,2.3135,2.3135,2.3135,2.3135,2.3135,2.3135,2.3135,2.3135,2.3135,2.3135,2.3135,2.3135,2.3135,2.3135,2.3135,2.3135,2.3135,2.3135,2.3135,1.5927,1.599,1.6066,1.6323,1.6359,0.0,1.7275,1.6514,1.5625,1.5521,1.5441,1.5253,1.4685,1.5433,1.6141,1.6098,1.6129,1.5602,1.3949,1.3577,1.3751,1.434,1.4118,1.3878,1.3988,1.3885,1.3717,1.3564,1.3645,1.3419,1.2893,1.2305,1.2077,1.2298,1.3502,1.4223,1.4223,1.5655,1.6394,1.6476,1.6886,1.7139,1.7139,1.7057,1.7024,1.6822,1.6065,1.5635,1.5462,1.5295,1.5352,1.5575,1.5929,1.6661,1.7513,1.7674,1.8559,1.9822,2.0245,2.0838,2.1435,2.2246,2.2549,2.2656,2.3027,2.3144,2.3222,2.3667,2.3841,2.3917,2.4413,2.3907,2.3396,2.3744,2.3917,2.3927,2.4282,2.4615,2.4861,2.4946,2.4358,2.3841,2.3841,2.3841,2.3754,2.3754,2.3667,2.3503,2.3503,2.3232,2.3135,2.3057,2.3057,2.3057,2.3057,2.3057,2.3047,2.3047,2.3057,2.3057,2.3057,2.3057,2.3135,2.3135,2.3135,2.3135,2.3135,2.3135,2.3135,2.3135,2.3135,2.3135,1.6693,1.6309,1.6039,1.626,1.6569,0.0,1.6768,1.6687,1.6634,1.6887,1.6483,1.6237,1.6396,1.6353,1.6288,1.6256,1.6464,1.6507,1.6164,1.5451,1.5402,1.6521,1.5267,1.447,1.4964,1.4444,1.3928,1.379,1.3346,1.29,1.2452,1.215,1.2077,1.2298,1.3348,1.4137,1.4443,1.5582,1.6327,1.6648,1.6976,1.7139,1.7049,1.6894,1.6782,1.6822,1.5848,1.5491,1.5478,1.5399,1.5412,1.5575,1.6534,1.7522,1.8479,1.9186,1.9923,2.0722,2.1144,2.1455,2.1846,2.2344,2.2744,2.3027,2.3551,2.3406,2.3222,2.3667,2.3841,2.3917,2.4413,2.4327,2.4241,2.4327,2.4327,2.4509,2.5115,2.485,2.4765,2.5274,2.47,2.4196,2.4368,2.3937,2.359,2.359,2.3667,2.358,2.3232,2.3319,2.3232,2.2891,2.2882,2.2882,2.2882,2.2618,2.2618,2.2794,2.2882,2.2882,2.2882,2.2969,2.3135,2.3135,2.3135,2.3135,2.3135,2.3135,2.3135,2.3135,2.3135,2.3135,1.7064,1.6731,1.6608,1.6747,1.6958,0.0,0.0,1.6738,1.6492,1.674,1.6431,1.6207,1.6307,1.6615,1.6817,1.6863,1.7216,1.7674,1.8002,1.7132,1.6715,1.7362,1.6624,1.588,1.5593,1.5137,1.4533,1.3878,1.3046,1.2673,1.2746,1.215,1.215,1.2879,1.3655,1.4294,1.4747,1.5736,1.6327,1.6409,1.673,1.6894,1.6886,1.6629,1.6437,1.6239,1.5586,1.5257,1.5189,1.5325,1.5646,1.6054,1.6795,1.7595,1.8399,1.9283,2.0089,2.083,2.1489,2.1781,2.1992,2.2617,2.2969,2.3135,2.3406,2.3493,2.358,2.4262,2.4348,2.4337,2.5031,2.485,2.4498,2.4498,2.4669,2.485,2.5009,2.5105,2.5285,2.5633,2.5126,2.47,2.4519,2.4262,2.3917,2.3667,2.3754,2.3667,2.3144,2.3319,2.3416,2.3154,2.3057,2.2969,2.2969,2.2608,2.2441,2.2618,2.2618,2.2618,2.2794,2.2891,2.2969,2.2969,2.2969,2.2969,2.2969,2.3047,2.3135,2.3135,2.3135,2.3262,1.7378,1.7272,1.734,1.7262,1.752,1.77,0.0,0.0,0.0,1.6457,1.6272,1.6102,1.6035,1.6684,1.7245,1.7407,1.7899,1.8526,1.8976,1.84,1.7935,1.8013,1.7755,1.727,1.6374,1.5995,1.5422,1.4571,1.3454,1.3124,1.3645,1.2822,1.2714,1.3673,1.4106,1.4606,1.5134,1.589,1.6237,1.6252,1.6492,1.6648,1.664,1.6292,1.5937,1.5589,1.5249,1.5099,1.5107,1.5394,1.6044,1.6768,1.7138,1.7683,1.8318,1.9213,2.001,2.0693,2.1582,2.1885,2.2021,2.2861,2.3222,2.3396,2.3396,2.3657,2.4272,2.5031,2.4935,2.485,2.5644,2.5369,2.4765,2.4765,2.502,2.5115,2.485,2.5285,2.5812,2.5895,2.5633,2.52,2.4765,2.4584,2.4327,2.4003,2.3917,2.3831,2.3396,2.3406,2.3503,2.3416,2.3232,2.2969,2.2882,2.2618,2.2353,2.2353,2.2353,2.2441,2.2627,2.2706,2.2706,2.2706,2.2706,2.2715,2.2803,2.2969,2.3057,2.3135,2.3135,2.3379,1.7979,1.8133,1.8188,1.7698,1.7998,1.8309,1.7532,0.0,1.7347,1.7226,0.0,1.6973,1.7344,0.0,0.0,1.7329,1.7784,1.8085,1.8163,1.8663,1.9251,1.958,1.8461,1.7775,1.8165,1.7022,1.6439,1.6879,1.5625,1.5086,1.5446,1.493,1.4487,1.4466,1.4774,1.5142,1.5605,1.5728,1.6064,1.6648,1.6484,1.6394,1.6378,1.6059,1.5716,1.5443,1.5015,1.5306,1.5995,1.6137,1.68,1.7718,1.802,1.8576,1.9292,2.0167,2.0489,2.0693,2.1582,2.1885,2.2021,2.2861,2.3647,2.4327,2.4327,2.468,2.5031,2.52,2.52,2.52,2.5728,2.5812,2.5728,2.5728,2.5464,2.5285,2.5644,2.5464,2.5369,2.5812,2.5895,2.5633,2.52,2.4765,2.4498,2.4413,2.4413,2.4413,2.4327,2.3831,2.3416,2.3135,2.2969,2.2715,2.2274,2.2353,2.2353,2.2185,2.2097,2.2185,2.2185,2.2353,2.2441,2.2441,2.2441,2.253,2.2803,2.2794,2.2969,2.3135,2.3135,2.3379,1.8125,1.8076,1.8113,1.7875,1.8024,1.8115,1.7774,0.0,1.7455,1.7346,0.0,0.0,0.0,0.0,0.0,0.0,1.754,1.8071,1.8389,1.9256,1.9931,2.0236,0.0,0.0,1.8883,1.7329,1.6473,1.6791,1.5715,1.5067,1.529,1.4911,1.482,1.5117,1.5075,1.5366,1.6125,1.5978,1.6162,1.6566,1.6566,1.6476,1.6378,1.6,1.5677,1.5374,1.494,1.5343,1.623,1.6365,1.7276,1.8662,1.8833,1.9054,1.9381,2.0245,2.0732,2.1045,2.167,2.2041,2.2344,2.2939,2.357,2.4166,2.4413,2.4669,2.4935,2.5464,2.538,2.5285,2.5812,2.5895,2.5812,2.5549,2.5549,2.5549,2.5549,2.5549,2.5633,2.5895,2.5895,2.5812,2.5633,2.5464,2.52,2.4935,2.4935,2.484,2.4498,2.4262,2.3927,2.358,2.3887,2.3714,2.2794,2.3183,2.3183,2.2353,2.2185,2.2097,2.2097,2.2185,2.2274,2.2274,2.2274,2.2274,2.2362,2.2627,2.2794,2.2969,2.3057,2.3506,1.8096,0.0,1.8016,0.0,0.0,0.0,0.0,0.0,0.0,0.0,1.7402,0.0,0.0,0.0,1.6904,1.7076,0.0,1.8078,1.8892,1.9574,2.0216,2.0764,0.0,0.0,0.0,1.8045,1.719,1.732,1.6296,1.5699,1.5938,1.5721,1.5782,1.6223,1.5802,1.5971,1.6733,1.6348,1.6245,1.6476,1.6566,1.6484,1.6296,1.5842,1.5505,1.5343,1.4903,1.5479,1.675,1.6785,1.7979,1.9696,1.9696,1.9696,1.9696,2.0411,2.085,2.1299,2.1738,2.2236,2.2734,2.3124,2.357,2.409,2.4594,2.4765,2.502,2.5728,2.5633,2.5464,2.5812,2.5895,2.5812,2.5454,2.5633,2.5812,2.5464,2.5644,2.5895,2.5895,2.6063,2.6218,2.6218,2.6063,2.5812,2.5706,2.5706,2.5611,2.5411,2.5253,2.502,2.4659,2.5136,2.5041,2.3877,2.4276,2.4018,2.2696,2.2441,2.2362,2.2362,2.2362,2.2274,2.2176,2.2185,2.2185,2.2097,2.2451,2.2773,2.2967,2.3232,2.3711,0.0,0.0,0.0,1.741,0.0,0.0,0.0,0.0,1.783,0.0,0.0,0.0,1.7736,1.7341,1.7324,1.7944,1.7653,0.0,0.0,1.9563,1.9979,2.125,2.1555,2.1376,0.0,1.9595,1.9238,0.0,1.8312,1.7739,1.8574,1.8208,1.8029,1.8026,1.7406,1.7128,1.7354,1.6555,1.6335,1.6648,1.6484,1.6319,1.6064,1.563,1.5326,1.5188,1.4774,1.5767,1.7743,1.7752,1.8848,2.0566,2.0566,2.0566,2.0566,2.0566,2.085,2.1299,2.1738,2.2432,2.3125,2.3657,2.409,2.4584,2.502,2.5464,2.5895,2.5895,2.5906,2.5895,2.5895,2.5895,2.5895,2.5895,2.5906,2.5895,2.5895,2.5906,2.5895,2.5895,2.6539,2.7185,2.7185,2.6467,2.6146,2.6727,2.6809,2.7033,2.7649,2.7139,2.6719,2.6696,2.6532,2.6191,2.567,2.5273,2.4542,2.3135,2.3057,2.3057,2.3057,2.3057,2.2872,2.2441,2.2353,2.2264,2.2097,2.2097,2.256,2.34,2.368,2.4004,0.0,0.0,1.8006,1.7546,0.0,0.0,0.0,0.0,0.0,0.0,0.0,0.0,1.7521,1.7658,1.7885,1.8134,1.8334,1.8809,0.0,2.1043,2.1849,2.1665,2.2004,2.1729,2.0463,0.0,0.0,1.8939,1.8362,0.0,1.8098,1.8585,1.8522,1.7913,1.7501,1.7301,1.7371,1.6555,1.6335,1.673,1.6648,1.6285,1.5736,1.5521,1.5219,1.484,1.4694,1.5846,1.7778,1.7873,1.8997,2.0566,2.0566,2.0566,2.0566,2.0566,2.1035,2.1768,2.2471,2.3073,2.358,2.3754,2.4079,2.4584,2.502,2.5285,2.5464,2.5812,2.5895,2.5895,2.5895,2.5895,2.5895,2.5895,2.5895,2.5895,2.5895,2.5895,2.6063,2.6622,2.7021,2.7348,2.7742,2.758,2.7418,2.7672,2.758,2.758,2.7799,2.7476,2.7139,2.6789,2.7371,2.736,2.6262,2.6025,2.5786,2.5294,2.502,2.4522,2.4018,2.3943,2.3607,2.2872,2.2882,2.296,2.3202,2.3377,2.3804,2.439,2.5259,2.5331,1.8008,1.8008,0.0,1.7658,1.7701,0.0,1.7066,0.0,1.7362,0.0,0.0,0.0,0.0,1.8283,1.8369,1.9222,1.9205,1.9305,0.0,2.1888,2.2865,2.2126,2.2488,2.2237,2.0723,2.0066,1.9402,1.8775,1.8488,1.83,0.0,0.0,1.9199,1.8677,1.816,1.7878,1.7895,1.6865,1.6513,1.6672,1.6711,1.6312,1.5488,1.5512,1.5184,1.4791,1.4791,1.5984,1.79,1.7983,1.9045,2.0566,2.0566,2.0566,2.0566,2.0566,2.1105,2.2014,2.2778,2.3428,2.3801,2.379,2.4262,2.485,2.5105,2.5285,2.5549,2.5812,2.5895,2.5895,2.5895,2.5895,2.5895,2.5895,2.5895,2.5979,2.6302,2.6385,2.6622,2.7487,2.781,2.8143,2.8462,2.87,2.8712,2.8383,2.8223,2.8211,2.8462,2.8383,2.8211,2.7891,2.8542,2.845,2.7279,2.7116,2.7035,2.6707,2.6367,2.5942,2.5357,2.5357,2.5031,2.4296,2.4296,2.4372,2.4447,2.4467,2.4817,2.5252,2.6112,2.6274]},{"header":{"parameterUnit":"m.s-1","parameterCategory":1,"la1":30.6,"la2":29.2853,"lo1":-89.7004,"lo2":-87.6739,"dy":0.0162,"dx":0.0183,"nx":112,"ny":82,"refTime":"2024-09-11T06:00:00:Z","depth":0,"parameterNumber":3,"parameterNumberName":"V-component_of_WINDS"},"data":[0.0,0.0,0.0,0.0,0.0,0.0,0.0,0.0,0.0,0.0,0.0,0.0,0.0,0.0,0.0,0.0,0.0,0.0,0.0,0.0,0.0,0.0,0.0,0.0,0.0,0.0,0.0,0.0,0.0,0.0,0.0,0.0,0.0,0.0,0.0,0.0,0.0,0.0,0.0,0.0,0.0,0.0,0.0,0.0,0.0,0.0,0.0,0.0,0.0,0.0,0.0,0.0,0.0,0.0,0.0,0.0,0.0,0.0,0.0,0.0,0.0,0.0,0.0,0.0,0.0,0.0,0.0,0.0,0.0,0.0,0.0,0.0,0.0,0.0,0.0,0.0,0.0,0.0,0.0,0.0,0.0,0.0,0.0,0.0,0.0,0.0,0.0,0.0,0.0,0.0,2.8988,2.8303,2.8212,2.8477,2.9193,2.8722,2.7971,2.6962,0.0,0.0,0.0,0.0,0.0,0.0,0.0,0.0,0.0,0.0,0.0,0.0,0.0,0.0,0.0,0.0,0.0,0.0,0.0,0.0,0.0,0.0,0.0,0.0,0.0,0.0,0.0,0.0,0.0,0.0,0.0,0.0,0.0,0.0,0.0,0.0,0.0,0.0,0.0,0.0,0.0,0.0,0.0,0.0,0.0,0.0,0.0,0.0,0.0,0.0,0.0,0.0,0.0,0.0,0.0,0.0,0.0,0.0,0.0,0.0,0.0,0.0,0.0,0.0,0.0,0.0,0.0,0.0,0.0,0.0,0.0,0.0,0.0,0.0,0.0,0.0,0.0,0.0,0.0,0.0,0.0,0.0,0.0,0.0,0.0,0.0,0.0,0.0,0.0,0.0,0.0,0.0,0.0,0.0,0.0,0.0,0.0,0.0,0.0,0.0,0.0,0.0,0.0,0.0,2.705,2.7791,2.7815,2.779,2.7736,2.8388,2.8002,2.6122,0.0,0.0,0.0,0.0,0.0,0.0,0.0,0.0,0.0,0.0,0.0,0.0,0.0,0.0,0.0,0.0,0.0,0.0,0.0,0.0,0.0,0.0,0.0,0.0,0.0,0.0,0.0,0.0,0.0,0.0,0.0,0.0,0.0,0.0,0.0,0.0,0.0,0.0,0.0,0.0,0.0,0.0,0.0,0.0,0.0,0.0,0.0,0.0,0.0,0.0,0.0,0.0,0.0,0.0,0.0,0.0,0.0,0.0,0.0,0.0,0.0,0.0,0.0,0.0,0.0,0.0,0.0,0.0,0.0,0.0,0.0,0.0,0.0,0.0,0.0,0.0,0.0,0.0,0.0,0.0,0.0,0.0,0.0,0.0,0.0,0.0,0.0,0.0,0.0,0.0,0.0,0.0,0.0,0.0,0.0,0.0,0.0,0.0,0.0,0.0,0.0,0.0,0.0,2.695,2.6737,2.77,2.7382,2.7247,2.7586,2.7619,2.7185,2.6181,2.4764,0.0,0.0,0.0,0.0,0.0,0.0,0.0,0.0,0.0,0.0,0.0,0.0,0.0,0.0,0.0,0.0,0.0,0.0,0.0,0.0,0.0,0.0,0.0,0.0,0.0,0.0,0.0,0.0,0.0,0.0,0.0,0.0,0.0,0.0,0.0,0.0,0.0,0.0,0.0,0.0,0.0,0.0,0.0,0.0,0.0,0.0,0.0,0.0,0.0,0.0,0.0,0.0,0.0,0.0,0.0,0.0,0.0,0.0,0.0,0.0,0.0,0.0,0.0,0.0,0.0,0.0,0.0,0.0,0.0,0.0,0.0,0.0,0.0,0.0,0.0,0.0,0.0,0.0,0.0,0.0,0.0,0.0,0.0,0.0,0.0,0.0,0.0,0.0,0.0,0.0,0.0,0.0,0.0,0.0,0.0,0.0,0.0,0.0,0.0,0.0,0.0,0.0,2.7396,2.6943,2.7198,2.6851,2.6754,2.7148,2.6753,2.6362,2.6104,2.4601,0.0,0.0,0.0,0.0,0.0,0.0,0.0,0.0,0.0,0.0,0.0,0.0,0.0,0.0,0.0,0.0,0.0,0.0,0.0,0.0,0.0,0.0,0.0,0.0,0.0,0.0,0.0,0.0,0.0,0.0,0.0,0.0,0.0,0.0,0.0,0.0,0.0,0.0,0.0,0.0,0.0,0.0,0.0,0.0,0.0,0.0,0.0,0.0,0.0,0.0,0.0,0.0,0.0,0.0,0.0,0.0,0.0,0.0,0.0,0.0,0.0,0.0,0.0,0.0,0.0,0.0,0.0,0.0,0.0,0.0,0.0,0.0,0.0,0.0,0.0,0.0,0.0,0.0,0.0,0.0,0.0,0.0,0.0,0.0,0.0,0.0,0.0,0.0,0.0,0.0,0.0,0.0,0.0,0.0,0.0,0.0,0.0,0.0,0.0,0.0,0.0,0.0,2.6871,2.7228,2.5725,2.6198,2.6264,2.5452,2.6002,2.607,2.5247,2.4309,0.0,0.0,0.0,0.0,0.0,0.0,0.0,0.0,0.0,0.0,0.0,0.0,0.0,0.0,0.0,0.0,0.0,0.0,0.0,0.0,0.0,0.0,0.0,0.0,0.0,0.0,0.0,0.0,0.0,0.0,0.0,0.0,0.0,0.0,0.0,0.0,0.0,0.0,0.0,0.0,0.0,0.0,0.0,0.0,0.0,0.0,0.0,0.0,0.0,0.0,0.0,0.0,0.0,0.0,0.0,0.0,0.0,0.0,0.0,0.0,0.0,0.0,0.0,0.0,0.0,0.0,0.0,0.0,0.0,0.0,0.0,0.0,0.0,0.0,0.0,0.0,0.0,0.0,0.0,0.0,0.0,0.0,0.0,0.0,0.0,0.0,0.0,0.0,0.0,0.0,0.0,0.0,0.0,0.0,0.0,0.0,0.0,0.0,0.0,0.0,0.0,0.0,2.6824,2.7277,2.5633,2.6185,2.6293,2.5399,2.5592,2.5589,2.5137,0.0,0.0,0.0,0.0,0.0,0.0,0.0,0.0,0.0,0.0,0.0,0.0,0.0,0.0,0.0,0.0,0.0,0.0,0.0,0.0,0.0,0.0,0.0,0.0,0.0,0.0,0.0,0.0,0.0,0.0,0.0,0.0,0.0,0.0,0.0,0.0,0.0,0.0,0.0,0.0,0.0,0.0,0.0,0.0,0.0,0.0,0.0,0.0,0.0,0.0,0.0,0.0,0.0,0.0,0.0,0.0,0.0,0.0,0.0,0.0,0.0,0.0,0.0,0.0,0.0,0.0,0.0,0.0,0.0,0.0,0.0,0.0,0.0,0.0,0.0,0.0,0.0,0.0,0.0,0.0,0.0,0.0,0.0,0.0,0.0,0.0,0.0,0.0,0.0,0.0,0.0,0.0,0.0,0.0,0.0,0.0,0.0,0.0,0.0,0.0,0.0,0.0,2.5327,2.7343,2.7922,2.5735,2.6475,2.6655,2.5492,2.5378,2.5178,2.4744,0.0,0.0,0.0,0.0,0.0,0.0,0.0,0.0,0.0,0.0,0.0,0.0,0.0,0.0,0.0,0.0,0.0,0.0,0.0,0.0,0.0,0.0,0.0,0.0,0.0,0.0,0.0,0.0,0.0,0.0,0.0,0.0,0.0,0.0,0.0,0.0,0.0,0.0,0.0,0.0,0.0,0.0,0.0,0.0,0.0,0.0,0.0,0.0,0.0,0.0,0.0,0.0,0.0,0.0,0.0,0.0,0.0,0.0,0.0,0.0,0.0,0.0,0.0,0.0,0.0,0.0,0.0,0.0,0.0,0.0,0.0,0.0,0.0,0.0,0.0,0.0,0.0,0.0,0.0,0.0,0.0,0.0,0.0,0.0,0.0,0.0,0.0,0.0,0.0,0.0,0.0,0.0,0.0,0.0,0.0,0.0,0.0,0.0,0.0,0.0,0.0,0.0,2.5593,2.847,2.9279,2.5861,2.6989,2.7282,2.555,2.5341,2.4908,0.0,0.0,0.0,0.0,0.0,0.0,0.0,0.0,0.0,0.0,0.0,0.0,0.0,0.0,0.0,0.0,0.0,0.0,0.0,0.0,0.0,0.0,0.0,0.0,0.0,0.0,0.0,0.0,0.0,0.0,0.0,0.0,0.0,0.0,0.0,0.0,0.0,0.0,0.0,0.0,0.0,0.0,0.0,0.0,0.0,0.0,0.0,0.0,0.0,0.0,0.0,0.0,0.0,0.0,0.0,0.0,0.0,0.0,0.0,0.0,0.0,0.0,0.0,0.0,0.0,0.0,0.0,0.0,0.0,0.0,0.0,0.0,0.0,0.0,0.0,0.0,0.0,0.0,0.0,0.0,0.0,0.0,0.0,0.0,0.0,0.0,0.0,0.0,0.0,0.0,0.0,0.0,0.0,0.0,0.0,0.0,0.0,0.0,0.0,0.0,0.0,0.0,0.0,2.5523,2.7997,2.8683,2.5868,2.6515,2.6694,2.5575,2.5445,2.529,2.4909,0.0,0.0,0.0,0.0,0.0,0.0,0.0,0.0,0.0,0.0,0.0,0.0,0.0,0.0,0.0,0.0,0.0,0.0,0.0,0.0,0.0,0.0,0.0,0.0,0.0,0.0,0.0,0.0,0.0,0.0,0.0,0.0,0.0,0.0,0.0,0.0,0.0,0.0,0.0,0.0,0.0,0.0,0.0,0.0,0.0,0.0,0.0,0.0,0.0,0.0,0.0,0.0,0.0,0.0,0.0,0.0,0.0,0.0,0.0,0.0,0.0,0.0,0.0,0.0,0.0,0.0,0.0,0.0,0.0,0.0,0.0,0.0,0.0,0.0,0.0,0.0,0.0,0.0,0.0,0.0,0.0,0.0,0.0,0.0,0.0,0.0,0.0,0.0,0.0,0.0,0.0,0.0,0.0,0.0,0.0,0.0,0.0,0.0,0.0,0.0,0.0,0.0,2.5613,2.7814,2.8549,2.6353,2.6548,2.6637,2.6104,2.5725,2.5318,2.488,0.0,0.0,0.0,0.0,0.0,0.0,0.0,0.0,0.0,0.0,0.0,0.0,0.0,0.0,0.0,0.0,0.0,0.0,0.0,0.0,0.0,0.0,0.0,0.0,0.0,0.0,0.0,0.0,0.0,0.0,0.0,0.0,0.0,0.0,0.0,0.0,0.0,0.0,0.0,0.0,0.0,0.0,0.0,0.0,0.0,0.0,0.0,0.0,0.0,0.0,0.0,0.0,0.0,0.0,0.0,0.0,0.0,0.0,0.0,0.0,0.0,0.0,0.0,0.0,0.0,0.0,0.0,0.0,0.0,0.0,0.0,0.0,0.0,0.0,0.0,0.0,0.0,0.0,0.0,0.0,0.0,0.0,0.0,0.0,0.0,0.0,0.0,0.0,0.0,0.0,0.0,0.0,0.0,0.0,0.0,0.0,0.0,0.0,0.0,0.0,0.0,0.0,2.5808,2.7815,2.8647,2.6975,2.6786,2.6783,2.6797,2.6003,2.5175,2.4374,0.0,0.0,0.0,0.0,0.0,0.0,0.0,0.0,0.0,0.0,0.0,0.0,0.0,0.0,0.0,0.0,0.0,0.0,0.0,0.0,0.0,0.0,0.0,0.0,0.0,0.0,0.0,0.0,0.0,0.0,0.0,0.0,0.0,0.0,0.0,0.0,0.0,0.0,0.0,0.0,0.0,0.0,0.0,0.0,0.0,0.0,0.0,0.0,0.0,0.0,0.0,0.0,0.0,0.0,0.0,0.0,0.0,0.0,0.0,0.0,2.9473,0.0,0.0,0.0,0.0,0.0,0.0,0.0,0.0,0.0,0.0,0.0,0.0,0.0,0.0,0.0,0.0,0.0,0.0,0.0,0.0,0.0,0.0,0.0,0.0,0.0,0.0,0.0,0.0,0.0,0.0,0.0,0.0,0.0,0.0,0.0,0.0,0.0,0.0,0.0,0.0,0.0,2.5805,2.7359,2.7861,2.6132,2.5915,2.5901,2.5954,2.5726,2.5503,2.5313,2.4581,0.0,0.0,0.0,0.0,0.0,0.0,0.0,0.0,0.0,0.0,0.0,0.0,0.0,0.0,0.0,0.0,0.0,0.0,0.0,0.0,0.0,0.0,0.0,0.0,0.0,0.0,0.0,0.0,0.0,0.0,0.0,0.0,0.0,0.0,0.0,0.0,0.0,0.0,0.0,0.0,0.0,0.0,0.0,0.0,0.0,0.0,0.0,0.0,0.0,0.0,0.0,0.0,0.0,0.0,0.0,0.0,0.0,0.0,0.0,0.0,3.1503,0.0,0.0,0.0,0.0,0.0,0.0,0.0,0.0,0.0,0.0,0.0,0.0,0.0,0.0,0.0,0.0,0.0,0.0,0.0,0.0,0.0,0.0,0.0,0.0,0.0,0.0,0.0,0.0,0.0,0.0,0.0,0.0,0.0,0.0,0.0,0.0,0.0,0.0,0.0,0.0,2.7015,2.7739,2.7954,2.7054,2.6173,2.5839,2.6288,2.5879,2.5609,2.5648,2.5527,0.0,0.0,0.0,0.0,0.0,0.0,0.0,0.0,0.0,0.0,0.0,0.0,0.0,0.0,0.0,0.0,0.0,0.0,0.0,0.0,0.0,0.0,0.0,0.0,0.0,0.0,0.0,0.0,0.0,0.0,0.0,0.0,0.0,0.0,0.0,0.0,0.0,0.0,0.0,0.0,0.0,0.0,0.0,0.0,0.0,0.0,0.0,0.0,0.0,0.0,0.0,0.0,0.0,3.4376,3.4478,3.5768,3.4361,3.4126,3.4755,3.3514,3.3729,3.4879,3.4141,0.0,0.0,0.0,0.0,0.0,0.0,0.0,0.0,0.0,0.0,0.0,0.0,0.0,0.0,0.0,0.0,0.0,0.0,0.0,0.0,0.0,0.0,0.0,0.0,3.6247,3.6716,0.0,0.0,0.0,0.0,0.0,0.0,0.0,0.0,0.0,0.0,0.0,0.0,2.8323,2.8305,2.8248,2.8088,2.6652,2.605,2.6926,2.629,2.593,2.6147,2.672,2.7176,0.0,0.0,0.0,0.0,0.0,0.0,0.0,0.0,0.0,0.0,0.0,0.0,0.0,0.0,0.0,0.0,0.0,0.0,0.0,0.0,0.0,0.0,0.0,0.0,0.0,0.0,0.0,0.0,0.0,0.0,0.0,0.0,3.06,3.17,0.0,0.0,0.0,0.0,0.0,0.0,0.0,0.0,0.0,0.0,0.0,0.0,0.0,3.5844,3.6484,3.6658,3.642,3.5788,3.5566,3.5612,3.5884,3.5599,3.5572,3.5756,3.6298,0.0,3.5816,3.5702,0.0,0.0,0.0,0.0,0.0,0.0,0.0,0.0,0.0,0.0,0.0,0.0,0.0,0.0,0.0,0.0,0.0,0.0,0.0,0.0,0.0,0.0,3.7106,3.6989,3.7126,3.7204,0.0,3.6286,3.5291,3.3417,3.3768,0.0,0.0,0.0,0.0,0.0,0.0,0.0,2.8401,2.8303,2.801,2.7251,2.6298,2.6047,2.6929,2.6889,2.7142,2.7903,2.7984,2.8681,3.0204,2.9596,0.0,0.0,0.0,0.0,0.0,0.0,0.0,0.0,0.0,0.0,0.0,0.0,0.0,0.0,0.0,0.0,0.0,0.0,0.0,0.0,0.0,0.0,0.0,0.0,0.0,0.0,0.0,0.0,0.0,3.1234,3.299,3.3405,3.4202,3.4532,0.0,0.0,0.0,0.0,0.0,0.0,0.0,0.0,0.0,3.7181,3.7676,3.7666,3.7055,3.7568,3.74,3.6518,3.6032,3.6078,3.6557,3.6085,3.5892,3.6003,3.6874,3.7031,3.6718,3.7207,3.7187,3.6797,0.0,0.0,0.0,0.0,3.6894,3.7024,3.7886,3.7942,3.7602,3.7502,0.0,0.0,0.0,0.0,0.0,0.0,0.0,0.0,0.0,0.0,3.7906,3.7419,3.7672,3.8024,3.8024,3.8082,3.7633,0.0,3.5896,3.533,3.2714,0.0,0.0,0.0,0.0,3.0138,2.9747,2.8871,2.8151,2.776,2.6516,2.6048,2.6927,2.7006,2.7377,2.8235,2.8737,2.9308,3.0049,3.0618,3.1086,0.0,0.0,0.0,0.0,0.0,0.0,0.0,0.0,0.0,0.0,0.0,0.0,0.0,0.0,0.0,0.0,0.0,0.0,0.0,0.0,0.0,0.0,0.0,0.0,0.0,0.0,0.0,0.0,3.3215,3.4843,3.4909,3.564,3.5815,0.0,0.0,0.0,0.0,0.0,0.0,3.642,3.7007,3.7744,3.8693,3.9364,3.9063,3.778,3.8188,3.7955,3.7081,3.6226,3.6141,3.6742,3.6168,3.5926,3.6026,3.6894,3.7246,3.7279,3.8164,3.8515,3.8492,3.8495,3.8515,3.8554,3.8808,3.8923,3.9056,3.9917,4.0051,3.9808,3.9379,3.9083,3.8668,3.7382,0.0,0.0,0.0,0.0,3.7682,3.789,3.8102,3.8102,3.7458,3.7809,3.8277,3.8277,3.8902,3.9117,0.0,3.7633,3.6794,3.4178,0.0,0.0,0.0,0.0,3.0801,3.0801,2.9537,2.8621,2.8619,2.7279,2.6714,2.7588,2.7668,2.804,2.8917,2.9558,2.9982,3.016,3.1617,3.2405,3.2357,0.0,0.0,0.0,0.0,0.0,0.0,0.0,0.0,0.0,0.0,0.0,0.0,0.0,0.0,0.0,0.0,0.0,0.0,0.0,0.0,0.0,0.0,0.0,0.0,0.0,0.0,0.0,0.0,0.0,3.5741,3.6514,0.0,0.0,0.0,0.0,3.6853,3.689,3.7279,3.8227,3.8178,3.8593,3.9597,3.9616,3.9587,3.9567,3.879,3.7955,3.7081,3.6226,3.5818,3.5865,3.5885,3.5894,3.5943,3.683,3.7207,3.7265,3.8201,3.8555,3.849,3.8495,3.8535,3.8687,3.9453,3.9784,3.9947,4.0767,4.0508,3.9937,4.0717,4.0405,3.9741,3.971,3.9127,0.0,0.0,3.9166,3.8715,3.949,3.8531,3.734,3.7301,3.7321,3.7379,3.7379,3.8043,3.8632,0.0,3.8534,3.7692,3.5096,0.0,3.2753,3.1055,3.0801,3.0801,3.0801,3.0064,2.9539,2.9535,2.8722,2.853,2.9404,2.9462,2.9833,3.0712,3.0745,3.1114,3.1934,3.2848,3.3336,3.3334,3.4137,0.0,0.0,0.0,0.0,0.0,0.0,0.0,0.0,0.0,0.0,0.0,0.0,0.0,0.0,0.0,0.0,0.0,0.0,0.0,0.0,0.0,0.0,0.0,0.0,0.0,0.0,0.0,0.0,3.7411,3.775,0.0,3.672,3.6642,3.6751,3.7026,3.8045,3.881,3.9151,3.9614,4.004,4.0412,4.0422,4.017,3.9585,3.8753,3.7909,3.7027,3.6154,3.5763,3.5799,3.5827,3.5844,3.586,3.6202,3.6656,3.7172,3.7594,3.841,3.9394,3.9393,3.9723,4.0248,4.0525,4.0641,4.0715,4.1008,4.0906,4.0684,4.0994,4.0893,4.0642,4.0652,4.0457,4.0279,4.0576,4.0086,3.9361,3.91,3.816,3.7165,3.6599,3.6033,3.5623,3.5623,3.5876,3.6094,3.6096,3.6543,3.6267,3.4217,3.3612,3.2812,3.1055,3.1289,3.1426,3.088,3.0101,2.9597,2.9601,2.8821,2.8645,2.9525,2.9601,2.9736,3.0048,3.0045,3.0413,3.1296,3.2112,3.3085,3.4217,3.4535,3.4117,0.0,0.0,0.0,0.0,0.0,0.0,0.0,0.0,0.0,0.0,0.0,0.0,0.0,0.0,0.0,0.0,0.0,0.0,0.0,0.0,0.0,0.0,0.0,0.0,0.0,3.6606,3.7536,3.7519,3.7771,3.7732,3.7113,3.7074,3.7298,3.7831,3.8935,3.9702,4.0014,4.0505,4.0796,4.0837,4.0858,4.0576,3.994,3.9131,3.8307,3.7434,3.6561,3.6017,3.5764,3.5794,3.5807,3.5807,3.5857,3.6177,3.6693,3.6797,3.7691,3.9058,3.9348,3.9951,4.0635,4.0363,4.0441,4.0656,4.0365,4.0459,4.0706,4.0704,4.0876,4.1091,4.1101,4.1101,4.1041,4.073,4.0086,3.9264,3.8397,3.7516,3.6638,3.5779,3.5115,3.4627,3.4317,3.4259,3.4164,3.3873,3.4769,3.5098,3.3656,3.3168,3.2485,3.1058,3.1331,3.1487,3.088,3.0355,3.0027,3.0011,2.9503,2.9406,2.9952,3.0007,3.0005,3.0005,3.0277,3.0706,3.1276,3.2385,3.3515,3.4686,3.4677,3.4378,3.3793,0.0,0.0,0.0,0.0,0.0,0.0,0.0,0.0,0.0,0.0,0.0,0.0,0.0,0.0,0.0,0.0,0.0,0.0,0.0,0.0,0.0,0.0,0.0,3.4516,3.6714,3.7739,3.6075,3.6599,3.7075,3.7007,3.6997,3.7715,3.9432,3.9517,3.9904,4.084,4.0765,4.0761,4.0897,4.0823,4.0792,4.0807,4.0012,3.9159,3.8287,3.7404,3.6532,3.5708,3.5764,3.5801,3.5801,3.5807,3.5825,3.5886,3.5906,3.6443,3.7341,3.8213,3.9047,3.9666,3.8897,3.9131,3.9732,3.8899,3.9151,3.9867,3.9867,4.0391,4.1013,4.1013,4.1016,4.0843,3.9998,3.9181,3.8363,3.7519,3.6638,3.5759,3.4901,3.4666,3.4396,3.3541,3.3348,3.3075,3.2233,3.3426,3.4306,3.347,3.2612,3.1791,3.1026,3.0907,0.0,3.0801,3.0864,3.0886,3.0801,3.0864,3.0866,3.0801,3.0801,3.0801,3.0801,3.1582,3.207,3.2148,3.3768,3.4686,3.4744,3.4686,3.4645,3.4642,0.0,0.0,0.0,0.0,0.0,0.0,0.0,0.0,0.0,0.0,0.0,0.0,0.0,0.0,0.0,0.0,0.0,0.0,0.0,0.0,0.0,3.5766,3.7129,3.6445,3.7,3.7508,3.7598,3.7298,3.7075,3.7007,3.7007,3.7443,3.8504,3.9151,3.9867,4.0703,4.0718,4.0725,4.075,4.0784,4.0781,4.072,3.9937,3.9096,3.8222,3.7332,3.6499,3.5687,3.5718,3.5737,3.5728,3.5733,3.5743,3.5766,3.5857,3.605,3.6386,3.7303,3.8178,3.8897,3.8684,3.8742,3.8918,3.8684,3.8762,3.8955,3.8955,3.9112,3.9287,3.9287,3.9285,3.9244,3.9008,3.8322,3.7597,3.7365,3.6177,3.5005,3.4756,3.3722,3.2746,3.2512,3.2005,3.1519,3.1285,3.1616,3.1869,3.1631,3.1381,3.1148,3.0931,3.0892,0.0,3.0866,3.0888,3.0888,3.0866,3.0888,3.0888,3.0866,3.0866,3.0845,3.0801,3.1016,3.1719,3.2988,3.35,3.4344,3.5616,3.5628,3.5625,0.0,0.0,0.0,0.0,0.0,0.0,0.0,0.0,0.0,0.0,0.0,0.0,0.0,0.0,0.0,0.0,0.0,0.0,0.0,0.0,0.0,0.0,3.6332,3.7171,3.6663,3.6888,3.7141,3.7191,3.6794,3.6639,3.6938,3.7287,3.7857,3.8686,3.9557,4.0254,4.0711,4.0742,4.075,4.0738,4.0792,4.0781,4.0746,3.9913,3.9073,3.8199,3.7328,3.6477,3.5704,3.5704,3.5704,3.5695,3.5698,3.5704,3.5714,3.5802,3.5879,0.0,0.0,0.0,0.0,0.0,3.7829,3.7517,3.7517,3.7749,3.8061,3.8061,3.8292,3.8602,3.8602,3.86,3.852,3.8166,3.7695,3.7128,3.6392,3.5457,3.4521,3.3782,3.2846,3.2007,3.1676,3.1227,3.0896,3.0897,3.0897,0.0,3.0894,3.0894,3.0895,3.0895,3.0894,3.0891,3.0866,3.0864,3.0864,3.0864,3.0864,3.1001,3.1372,3.1392,0.0,0.0,0.0,3.3222,3.4959,3.502,0.0,0.0,0.0,0.0,0.0,0.0,0.0,0.0,3.8064,3.8772,0.0,0.0,0.0,0.0,0.0,0.0,0.0,0.0,0.0,0.0,0.0,0.0,0.0,0.0,0.0,0.0,3.6465,3.5995,3.5907,3.6515,3.6638,3.5805,3.5708,3.5987,3.669,3.7464,3.8326,3.9278,4.0072,4.0587,4.0796,0.0,0.0,0.0,0.0,4.0796,4.079,3.9952,3.905,3.8199,3.7328,3.6477,3.5704,3.5704,3.5704,3.5704,3.5704,3.5698,3.5713,3.5762,3.5845,3.5921,3.5976,3.6463,3.7144,3.7146,3.6659,3.5996,3.5996,0.0,0.0,3.7143,3.7684,3.8302,3.8319,3.8319,3.8144,3.736,3.7145,3.6777,3.5125,3.4638,3.4131,3.2495,3.2046,3.1774,3.1053,3.0897,3.0897,3.0897,3.0898,3.0898,3.0897,3.0896,3.0895,3.0895,3.0892,3.0888,3.0823,3.0801,3.0801,3.0801,0.0,0.0,3.2034,3.2092,3.2502,3.3498,3.4357,3.5547,3.7089,3.7246,3.7653,3.843,3.8584,3.8564,3.8408,3.843,3.8316,3.8067,3.8285,3.8874,0.0,0.0,0.0,0.0,0.0,0.0,0.0,0.0,0.0,0.0,0.0,0.0,0.0,0.0,0.0,3.5178,3.6092,3.6637,3.5996,3.5981,3.5951,3.5737,3.5708,3.5755,3.5916,3.6071,3.6806,3.8334,3.8605,3.9313,4.0718,4.0796,4.0796,4.0803,4.0803,4.0803,4.079,3.9952,3.905,3.8199,0.0,0.0,3.5704,3.5704,3.5704,3.5704,3.5704,3.5695,3.5718,3.5762,3.5861,3.5976,3.5996,3.6094,3.625,3.625,3.6133,3.5996,3.5996,3.6113,3.625,3.6249,3.6365,3.65,3.6493,3.6491,0.0,3.6306,3.6247,3.6016,3.4972,3.4173,3.3393,3.2421,3.164,3.1093,3.0937,3.0898,3.0898,3.0898,3.0898,3.0897,3.0897,3.0898,3.0898,3.0897,3.0896,3.0894,3.0888,3.0886,3.0864,3.0801,3.0801,3.1155,3.204,3.2098,3.2764,3.4347,3.5263,3.5908,3.6243,3.6921,3.736,3.7468,3.8838,3.917,3.839,3.9038,3.8626,3.7249,3.7908,3.9077,0.0,0.0,0.0,0.0,0.0,0.0,0.0,0.0,0.0,0.0,0.0,3.3473,3.3914,0.0,3.6414,3.5963,3.6621,3.6894,3.6014,3.5864,3.583,3.576,3.5718,3.5706,3.5704,3.6052,3.6826,3.8102,3.8605,3.9417,4.0732,4.079,4.079,4.079,4.079,4.079,4.079,3.9495,3.8624,3.8179,3.6903,3.6091,3.5704,3.5704,3.5704,3.5704,3.5708,3.5708,3.5698,3.5805,3.5918,3.5996,3.5996,3.5996,3.5996,3.5996,3.5996,3.5996,3.5996,3.5996,3.5996,3.5994,3.5992,3.601,3.6001,3.5999,3.5999,3.5994,3.5991,3.5703,3.4386,3.3725,3.3082,3.1836,3.1211,3.0898,3.0898,3.0898,3.0898,3.0898,3.0878,3.0856,3.0897,3.0875,3.0855,3.0894,3.0894,3.0892,3.0907,3.0909,3.0889,3.0845,3.1218,3.1805,3.2684,3.3547,3.4425,3.5304,3.5751,3.6177,3.6579,3.7359,3.7781,3.7747,3.8981,3.9151,3.8239,3.8219,3.7964,3.7502,3.7469,3.8659,0.0,0.0,0.0,0.0,0.0,0.0,0.0,3.2459,3.2825,3.284,3.3901,3.5056,3.5738,3.6455,3.6923,3.6929,3.6972,3.6755,3.6009,3.5898,3.5871,3.5827,3.5763,3.5708,3.5697,3.6297,3.7022,3.7889,3.874,3.963,4.05,4.0713,4.079,4.079,4.079,4.0713,4.0539,3.8992,3.8121,3.7928,3.6419,3.5695,3.5697,3.5697,3.5707,3.5718,3.5713,3.5733,3.5755,3.5849,3.5948,3.5996,3.5996,3.5996,3.5996,3.5996,3.5996,3.5996,3.5996,3.5996,3.5995,3.5992,3.6007,3.6003,3.5994,3.5991,3.5991,3.5991,3.5991,3.5606,3.3859,3.3527,3.3176,3.1327,3.1014,3.1092,3.0916,3.0877,3.0877,3.0877,3.0969,3.1062,3.1125,3.1214,3.1187,3.0923,3.0886,3.0884,3.088,3.0886,3.0948,3.112,3.1711,3.2591,3.3799,3.5187,3.6066,3.6218,3.6077,3.6339,3.7123,3.7728,3.8109,3.8255,3.884,3.8806,3.8092,3.7385,3.7372,3.7988,3.745,3.856,3.4716,3.5321,3.5452,3.5407,3.5395,3.5578,0.0,3.5903,3.5403,3.5457,3.5587,3.5709,3.5779,3.5889,3.5951,3.597,3.6008,3.6016,3.5916,3.5898,3.5901,3.5887,3.5827,3.5768,3.5713,3.5782,3.6173,3.698,3.7851,3.8721,3.9603,4.0365,4.079,4.079,4.079,4.0423,3.9661,3.8682,3.7812,3.7038,3.6129,3.5698,3.5704,3.5704,3.5725,3.5794,3.58,3.5827,3.5884,3.589,3.5948,3.5996,3.5996,3.5996,3.5996,3.5996,3.5996,3.5996,3.5995,3.5995,3.5994,3.6009,3.6005,3.6003,3.5994,3.5991,3.5991,3.5991,3.5991,3.5603,3.3853,3.3964,3.3916,3.1409,3.1401,3.1741,3.0983,3.0807,3.0807,3.0807,3.1429,3.1968,3.196,3.2556,3.2522,3.1025,3.0816,3.0807,3.0817,3.0813,3.11,3.1889,3.2055,3.3078,3.5502,3.5884,3.6306,3.7028,3.6345,3.625,3.6988,3.709,3.7452,3.8117,3.8206,3.8177,3.8017,3.7906,3.7906,3.8012,3.8627,3.9912,3.4419,3.5272,3.5752,3.584,3.6618,3.7214,3.6579,3.611,3.5815,3.5842,3.5815,3.5807,3.5807,3.625,3.6433,3.5893,3.6281,3.6489,3.5974,3.593,3.5957,3.5954,3.5927,3.5864,3.5762,3.5768,3.6091,3.691,3.7773,3.8625,3.9472,4.0333,4.0809,4.0792,4.0354,3.9927,3.9572,3.8229,3.7384,3.6997,3.6153,3.5762,3.5768,3.5762,3.5791,3.5853,3.5853,3.5893,3.5953,3.5953,3.5975,3.5996,3.5996,3.5996,3.5996,3.5996,3.5996,3.5996,3.5995,3.5995,3.5994,3.6007,3.6005,3.6003,3.5994,3.5991,3.5991,3.5991,3.5965,3.5669,3.4471,3.403,3.3489,3.1923,3.1451,3.1246,3.0876,3.0798,3.0798,3.0798,3.1055,3.13,3.1343,3.2007,3.2308,3.1602,3.1932,3.2249,3.225,3.2244,3.2592,3.3454,3.3555,3.4202,3.5812,3.5908,3.6026,3.6353,3.597,3.5854,3.6173,3.6598,3.6933,3.7147,3.7632,3.7859,3.7819,3.7833,3.8098,3.858,3.8925,3.9998,3.3419,3.439,3.532,3.5456,3.6625,3.7416,3.6156,3.583,3.5795,3.5799,3.5799,3.5807,3.5807,3.6363,3.6618,3.5935,3.6409,3.6625,3.599,3.5957,3.5989,3.5973,3.5973,3.6035,3.6163,3.5962,3.6064,3.6623,3.7704,3.8583,3.918,4.0241,4.0735,4.0509,3.9926,3.94,3.8926,3.77,3.6988,3.6722,3.6099,3.5806,3.5825,3.5841,3.5874,3.5925,3.5925,3.5953,3.5996,3.5996,3.5996,3.5996,3.5996,3.5996,3.5996,3.5996,3.5996,3.6035,3.6287,3.6208,3.5992,3.6005,3.6001,3.6001,3.5994,3.5988,3.5965,3.5965,3.5935,3.5708,3.4885,3.4343,3.3682,3.2374,3.1956,3.1729,3.1237,3.1315,3.149,3.149,3.1626,3.1765,3.1802,3.2487,3.3017,3.3017,3.3536,3.3751,3.3354,3.3517,3.3897,3.4521,3.4783,3.5265,3.6103,3.5905,3.585,3.6068,3.5756,3.5658,3.5879,3.6369,3.6699,3.6821,3.7405,3.781,3.8059,3.8057,3.8514,3.9355,3.9355,4.0005,3.2077,3.2945,3.4287,3.44,3.5174,3.5868,3.5832,3.5801,3.5799,3.5799,3.5788,3.5803,3.5803,3.5884,3.5917,3.5898,3.5922,3.5929,3.589,3.5958,3.5971,3.5903,3.5903,3.6225,3.7081,3.6384,3.5884,3.5831,3.743,3.841,3.8439,4.0004,4.0545,3.976,3.9702,3.8883,3.7181,3.7123,3.6679,3.5845,3.5806,3.5828,3.5893,3.5957,3.5996,3.5996,3.5996,3.5996,3.5996,3.5996,3.5996,3.5995,3.5995,3.5994,3.5992,3.5992,3.5993,3.6111,3.6964,3.6706,3.6003,3.5996,3.5994,3.5994,3.5991,3.5942,3.5908,3.5908,3.5899,3.5695,3.4832,3.5217,3.5187,3.26,3.3278,3.4022,3.2329,3.2633,3.3223,3.3223,3.3845,3.4389,3.4389,3.5048,3.5601,3.5601,3.5488,3.4919,3.3472,3.405,3.4555,3.4517,3.5256,3.6059,3.682,3.6096,3.5927,3.6723,3.5979,3.5824,3.6541,3.6539,3.6878,3.7636,3.7678,3.8117,3.8973,3.8954,3.9412,4.0272,4.0272,4.0291,3.3144,3.4011,3.4911,3.5082,3.5803,3.6357,3.5902,3.5775,3.5756,3.5791,3.5344,3.5119,3.5687,3.5378,3.5236,3.5807,3.6384,3.6562,3.5977,3.6922,3.7441,3.6827,3.7276,3.7747,3.8026,3.6792,3.6425,3.7519,3.8138,3.8697,3.924,3.9839,4.0054,3.9778,3.8645,3.775,3.7172,3.6643,3.6202,3.5873,3.5916,3.5937,3.5974,3.5993,3.5991,3.6005,3.6005,3.6005,3.6005,3.6005,3.6009,3.5993,3.5993,3.5992,3.6069,3.6651,3.6495,3.6048,3.6337,3.6257,3.6003,3.5996,3.5965,3.5935,3.5935,3.5923,3.5904,3.5904,3.5908,3.5833,3.5538,3.5248,3.4815,3.392,3.3732,3.3568,3.2982,3.3099,3.3258,3.3178,3.3401,3.3558,3.3518,3.4163,3.4905,3.5485,3.5538,3.5326,3.4823,3.5009,3.5185,3.5164,3.5426,3.5706,3.5955,3.5656,3.5586,3.5855,3.5998,3.6211,3.6449,3.6951,3.7603,3.8404,3.8461,3.8918,3.9795,3.9833,4.0024,4.031,4.031,4.031,3.3576,3.4235,3.4745,3.5251,3.583,3.6199,3.5764,3.5689,3.5718,3.5765,3.5094,3.4781,3.5632,3.5145,3.4971,3.6131,3.682,3.7111,3.686,3.7795,3.8293,3.7722,3.8151,3.8599,3.8924,3.7718,3.7346,3.8418,3.8789,3.9199,3.9706,3.9785,3.9668,3.9354,3.7949,3.705,3.6738,3.6249,3.5972,3.5909,3.5942,3.5955,3.5952,3.5955,3.5952,3.5965,3.5991,3.5991,3.5994,3.5999,3.6003,3.6009,3.6009,3.5986,3.6038,3.6599,3.6459,3.6007,3.6325,3.6228,3.5952,3.5958,3.5947,3.5895,3.5895,3.5894,3.5891,3.5891,3.5872,3.5878,3.5885,3.5483,3.4983,3.4659,3.436,3.407,3.3763,3.3904,3.4061,3.3963,3.3953,3.4047,3.4275,3.4956,3.5633,3.6161,3.6257,3.607,3.556,3.5495,3.5483,3.5464,3.5464,3.5553,3.5806,3.5791,3.5883,3.6173,3.6589,3.6823,3.6823,3.7604,3.8271,3.8823,3.9185,3.9662,4.0234,4.0272,4.031,4.031,4.031,4.0253,3.3299,3.3619,3.3882,3.4838,3.5234,3.5393,3.5406,3.5546,3.5679,3.565,3.4988,3.4692,3.5499,3.5048,3.5081,3.6774,3.7176,3.756,3.8377,3.8579,3.8618,3.8579,3.8558,3.8896,3.9783,3.911,3.8633,3.8631,3.9353,3.9817,3.9867,3.9828,3.9394,3.8527,3.7639,3.6781,3.5909,3.5958,3.5958,3.5909,3.5909,3.5909,3.5909,3.589,3.5895,3.5903,3.5965,3.5991,3.5991,3.5984,3.5986,3.5982,3.5982,3.5952,3.5903,3.5903,3.589,3.6011,3.6855,3.659,3.5903,3.5899,3.5908,3.5908,3.5908,3.5905,3.5898,3.5898,3.5845,3.5811,3.5872,3.5892,3.5684,3.4847,3.5212,3.5514,3.47,3.5093,3.563,3.5598,3.5618,3.5843,3.6612,3.7268,3.7674,3.7604,3.7605,3.7122,3.5791,3.5618,3.5566,3.5513,3.5499,3.5764,3.6401,3.646,3.6785,3.7547,3.7643,3.7662,3.7662,3.8442,3.8899,3.8975,3.9776,4.0215,4.031,4.0291,4.0291,4.0291,4.0273,4.0118,3.3387,3.3878,3.4447,3.4851,3.4999,3.5083,3.5345,3.5451,3.533,3.4836,3.4089,3.3599,3.3821,3.3736,3.4199,3.5937,3.7313,3.8248,3.8474,3.9624,4.0208,3.9546,4.0026,4.052,4.0746,4.052,4.0383,4.0421,4.0043,4.0086,4.073,4.014,3.9403,3.8536,3.7648,3.6785,3.5914,3.5928,3.5928,3.5894,3.5894,3.5894,3.5894,3.5942,3.5953,3.5911,3.5929,3.5929,3.5936,3.5928,3.5919,3.5934,3.5934,3.5929,3.5899,3.5899,3.5894,3.5928,3.615,3.6098,3.5899,3.5894,3.5897,3.5892,3.5892,3.5864,3.5834,3.5834,3.5823,3.5795,3.5754,3.5743,3.5666,3.5359,3.5878,3.6381,3.6163,3.6735,3.7247,3.7172,3.7094,3.7122,3.7351,3.7507,3.7623,3.7605,3.7605,3.7471,3.7103,3.7063,3.7064,3.7048,3.7048,3.7126,3.7281,3.73,3.7376,3.7585,3.8175,3.8499,3.8499,3.9317,3.9794,3.9872,4.0081,4.0215,4.031,4.0098,3.9996,3.9996,3.9804,3.967,3.2816,3.3156,3.3629,3.4128,3.4301,3.4394,3.456,3.4712,3.4623,3.3848,3.3132,3.2751,3.3081,3.3538,3.4431,3.6149,3.7895,3.9155,3.9532,4.0441,4.0877,4.0377,4.0766,4.1065,4.111,4.1045,4.1018,4.1059,4.0596,4.0544,4.1039,4.0232,3.936,3.8486,3.7639,3.6782,3.5908,3.5905,3.5898,3.5911,3.5859,3.5853,3.5866,3.5891,3.5879,3.5857,0.0,3.5905,3.5905,3.5898,3.5897,3.5908,3.5908,3.5903,3.5911,3.5911,3.5879,3.5859,3.5864,3.5864,3.5866,3.5866,3.5852,3.5857,3.5857,3.5834,3.5791,3.5727,3.5736,3.5824,3.6063,3.6129,3.6218,3.6497,3.6883,3.7175,3.7171,3.7498,3.7781,3.7675,3.7909,3.8118,3.8118,3.8402,3.861,3.861,3.861,3.861,3.861,3.8023,3.7605,3.7605,3.7605,3.7738,3.8099,3.8137,3.827,3.8631,3.9107,3.9374,3.9374,3.987,4.0157,4.0196,4.0459,4.061,4.0649,4.0734,4.0769,4.0769,4.0246,4.0158,3.2064,3.2105,3.2274,3.3043,3.3297,3.3411,3.3447,3.3684,3.367,3.2846,3.2257,3.2106,3.2803,3.3755,3.5006,3.6817,3.8477,3.9913,4.101,4.1066,4.1042,4.1162,4.1064,4.1025,4.1078,4.103,4.1003,4.0999,4.1006,4.1006,4.1006,4.0285,3.9422,3.842,3.7617,3.6774,3.5897,3.5892,3.5891,3.5891,3.583,3.5795,3.5799,3.5807,3.5807,3.5799,3.5864,3.5878,3.5898,3.5885,3.5897,3.5897,3.5897,3.5879,3.5891,3.5891,3.585,3.5799,3.5799,3.5799,3.5799,3.5799,3.5799,3.5791,3.5782,3.5773,3.5756,3.5618,3.5704,3.5955,3.6537,3.6774,3.7018,3.7723,3.7905,3.7926,3.7915,3.7944,3.7966,3.7928,3.8478,3.8952,3.8952,3.9477,3.9889,3.9889,3.9889,3.9889,3.9889,3.8743,3.7909,3.7909,3.7909,3.8194,3.8895,3.8954,3.9258,3.9979,4.0077,4.0117,4.0057,4.0118,4.0138,4.0098,4.0726,4.1056,4.1101,4.1651,4.189,4.1871,4.1132,4.1045,3.21,3.2083,3.2142,3.2292,3.2351,3.243,3.2708,3.2821,3.268,3.2112,3.1932,3.193,3.201,3.2857,3.4319,3.6705,3.7969,3.9424,4.1751,4.1451,4.1276,4.1999,4.1439,4.1003,4.1023,4.1007,4.0999,4.0996,4.1003,4.1011,4.1006,4.085,4.0038,3.8443,3.7572,3.6709,3.5834,3.5815,3.5826,3.5826,3.5799,3.5799,3.5799,3.5852,3.5845,3.5799,3.5878,0.0,3.5826,3.5815,3.5815,3.5815,3.5815,3.5815,3.5826,3.5826,3.5799,3.5799,3.5799,3.5799,3.5799,3.5799,3.5799,3.5782,3.5659,3.5639,3.5618,3.547,3.5952,3.6543,3.6599,3.7122,3.7625,3.7708,3.8193,3.8633,3.8632,3.9104,3.9496,3.9496,3.9608,3.9702,3.9702,3.9816,3.9889,3.9889,3.9889,3.9889,3.9889,3.9665,3.9496,3.9496,3.9496,3.9593,3.9787,3.9787,3.9865,4.0077,4.0157,4.0077,3.9848,3.9914,3.9848,3.9623,4.0384,4.0871,4.1105,4.1638,4.1905,4.1905,4.153,4.1297,3.0918,3.0827,3.096,3.1372,3.1485,3.1525,3.1672,3.1822,3.1847,3.1588,3.1334,3.1439,3.2319,3.3276,3.4473,3.6145,3.7544,3.9155,4.1326,4.1249,4.1315,4.2198,4.1926,4.1498,4.1035,4.0999,4.0991,4.0996,4.1007,4.1007,4.0991,4.0135,3.905,3.7755,3.6884,3.625,3.585,3.5826,3.5799,3.5788,3.5799,3.5799,3.5799,3.583,3.5823,3.5799,3.583,3.5823,3.5799,3.5799,3.5799,3.5799,3.5799,3.5799,3.5799,3.5799,3.5799,3.5799,3.5799,3.5745,3.5699,3.5699,3.5699,3.5679,3.5629,3.5554,3.556,3.584,3.6243,3.6761,3.7504,3.8002,3.8421,3.8804,3.9183,3.9429,3.9467,3.9688,3.9889,3.9889,3.9889,3.9889,3.9889,3.9889,3.9889,3.9889,3.9889,3.9889,3.9889,3.9889,3.9889,3.9889,3.9933,3.9954,3.9996,4.0077,4.0118,4.0157,4.0196,4.0196,4.0057,4.0497,4.0602,4.0335,4.1412,4.1954,4.1927,4.247,4.273,4.2711,4.2168,4.2065,2.9735,2.957,2.9814,3.0639,3.0864,3.0884,3.0923,3.112,3.1295,3.1363,3.1046,3.1312,3.3054,3.3974,3.4835,3.5907,3.7372,3.9071,4.0982,4.1252,4.1571,4.2447,4.2385,4.1937,4.1057,4.0991,4.0982,4.098,4.0999,4.0921,4.0735,3.9412,3.8198,3.7125,3.6445,3.6005,3.5891,3.5834,3.5807,3.5795,3.5799,3.5799,3.5799,3.5799,3.5799,3.5799,3.5799,3.5799,0.0,3.5799,3.5799,3.5799,3.5799,3.5799,3.5799,3.5799,3.5782,3.5784,3.5959,3.5931,3.5852,3.6026,3.5852,3.5543,3.5519,3.5573,3.5715,3.6222,3.6663,3.7273,3.842,3.8893,3.9238,3.9905,4.0017,4.0017,4.0096,3.9975,3.9889,3.9889,3.9889,3.9889,3.9889,3.9889,3.9889,3.9889,3.9889,3.9889,3.9889,3.9911,3.9911,3.9911,3.9975,4.0017,4.0038,4.0138,4.0196,4.0215,4.0234,4.0272,4.0384,4.0952,4.12,4.1086,4.2304,4.2853,4.2693,4.3291,4.3615,4.3597,4.2971,4.2941,2.9567,2.933,2.956,3.0501,3.0727,3.0768,3.1031,3.12,3.134,3.1533,3.163,3.2211,3.3955,3.4352,3.4962,3.6703,3.778,3.9265,4.174,4.2101,4.2403,4.3296,4.2684,4.1869,4.0994,4.0917,4.0907,4.0917,4.0971,4.0657,3.9863,3.9665,3.8821,3.7139,3.7023,3.6595,3.5818,3.5799,3.5799,3.5799,3.5799,3.5799,3.5799,3.5799,3.5799,3.5799,3.5799,3.5799,0.0,3.5799,3.5799,3.5799,3.5799,3.5799,3.5799,3.5799,3.5727,3.5715,3.6439,3.6607,3.6636,3.7416,3.6661,3.5391,3.5266,3.5739,3.6301,3.6255,3.7356,3.8611,3.8762,3.9391,4.0002,4.0157,4.0098,4.0017,4.0096,3.9975,3.9889,3.9889,3.9889,3.9889,3.9889,3.9889,3.9889,3.9889,3.9889,3.9889,3.9889,3.9954,3.9996,3.9996,3.9996,4.0057,4.0176,4.0196,4.0234,4.0291,4.0077,4.0167,4.0641,4.0502,4.0632,4.1093,4.1944,4.2479,4.2716,4.3528,4.3942,4.3942,4.3899,4.3707,2.9928,2.9659,2.9518,3.0376,3.0605,3.0818,3.1446,3.1838,3.2252,3.2802,3.2743,3.3103,3.4816,3.4759,3.4872,3.6121,3.6615,3.773,4.0321,4.0701,4.1382,4.3276,4.2723,4.2053,4.1723,4.1218,4.0907,4.0907,4.0963,4.0388,3.8982,3.8918,3.8121,3.6362,3.6323,3.6148,3.5799,3.5799,3.5799,3.5799,3.5799,3.5799,3.5799,3.5799,3.5799,3.5799,3.5799,3.5799,0.0,3.5799,3.5745,3.5669,3.5669,3.5629,3.5631,3.6103,3.624,3.6318,3.7159,3.7382,3.7319,3.7663,3.7252,3.6629,3.6682,3.6878,3.7148,3.7583,3.8228,3.8914,3.9347,3.9768,4.0117,4.0137,4.0137,4.0118,4.0098,4.0036,3.9954,3.9911,3.9889,3.9889,3.9889,3.9889,3.9889,3.9889,3.9889,3.9889,3.9889,3.9954,3.9954,3.9848,3.9996,4.0138,4.0196,4.0098,4.0245,4.0739,4.0518,4.0685,4.141,4.179,4.2023,4.2063,4.2876,4.3282,4.318,4.355,4.3716,4.3716,4.3716,4.3615,2.9899,2.9935,3.008,3.0676,3.1058,3.148,3.2142,3.2637,3.315,3.3713,3.3628,3.3973,3.5697,3.5389,3.5163,3.6032,3.6409,3.7303,3.9399,4.0352,4.1498,4.3287,4.3189,4.2781,4.2257,4.1412,4.0907,4.0907,4.0954,4.0235,3.8488,3.8405,3.7607,3.5857,3.5799,3.5799,3.5799,3.5799,3.5799,3.5799,3.5799,3.5799,3.5799,3.5799,3.5782,3.5736,3.5736,3.5718,0.0,3.5669,3.5629,3.555,3.5801,3.5849,3.5853,3.6685,3.6964,3.7053,3.7901,3.8108,3.8042,3.8271,3.8251,3.8169,3.8309,3.8118,3.7982,3.8548,3.8911,3.9254,3.9802,4.0036,4.0117,4.0157,4.0157,4.0157,4.0117,4.0036,3.9954,3.9911,3.9889,3.9889,3.9889,3.9889,3.9889,3.9889,3.9845,3.9898,4.0144,4.0163,4.0193,4.032,4.0545,4.0602,4.0374,4.0435,4.0722,4.1307,4.1079,4.1314,4.2118,4.2594,4.2895,4.2958,4.3532,4.3749,4.3497,4.3497,4.3497,4.3497,4.3497,4.3532,2.913,3.0033,3.1415,3.156,3.2289,3.3018,3.3146,3.3545,3.3895,3.3907,3.4101,3.4847,3.6658,3.627,3.5999,3.6931,3.7813,3.868,3.9567,4.1879,4.3471,4.351,4.4248,4.4093,4.2364,4.1412,4.0907,4.0907,4.0954,4.0235,3.8488,3.8408,3.7611,3.5857,3.5799,3.5799,3.5799,3.5799,3.5799,3.5799,3.5799,3.5799,3.5799,3.5799,3.5727,3.5607,3.5607,3.5519,0.0,3.5405,3.5405,3.5482,3.6276,3.6603,3.6685,3.7574,3.7792,3.779,3.8611,3.8804,3.8833,3.9627,3.9892,3.9851,3.9892,3.9323,3.87,3.87,3.9267,3.9933,4.0057,4.0096,4.0137,4.0273,4.0195,4.0117,4.0117,3.9994,3.9889,3.9889,3.9889,3.9889,3.9889,3.9889,3.9889,3.9889,3.9735,3.99,4.0685,4.0697,4.0892,4.1696,4.1844,4.1578,4.0753,4.1428,4.1871,4.189,4.1642,4.1857,4.2656,4.2433,4.2671,4.3461,4.3479,4.3479,4.3497,4.3497,4.3497,4.3497,4.3497,4.3532,2.9613,3.0002,3.0534,3.0625,3.1381,3.2279,3.2925,3.384,3.4601,3.4704,3.4932,3.533,3.5989,3.593,3.6267,3.7747,3.8213,3.909,4.1121,4.1981,4.2889,4.4238,4.4112,4.3452,4.2306,4.1412,4.0907,4.0907,4.0917,4.0198,3.8479,3.8307,3.7502,3.5849,3.5718,3.5659,3.5659,3.5566,3.5519,3.5519,3.5519,3.5519,3.5538,3.6098,3.6324,3.6325,3.6895,3.7137,0.0,3.7113,3.7053,3.6996,3.7245,3.7273,3.7185,3.7471,3.7547,3.7623,3.8478,3.8741,3.8812,3.9646,3.9889,3.9889,3.9889,3.9721,3.9532,3.9575,3.9766,3.9975,4.0077,4.0117,4.0137,4.0196,4.0196,4.0157,4.0117,4.0057,4.0015,3.9911,3.9889,3.9867,3.9712,3.9693,3.9665,3.9502,3.9427,3.9701,4.0499,4.0592,4.083,4.1452,4.2076,4.2192,4.1571,4.1595,4.1874,4.2433,4.2186,4.2415,4.3225,4.318,4.3222,4.3497,4.3497,4.3497,4.3497,4.3497,4.3497,4.3497,4.3497,4.3532,2.9533,3.0246,3.1017,3.0748,3.1676,3.2804,3.339,3.4231,3.4945,3.5069,3.5292,3.5611,3.6135,3.5968,3.644,3.8548,3.8891,3.9671,4.1915,4.2673,4.3563,4.5113,4.4239,4.3297,4.2733,4.1607,4.0907,4.0907,4.0849,4.0227,3.885,3.8334,3.7486,3.6142,3.5728,3.5519,3.5519,3.574,3.5853,3.5853,3.6199,3.6339,3.6358,3.6858,3.706,3.7057,3.7578,3.7775,0.0,3.7708,3.7656,3.7604,3.7947,3.7813,3.7428,3.7769,3.7675,3.7466,3.8016,3.8205,3.8338,3.9172,3.9665,3.9889,3.9889,3.9889,3.9911,3.9954,3.9975,4.0036,4.0077,4.0117,4.0157,4.0196,4.0176,4.0157,4.0077,4.0036,3.9994,3.9823,3.9781,3.9735,3.9526,3.9477,3.9564,3.9728,3.9685,4.004,4.1146,4.1248,4.1494,4.2123,4.2659,4.2878,4.2523,4.2353,4.2469,4.2968,4.2827,4.2983,4.3461,4.3497,4.3497,4.3497,4.3497,4.3497,4.3497,4.3497,4.3497,4.3497,4.3497,4.3513,0.0,3.0759,3.2514,3.171,3.2919,3.4293,3.4293,3.4645,0.0,3.516,3.5289,3.5746,3.6958,3.6472,3.6772,3.9512,4.0003,4.0649,4.2388,4.4035,4.5298,4.5978,4.4579,4.3548,4.3481,4.1898,4.0869,4.0869,4.0754,4.0294,3.9431,3.8488,3.755,3.6613,3.5902,3.5518,3.5474,3.6267,3.6656,3.6675,3.7487,3.7855,3.7855,3.7932,3.789,0.0,3.7829,3.7757,0.0,3.758,3.758,3.7656,3.8471,3.8243,3.758,3.8319,3.8054,3.7296,3.7296,3.7296,3.7466,3.8395,3.921,3.9835,3.987,3.9889,3.9889,3.9911,3.9954,4.0036,4.0077,4.0157,4.0196,4.0196,4.0157,4.0077,4.0017,3.9933,3.9804,3.9623,3.9575,3.9521,3.9373,3.9365,3.9645,4.0412,4.0372,4.0818,4.239,4.2419,4.2598,4.3406,4.3497,4.3497,4.3497,4.3497,4.3497,4.3497,4.3497,4.3497,4.3497,4.3497,4.3497,4.3497,4.3497,4.3497,4.3497,4.3497,4.3497,4.3497,4.3497,4.3513,3.0858,0.0,3.2514,3.1758,3.2985,3.4372,0.0,3.5042,3.5752,3.6041,3.5608,3.5744,3.7674,3.7749,3.864,4.2062,4.2997,4.3918,4.5716,4.6809,4.6993,4.5858,4.4761,4.3882,4.3337,4.1602,4.053,4.053,4.0487,4.0106,3.9283,3.8895,3.7991,3.6482,3.6746,3.6669,3.6176,3.686,3.7205,3.7205,3.7414,3.7509,3.7528,3.8213,3.8498,3.8496,3.9121,0.0,3.9323,3.9323,3.9323,3.9342,3.9551,3.9115,3.8338,3.7864,3.7182,3.6481,3.6481,3.6481,3.6727,3.8226,3.8812,3.9096,3.9721,3.9889,3.9911,3.9954,3.9975,4.0036,4.0157,4.0157,4.0137,4.0196,4.0157,4.0077,4.0017,3.9826,3.9623,3.9551,3.9401,3.9442,3.9833,3.9944,4.0211,4.0861,4.0914,4.1232,4.2224,4.2338,4.2598,4.3406,4.3497,4.3497,4.3497,4.3497,4.3497,4.3497,4.3497,4.3497,4.3497,4.3497,4.3497,4.3497,4.3497,4.3497,4.3497,4.3497,4.3497,4.3497,4.3339,4.3286,3.1949,3.2699,3.3165,3.2798,3.4117,3.5509,3.5509,3.5726,3.5967,3.6198,3.5587,3.5632,3.7641,3.8323,3.9714,4.3247,4.4481,4.548,4.6858,4.7184,4.6726,4.5233,4.4356,4.3535,4.2651,4.1292,4.0427,4.0392,4.0348,4.0125,3.9668,3.9127,3.8385,3.7471,3.7811,3.7451,3.631,3.7432,3.7997,3.7997,3.8376,3.8546,3.8565,3.9039,3.9248,3.9267,3.9721,0.0,3.9889,3.9889,3.9889,3.9889,3.9889,3.9418,3.8605,3.7713,3.6879,3.614,3.5742,3.5874,3.6348,3.7258,3.7788,3.8167,3.8622,3.9039,3.9418,3.984,3.9975,4.0017,4.0098,4.0098,4.0098,4.0098,3.9996,3.9892,3.9804,3.9575,3.9488,3.973,3.9686,3.9804,4.0443,4.0541,4.0767,4.1534,4.1629,4.1889,4.2745,4.2837,4.302,4.3442,4.3428,4.3339,4.3339,4.3339,4.341,4.3479,4.3497,4.3497,4.3497,4.341,4.3304,4.3232,4.3214,4.3214,4.3214,4.2849,4.2667,4.2667,4.2559,4.2523,3.2927,3.3776,3.4252,3.4072,3.5391,3.6763,3.6807,3.6414,3.6111,3.625,3.5836,3.5989,3.7766,3.892,4.071,4.4003,4.5365,4.6227,4.6841,4.6765,4.608,4.4544,4.3968,4.3162,4.1879,4.0966,4.0399,4.0329,4.0135,3.9967,3.9967,3.9163,3.8643,3.851,3.8736,3.813,3.6594,3.8111,3.8869,3.8888,3.957,3.9889,3.9889,3.9889,3.9911,3.9911,0.0,0.0,3.9911,3.9911,3.9889,3.9889,3.9889,3.9418,3.8605,3.7713,3.6879,3.6083,3.5192,3.5382,3.6007,3.6159,3.6651,3.7239,3.7353,3.7921,3.8641,3.9342,3.9724,3.9975,3.9954,3.9996,4.0015,3.9933,3.9781,3.9623,3.9477,3.9365,3.9463,3.9963,4.0142,4.0399,4.1115,4.1159,4.1415,4.2326,4.2438,4.266,4.3406,4.3479,4.3444,4.3444,4.3268,4.316,4.316,4.316,4.3232,4.341,4.3444,4.3444,4.341,4.3232,4.3087,4.2882,4.2882,4.2882,4.2882,4.2067,4.1704,4.1776,4.1612,4.152,3.4471,3.5512,3.5708,3.44,3.5384,3.666,3.677,3.6777,3.6827,3.7062,3.7616,3.8398,3.9604,4.0997,4.2886,4.5687,4.6896,4.726,4.6663,4.7776,4.7549,4.4589,4.4633,4.4059,4.1831,4.0749,4.0138,4.008,3.9411,3.8991,3.8931,3.8776,3.8357,3.7618,3.8982,3.9267,3.834,3.9248,3.9721,3.9721,3.9832,3.9889,3.9889,3.9889,3.9933,3.9975,0.0,3.9933,3.9975,3.9933,3.9889,3.9889,3.9889,3.9418,3.8605,3.7713,3.6879,3.6083,3.5192,3.4984,3.5211,3.595,3.6272,3.65,3.7182,3.7485,3.7618,3.775,3.8812,3.9889,3.9781,3.9739,3.9717,3.9526,3.9452,3.9401,3.929,3.9536,3.9798,3.9853,4.0266,4.0864,4.1649,4.19,4.2278,4.3118,4.3263,4.3351,4.3479,4.3339,4.3251,4.3251,4.3087,4.2938,4.2938,4.2938,4.2975,4.2995,4.316,4.316,4.2995,4.2957,4.292,4.2882,4.2882,4.2882,4.2882,4.2067,4.1807,4.2029,4.1243,4.0636,3.4197,3.5295,3.5678,3.4929,3.6305,3.8007,3.8643,3.8514,3.8327,3.8558,3.8924,3.9607,4.0923,4.2536,4.454,4.7201,4.73,4.6863,4.6397,4.6371,4.563,4.3579,4.3292,4.2623,4.0997,4.0425,4.0098,3.9996,3.9256,3.876,3.87,3.8243,3.8016,3.8092,3.885,3.9058,3.8719,3.9513,3.9889,3.9889,3.9889,3.9911,3.9954,3.9954,3.9975,4.0057,0.0,3.9975,3.9996,3.9933,3.9889,3.9889,3.9889,3.9683,3.9191,3.7883,3.6574,3.5379,3.5021,3.4908,3.4965,3.5363,3.5837,3.6292,3.6531,3.6906,3.7362,3.7679,3.8422,3.9116,3.9142,3.9307,3.9639,4.025,4.012,3.9946,4.0365,4.0431,4.0485,4.0876,4.1174,4.1596,4.2414,4.2578,4.2723,4.3214,4.3305,4.334,4.3497,4.3304,4.3214,4.3214,4.2938,4.2747,4.2747,4.2747,4.2786,4.2882,4.2975,4.2938,4.2747,4.2747,4.267,4.2591,4.2297,4.2157,4.2157,4.1091,4.0627,4.0745,4.0298,4.0008,3.387,3.4921,3.5443,3.5549,3.6842,3.8487,4.0105,3.9914,3.9614,4.0378,4.0835,4.128,4.1886,4.3431,4.5315,4.7363,4.6896,4.6187,4.5924,4.497,4.3848,4.2683,4.2125,4.1399,4.0253,4.0196,4.0176,4.0017,3.9296,3.8781,3.87,3.7885,3.7733,3.8397,3.8416,3.8531,3.8721,3.9347,3.9534,3.9323,3.9721,3.9859,3.973,3.9941,4.0057,4.0117,4.0036,3.9996,4.0036,3.9933,3.9889,3.9889,3.9889,3.9662,3.9129,3.7842,3.6319,3.4929,3.5054,3.5128,3.516,3.5032,3.5673,3.6462,3.6073,3.6691,3.7676,3.8152,3.8514,3.879,3.8917,3.9221,3.9757,4.0809,4.0747,4.0584,4.1237,4.1217,4.1247,4.1778,4.1978,4.2267,4.2921,4.2918,4.29,4.3068,4.3086,4.3123,4.3339,4.3196,4.3105,4.3105,4.2804,4.257,4.253,4.253,4.2552,4.2595,4.2729,4.2691,4.2374,4.2333,4.221,4.1959,4.1534,4.1356,4.1338,4.0164,3.9657,3.9735,3.95,3.9384,3.45,3.5325,3.5573,3.6232,3.5992,3.6407,3.9658,3.9844,4.0034,4.2517,4.4214,4.459,4.2412,4.3388,4.4626,4.4938,4.5512,4.5715,4.5079,4.4905,4.4223,4.2536,4.2427,4.1867,4.0188,4.0176,4.0234,4.0098,3.9356,3.8822,3.8719,3.7944,3.7527,3.7584,3.7603,3.7965,3.8784,3.886,3.844,3.7599,3.9235,3.9597,3.8914,3.9715,4.0137,4.0196,4.0057,4.0036,4.0077,3.9954,3.9889,3.9889,3.9889,3.8899,3.7473,3.736,3.6437,3.5281,3.5549,3.5801,3.5929,3.5358,3.6112,3.7088,3.6325,3.7312,3.8709,3.8803,3.9298,3.9755,3.9651,3.9877,4.0233,4.0547,4.0851,4.1038,4.1027,4.1512,4.1903,4.1923,4.2264,4.2634,4.2783,4.2688,4.2649,4.2822,4.288,4.2938,4.292,4.288,4.2822,4.2822,4.2645,4.2445,4.2328,4.2328,4.2145,4.1604,4.2234,4.2333,4.1622,4.1561,4.1401,4.0943,4.0849,4.0849,4.0849,3.9979,3.9791,4.0135,3.9257,3.8723,3.3961,3.571,3.6782,3.6017,3.7236,3.908,4.0849,4.11,4.1667,4.4325,4.5754,4.628,4.5284,4.5651,4.6111,4.614,4.6403,4.6121,4.4821,4.4207,4.329,4.168,4.1094,4.0571,3.9989,4.0077,4.0137,4.0057,3.9337,3.8861,3.8764,3.749,3.7223,3.8268,3.7261,3.7109,3.7965,3.7984,3.728,3.5932,3.8192,3.9086,3.8803,3.9146,3.9623,4.0196,4.0098,4.0057,4.0036,3.9933,3.9889,3.9867,3.9585,3.8646,3.7426,3.7381,3.6638,3.5625,3.5354,3.5678,3.6177,3.5855,3.6897,3.8251,3.8261,3.8786,3.9436,3.9794,3.9732,3.9619,3.9946,4.0207,4.0602,4.1519,4.169,4.1821,4.2365,4.2592,4.2668,4.254,4.2549,4.2609,4.2606,4.2566,4.2566,4.2649,4.2688,4.2747,4.2882,4.2765,4.2706,4.2706,4.2508,4.2405,4.2405,4.2346,4.2044,4.1516,4.1839,4.1753,4.1065,4.1157,4.1082,4.0802,4.0449,4.0302,4.0302,3.9699,3.9479,3.9644,3.9376,3.9156,3.3486,3.534,3.6623,3.6247,3.8029,4.0368,4.2202,4.2687,4.3455,4.6045,4.6422,4.6506,4.7266,4.6581,4.6055,4.6534,4.6373,4.5735,4.4354,4.3208,4.21,4.1029,4.0198,3.9717,3.9804,3.9933,4.0015,3.9954,3.9526,3.9242,3.9144,3.7851,3.7642,3.8763,3.7433,3.7072,3.7928,3.7681,3.6996,3.5874,3.7319,3.8004,3.8023,3.8575,3.9185,3.9795,3.9963,4.0017,3.9996,3.9911,3.9804,3.9675,3.9275,3.8377,3.7349,3.7349,3.6803,3.6059,3.5754,3.6083,3.665,3.6614,3.7739,3.9181,3.9547,4.009,4.0633,4.1053,4.0744,4.0456,4.0848,4.0917,4.1125,4.2172,4.2356,4.2468,4.3086,4.3123,4.2974,4.288,4.267,4.249,4.2503,4.2405,4.2387,4.249,4.249,4.257,4.2709,4.2631,4.257,4.2432,4.2369,4.2346,4.2246,4.2145,4.1899,4.1383,4.1293,4.1111,4.0611,4.0707,4.0659,4.0385,4.0037,3.9833,3.9833,3.9468,3.9325,3.9432,3.9484,3.9537,3.3321,3.4016,3.4804,3.7192,3.8082,3.9414,4.3456,4.4449,4.5219,4.7786,4.628,4.5275,4.7776,4.5547,4.3847,4.5528,4.5077,4.4242,4.3495,4.1901,4.0772,4.0701,4.0083,3.967,3.9618,3.9781,3.9867,3.9804,3.9975,4.0036,3.9911,3.9259,3.888,3.8822,3.8099,3.8079,3.888,3.8096,3.7675,3.7659,3.6728,3.6292,3.635,3.8099,3.888,3.8937,3.9597,3.9935,3.9996,3.9848,3.9609,3.9264,3.899,3.8099,3.702,3.715,3.6888,3.6557,3.6892,3.718,3.7429,3.7631,3.8665,3.9828,3.9811,4.102,4.2436,4.2552,4.2609,4.2609,4.2609,4.217,4.1811,4.2297,4.2634,4.2882,4.2882,4.2842,4.2783,4.2783,4.2548,4.2346,4.2463,4.2264,4.2163,4.2287,4.2287,4.2287,4.2287,4.249,4.249,4.2145,4.2364,4.2264,4.1753,4.1709,4.1472,4.1019,4.0594,4.0351,4.022,4.017,4.0003,3.9501,3.9501,3.9501,3.9501,3.9379,3.9415,3.9677,3.959,3.959,3.367,3.5377,3.6835,3.6994,3.9447,4.1954,4.2573,4.4129,4.5857,4.7116,4.5914,4.4689,4.4777,4.4006,4.3525,4.3987,4.4289,4.4008,4.2607,4.1961,4.1229,4.0059,3.9733,3.9631,3.9607,3.9708,3.9739,3.9717,3.987,3.9911,3.9826,3.9072,3.8925,3.9537,3.8169,3.7622,3.806,3.722,3.6495,3.5944,3.5659,3.5796,3.633,3.6844,3.7719,3.8842,3.9031,3.9406,3.9826,3.9508,3.9127,3.8711,3.84,3.795,3.7484,3.738,3.7256,3.7076,3.6666,3.7327,3.8396,3.8342,3.9412,4.0838,4.139,4.1912,4.2351,4.2369,4.2409,4.2409,4.2409,4.2329,4.2261,4.2297,4.2609,4.2804,4.2804,4.2822,4.2783,4.2783,4.2548,4.2328,4.2346,4.2287,4.2246,4.2287,4.2287,4.2328,4.2445,4.2187,4.211,4.253,4.2002,4.1701,4.1959,4.1596,4.1128,4.0594,4.0449,4.022,3.985,3.9867,3.9764,3.9625,3.9625,3.9625,3.9625,3.9573,3.9625,3.9677,3.9746,3.9798,3.4083,3.5736,3.7132,3.7904,4.0178,4.2358,4.2908,4.4293,4.5563,4.5989,4.5084,4.4158,4.3882,4.3581,4.3401,4.3348,4.3434,4.305,4.1743,4.1274,4.0659,3.9621,3.9552,3.9577,3.9483,3.9588,3.9661,3.9661,3.9758,3.9804,3.9762,3.9006,3.8975,3.9832,3.8584,3.8134,3.8594,3.7488,3.6684,3.6188,3.5522,3.5377,3.5723,3.6103,3.6996,3.8308,3.8772,3.9142,3.9414,3.8971,3.8621,3.831,3.8013,3.7739,3.754,3.7411,3.7392,3.7358,3.6933,3.7487,3.8415,3.8928,3.9804,4.0842,4.1948,4.2287,4.2287,4.2287,4.2346,4.2387,4.2387,4.2486,4.2526,4.2405,4.2548,4.2706,4.2685,4.2685,4.2685,4.2627,4.245,4.2287,4.2287,4.2287,4.2287,4.2287,4.2145,4.2187,4.2526,4.1917,4.1683,4.2169,4.1596,4.1283,4.1507,4.1192,4.0802,4.0514,4.0269,4.0104,3.9884,3.9833,3.9781,3.9781,3.9781,3.9781,3.9781,3.9729,3.9729,3.9781,3.9849,3.9901,3.4494,3.5369,3.6259,3.9332,4.043,4.1349,4.3713,4.4379,4.4468,4.4466,4.3844,4.346,4.4049,4.3533,4.3043,4.3043,4.2326,4.1503,4.0829,4.0052,3.9483,3.9298,3.9439,3.9446,3.9205,3.9327,3.9439,3.9439,3.9505,3.9595,3.967,3.9104,3.9091,3.9762,3.9121,3.9087,3.9747,3.8289,3.7505,3.741,3.5869,3.5001,3.4772,3.5645,3.6518,3.7446,3.8546,3.8943,3.8792,3.8355,3.8129,3.8026,3.7774,3.754,3.7334,3.7392,3.7429,3.7429,3.754,3.763,3.7933,3.9432,3.9968,4.0307,4.1823,4.2287,4.2328,4.2328,4.2387,4.2503,4.2503,4.2566,4.257,4.2526,4.2548,4.2609,4.2526,4.2503,4.2486,4.2328,4.2328,4.2287,4.2287,4.2287,4.2246,4.2246,4.1899,4.1881,4.2472,4.1727,4.1192,4.1373,4.1237,4.096,4.0676,4.058,4.0531,4.0531,4.0171,3.9986,4.007,3.9986,3.9901,3.9901,3.9901,3.9901,3.9901,3.9781,3.9781,3.9901,3.9901,3.9901,3.4721,3.5395,3.611,3.8683,4.0522,4.1698,4.1757,4.1879,4.2115,4.2618,4.2133,4.1439,4.0858,4.054,4.0309,4.0277,3.9997,3.973,3.9535,3.9322,3.9183,3.9156,3.9129,3.8841,3.8182,3.8126,3.8181,3.8338,3.8371,3.8721,3.9489,3.9427,3.9419,3.9623,3.8901,3.8307,3.7879,3.6936,3.6083,0.0,3.4823,3.4508,3.442,3.4674,3.5385,3.6448,3.7266,3.7869,3.8237,3.798,3.7827,3.7685,3.7631,3.7577,3.7558,3.754,3.754,3.754,3.7577,3.8005,3.8701,3.9611,4.0342,4.102,4.1984,4.2387,4.2463,4.2463,4.2526,4.2588,4.2503,4.2566,4.2609,4.257,4.2667,4.2745,4.2763,4.2667,4.257,4.253,4.2409,4.2287,4.2287,4.2044,4.1839,4.1839,4.1552,4.1507,4.1984,4.1265,4.0943,4.141,4.0802,4.0451,4.0707,4.0451,4.0221,4.0221,4.0121,4.0087,4.007,3.9986,3.9935,4.0037,4.0037,4.0037,4.0037,4.0037,4.0037,4.0037,4.0037,4.0037,3.4245,3.5358,3.6451,3.8544,4.0269,4.1217,4.0465,4.0438,4.0549,4.0453,4.0802,4.0825,3.9792,3.9594,3.9521,3.9343,3.8928,3.8737,3.9045,3.9101,3.9073,3.8989,3.9017,3.885,3.8386,3.8359,3.8414,3.8505,3.8585,3.8868,3.9388,3.9083,3.912,3.9588,3.8851,3.8448,3.8436,3.7562,3.6855,3.6362,3.5292,3.4414,3.3792,3.447,3.5036,3.5512,3.6121,3.6721,3.7266,3.7059,3.7184,3.7503,3.7577,3.7577,3.7577,3.7577,3.7577,3.7577,3.7577,3.7862,3.8415,3.9557,4.0238,4.0831,4.2029,4.2445,4.2503,4.2526,4.2588,4.2609,4.2548,4.2627,4.2688,4.2609,4.2649,4.2688,4.2688,4.2627,4.2468,4.221,4.2068,4.1959,4.1788,4.1596,4.149,4.1552,4.1192,4.1082,4.1596,4.0896,4.0514,4.1001,4.0483,4.0221,4.0434,4.0271,4.007,4.007,4.007,4.007,4.007,4.0037,4.0037,4.007,4.007,4.007,4.007,4.007,4.007,4.007,4.007,4.007,3.3499,3.5336,3.6999,3.8442,3.9666,4.034,3.9602,3.951,3.9384,3.8618,3.9554,4.0239,3.925,3.9156,3.9126,3.8827,3.8189,3.7995,3.873,3.8813,3.884,3.8862,3.8931,3.8905,3.8678,3.8728,3.8795,3.8841,3.8933,3.9096,3.9298,3.8765,3.882,3.9583,3.887,3.8784,3.9421,3.8432,3.7903,3.786,3.5966,3.4504,3.3575,3.453,3.4877,3.48,3.5078,3.5713,3.6524,3.6256,3.6645,3.7466,3.754,3.7577,3.7577,3.7577,3.7577,3.7577,3.7577,3.7577,3.7844,3.9414,3.9971,4.039,4.202,4.2503,4.2526,4.257,4.2649,4.2649,4.2609,4.2609,4.2667,4.2512,4.2432,4.2391,4.2472,4.2427,4.2163,4.1709,4.1622,4.149,4.1146,4.1117,4.1146,4.1237,4.0819,4.0676,4.1192,4.0597,4.0221,4.0483,4.0271,4.007,4.007,4.007,4.007,4.007,4.007,4.007,4.007,4.007,4.007,4.007,4.007,4.007,4.007,4.007,4.007,4.007,4.007,4.007,3.2976,3.542,3.7411,3.7859,3.8701,3.9368,3.9202,3.8782,3.8407,3.8271,3.8018,3.7731,3.7464,3.7352,3.7206,3.7073,3.6867,3.6953,3.7621,3.7713,3.7959,3.8646,3.8652,3.8328,3.7656,3.7503,3.7546,3.7782,3.7811,3.8276,3.9261,3.9231,3.9282,3.9577,3.8775,3.8357,3.8402,3.7285,3.67,3.6619,3.5114,3.4591,3.4916,3.4278,3.4249,3.4694,3.4234,3.5226,3.7122,3.6522,3.6809,3.7594,3.7577,3.7577,3.7577,3.7577,3.7577,3.7577,3.7577,3.7577,3.7844,3.9414,3.9914,4.0256,4.198,4.2526,4.257,4.2609,4.2709,4.2786,4.2566,4.2346,4.2145,4.2026,4.1683,4.1507,4.2044,4.1831,4.1525,4.1463,4.1328,4.1146,4.0772,4.0676,4.0676,4.0724,4.0402,4.0303,4.0676,4.0353,4.0138,4.0171,4.0121,4.007,4.007,4.007,4.007,4.007,4.007,4.007,4.007,4.007,4.007,4.007,4.007,4.007,4.007,4.007,4.007,4.007,4.007,4.007,3.3533,3.5483,3.6927,3.8077,3.9128,3.9751,3.9212,3.8939,3.8539,3.7617,3.6807,3.6429,3.6916,3.6569,3.6323,3.6604,3.6202,3.6122,3.685,3.6932,3.7061,3.7371,3.7764,3.7845,3.7484,3.779,3.8096,3.8217,3.8287,3.8348,3.8405,3.8976,3.9119,3.8765,3.8933,3.8921,3.8697,3.8007,3.7234,3.6349,3.6109,3.5403,3.4375,3.4341,3.4553,3.4836,3.4518,3.5207,3.6567,3.6289,3.6718,3.7503,3.7577,3.7577,3.7577,3.7577,3.7577,3.7577,3.7577,3.7577,3.7844,3.9414,3.9953,4.0295,4.2002,4.2544,4.2508,4.2369,4.2333,4.2274,4.1977,4.1805,4.1683,4.1552,4.1192,4.096,4.1174,4.1283,4.1192,4.1007,4.0724,4.0549,4.0353,4.0303,4.0303,4.0303,4.0221,4.0171,4.0303,4.0171,4.007,4.007,4.007,4.007,4.007,4.007,4.007,4.007,4.007,4.007,4.007,4.007,4.007,4.007,4.007,4.007,4.007,4.007,4.007,4.007,4.007,4.007,3.3287,3.494,3.6231,3.7734,3.898,3.9719,3.9137,3.8934,3.8513,3.7243,3.6166,3.5671,3.6385,3.585,3.5448,3.5903,3.5469,3.5332,3.6085,3.6214,3.6261,3.6408,3.6914,3.7327,3.7518,3.8046,3.8365,3.8395,3.8497,3.8217,3.7433,3.8154,3.8443,3.8103,3.8846,3.9114,3.8894,3.8493,3.7689,3.6557,3.6856,3.6125,3.4551,3.471,3.4923,3.5172,3.4747,3.5081,3.6015,3.6111,3.6627,3.7411,3.754,3.7577,3.7577,3.7577,3.7577,3.7577,3.7577,3.7577,3.7844,3.9414,3.9953,4.0352,4.1864,4.2346,4.2305,4.2019,4.1856,4.1753,4.1418,4.1283,4.1192,4.1053,4.0772,4.0483,4.0483,4.0676,4.0789,4.0483,4.0221,4.0037,3.9969,4.007,4.007,4.0037,4.0087,4.007,4.007,4.007,4.007,4.007,4.007,4.007,4.007,4.007,4.007,4.007,4.007,4.007,4.007,4.007,4.007,4.007,4.007,4.007,4.007,4.007,4.007,4.007,4.007,4.007,3.1237,3.328,3.5388,3.5994,3.732,3.8533,3.8707,3.8191,3.7661,3.7587,3.6371,3.5336,3.5469,3.4816,3.4271,3.4253,3.4191,3.4444,3.5254,3.5338,3.5633,3.639,3.6352,3.6626,3.7521,3.7533,3.7491,3.7551,3.7581,3.7272,3.6583,3.6611,3.7079,3.8065,3.8147,3.8234,3.8332,3.7683,3.7352,3.7226,3.65,3.6408,3.6798,3.5337,3.5074,3.5671,3.4394,3.4677,3.6015,3.6219,3.6736,3.7411,3.754,3.7577,3.7577,3.7577,3.7577,3.7577,3.7577,3.7577,3.7844,3.9414,3.9914,4.016,4.1505,4.1941,4.1856,4.1507,4.149,4.1455,4.1283,4.1007,4.0802,4.0676,4.0353,4.0121,4.0121,4.0037,3.9935,3.9952,3.9901,3.9901,3.9729,3.9918,4.0037,3.9952,4.0037,4.007,4.007,4.007,4.007,4.007,4.007,4.007,4.007,4.007,4.007,4.007,4.007,4.007,4.007,4.007,4.007,4.007,4.007,4.007,4.007,4.007,4.007,4.007,4.007,4.007,3.2054,3.2988,3.4044,3.5948,3.6608,3.7044,3.82,3.8376,3.818,3.7706,3.7163,3.6639,3.6177,3.5018,3.4148,3.4173,3.4173,3.426,3.455,3.453,3.4544,3.4813,3.5156,3.5494,3.5776,3.6289,3.682,3.7381,3.7019,3.6626,3.637,3.6464,3.6443,3.63,3.7466,3.8223,3.8507,3.7522,3.7172,3.7354,3.7033,3.669,3.6327,3.5709,3.5021,3.4337,3.4374,3.4692,3.5275,3.586,3.6342,3.6736,3.7271,3.754,3.7577,3.7577,3.7577,3.7577,3.7577,3.7933,3.8503,3.9301,3.9934,4.0512,4.1236,4.1463,4.1373,4.1007,4.0896,4.0832,4.0597,4.0402,4.0353,4.0303,4.0171,4.0087,3.9986,3.9935,3.9901,3.9901,3.9901,3.9849,3.9729,3.9833,3.9952,3.9901,3.9952,3.9986,4.007,4.007,4.007,4.007,4.007,4.007,4.007,4.007,4.007,4.007,4.007,4.007,4.007,4.007,4.007,4.007,4.007,4.007,4.007,4.007,4.007,4.007,4.007,4.007,3.2179,3.2752,3.3488,3.5627,3.5849,3.6017,3.7742,3.8071,3.8008,3.7876,3.7613,3.7276,3.6924,3.5771,3.4807,3.4631,3.4593,3.4482,3.4185,3.4049,3.3972,3.3868,3.4211,3.4566,3.4812,3.5294,3.586,3.6467,3.6069,0.0,3.5449,3.5524,3.5504,3.5317,3.676,3.7738,3.8096,3.7321,3.7088,3.7392,3.7334,3.6955,3.6368,3.6028,3.5267,3.4302,3.4357,3.4375,3.4428,3.5275,3.5898,3.6273,3.6825,3.7272,3.7577,3.7577,3.754,3.7429,3.7429,3.7709,3.8196,3.8977,3.9603,4.0131,4.0787,4.1007,4.0913,4.0531,4.0434,4.0402,4.0171,4.007,4.007,4.007,4.007,4.007,3.9952,3.9833,3.9849,3.9746,3.9746,3.9746,3.9573,3.9729,3.9849,3.9746,3.9849,3.9952,4.0037,4.0087,4.007,4.007,4.007,4.007,4.007,4.007,4.007,4.007,4.007,4.007,4.007,4.007,4.007,4.007,4.007,4.007,4.007,4.007,4.007,4.007,4.007,4.007,0.0,0.0,0.0,3.4746,3.5011,3.5472,3.7308,3.718,3.6976,3.8059,3.7584,3.713,3.7555,3.6988,3.6242,3.5565,3.5443,3.5084,3.4164,3.4035,3.3983,3.3807,3.3671,3.3925,3.4778,3.4666,3.4624,3.4772,3.4783,3.4483,3.3771,3.3798,3.4273,3.528,3.6046,3.6656,3.7093,3.7017,3.7156,3.7429,3.7334,3.7241,3.7073,3.6368,3.594,3.5723,3.4412,3.3723,3.3582,3.4553,3.5385,3.6094,3.631,3.6881,3.7577,3.7577,3.7374,3.7069,3.7069,3.6891,3.6928,3.8407,3.8912,3.9138,4.0259,4.058,4.0531,4.0171,4.007,4.007,4.007,4.007,4.007,4.007,4.007,4.0037,3.9901,3.9781,3.9642,3.9554,3.9501,3.9432,3.9325,3.952,3.9642,3.9554,3.9694,3.9901,3.9901,4.0037,4.0087,4.007,4.007,4.007,4.007,4.007,4.007,4.007,4.007,4.007,4.007,4.007,4.007,4.007,4.007,4.007,4.007,4.007,4.007,4.007,4.007,4.007,3.0968,0.0,0.0,0.0,0.0,0.0,3.533,3.5823,3.6191,3.7626,3.73,3.704,3.7949,3.7908,3.7601,3.709,3.6519,3.5836,3.4862,3.4623,3.431,3.366,3.3452,3.3484,3.3789,3.3807,3.4043,0.0,3.43,3.4202,3.454,3.4146,3.4326,3.528,3.543,3.6019,3.7075,3.7017,3.719,3.754,3.7372,3.7297,3.7241,3.6935,3.6415,3.5759,3.5012,3.427,3.3671,3.3988,3.4623,3.5439,3.6096,3.6645,3.7111,3.7111,3.6878,3.658,3.658,3.7328,3.8295,3.8484,3.9256,4.0126,4.0234,4.0271,4.0221,4.0121,4.007,4.007,4.007,4.007,4.007,4.007,3.9918,3.9713,3.9435,3.9468,3.9537,3.9501,3.959,3.959,3.9325,3.952,3.9677,3.9625,3.9642,3.9694,3.9986,3.9986,3.9986,4.007,4.007,4.007,4.007,4.007,4.007,4.007,4.007,4.007,4.007,4.007,4.007,4.007,4.007,4.007,4.007,4.007,4.007,4.007,4.007,4.007,3.0715,3.028,3.0138,3.2336,0.0,0.0,3.4818,3.5065,3.5234,3.6982,3.698,3.6919,3.7671,3.7969,3.8008,3.7731,3.732,3.6529,3.5117,3.4859,3.4441,3.3465,3.3304,3.334,3.3352,3.3393,3.3622,3.4045,3.3775,3.3806,3.4347,3.4072,3.4134,3.4658,3.5155,3.5798,3.6589,3.7069,3.7412,3.7649,3.7429,3.7317,3.7334,3.7261,3.6761,3.589,3.5332,3.4605,3.3775,3.3896,3.4408,3.5259,3.6096,3.6645,3.7017,3.7017,3.6701,3.6301,3.6628,3.7292,3.8109,3.8487,3.9242,3.9944,4.0086,4.007,4.0087,3.9969,3.9918,3.9918,3.9747,3.9901,4.007,3.9986,3.9833,3.9625,3.9398,3.9309,3.9309,3.9309,3.952,3.9625,3.9468,3.9573,3.9677,3.9677,3.9694,3.9746,3.9986,3.9986,4.0037,4.007,4.007,4.007,4.007,4.007,4.007,4.007,4.007,4.007,4.007,4.007,4.007,4.007,4.007,4.007,4.007,4.007,4.007,4.007,4.007,4.007,3.0595,3.0716,3.1028,3.2738,3.2633,0.0,3.4839,3.4428,3.4089,3.591,3.6157,3.6152,3.6576,3.703,3.7345,3.7469,3.7541,3.698,3.5187,3.4914,3.4467,3.3378,3.326,3.3298,3.3358,3.3316,3.3322,3.3364,3.3352,3.3422,3.3587,3.3807,3.3868,3.3788,3.5173,3.5877,3.5877,3.7106,3.7703,3.7667,3.7485,3.7392,3.7392,3.7429,3.6929,3.6075,3.5456,3.4707,3.3928,3.4153,3.4684,3.5397,3.6201,3.6772,3.7132,3.7055,3.662,3.6131,3.6901,3.7019,3.7127,3.8531,3.9056,3.9242,3.9884,4.0087,4.002,3.9781,3.9677,3.9609,3.9259,3.9592,3.9918,3.9713,3.9609,3.9625,3.9432,3.9202,3.9023,3.8969,3.9362,3.9677,3.9677,3.9677,3.9729,3.9729,3.9781,3.9901,3.9901,4.0037,4.007,4.0138,4.0138,4.0138,4.0138,4.0138,4.0121,4.0121,4.0138,4.0138,4.0138,4.0138,4.007,4.007,4.007,4.007,4.007,4.007,4.007,4.007,4.007,4.007,3.0585,3.0038,2.985,3.0905,3.1493,0.0,3.2557,3.24,3.2472,3.3504,3.2702,3.2213,3.3617,3.4093,3.4535,3.5261,3.5918,3.6221,3.5883,3.5536,3.5003,3.4251,3.3501,3.3279,3.3809,3.3418,3.3214,3.3292,3.3452,3.3605,3.3753,3.3842,3.3868,3.3788,3.5232,3.589,3.5747,3.7158,3.7775,3.7613,3.7466,3.7392,3.7411,3.7503,3.7039,3.6075,3.5596,3.4793,3.3964,3.4791,3.5234,3.5397,3.5864,3.6327,3.6661,3.6274,3.5941,3.5712,3.6439,3.7161,3.7838,3.87,3.9394,3.9884,3.9782,3.9935,4.002,3.9781,3.9677,3.9609,3.9259,3.9312,3.9365,3.9312,3.9312,3.9222,3.886,3.9007,3.9061,3.8733,3.9148,3.9484,3.9379,3.9642,3.9849,3.9849,3.9781,3.9833,4.0037,3.9986,4.0037,4.0255,4.0238,4.0238,4.0238,4.0387,4.0387,4.0288,4.0238,4.0238,4.0238,4.0188,4.007,4.007,4.007,4.007,4.007,4.007,4.007,4.007,4.007,4.007,3.0469,3.0029,2.9962,3.0844,3.1396,0.0,0.0,3.2154,3.2193,3.3032,3.2247,3.1637,3.2528,3.2963,3.3365,3.3822,3.4911,3.5644,3.5523,3.5518,3.5241,3.4446,3.3897,3.367,3.3825,3.3603,3.3422,3.3298,3.3549,3.3671,3.3643,3.3842,3.3842,3.355,3.5114,3.5828,3.5602,3.7072,3.7775,3.7739,3.7577,3.7503,3.7485,3.713,3.6488,3.5634,3.5007,3.447,3.4115,3.5037,3.5558,3.5847,3.6432,3.6682,3.6701,3.6266,3.5871,3.5717,3.6848,3.7537,3.8091,3.9174,3.9783,4.007,3.9935,3.9884,3.9833,3.9398,3.9345,3.9329,3.8914,3.9007,3.9206,3.9206,3.9098,3.9007,3.8882,3.8843,3.875,3.8544,3.8876,3.9148,3.9239,3.9398,3.9609,3.9781,3.9729,3.9781,4.0087,3.9986,3.9952,4.0104,4.0138,4.0188,4.0188,4.037,4.0485,4.0387,4.0387,4.0387,4.0288,4.0255,4.0188,4.0188,4.0188,4.0188,4.0188,4.0121,4.007,4.007,4.007,4.029,3.0561,3.0374,3.0493,3.1141,3.1445,3.1769,0.0,0.0,0.0,3.2649,3.2108,3.1603,3.1812,3.205,3.2262,3.2397,3.3662,3.4479,3.4233,3.4789,3.5009,3.4419,3.4289,3.4077,3.3758,3.3723,3.3646,3.3512,3.3724,3.3749,3.3563,3.3844,3.378,3.3214,3.4914,3.5702,3.5439,3.6985,3.7792,3.7828,3.7703,3.7613,3.7595,3.6809,3.6006,3.522,3.4452,3.4112,3.413,3.4986,3.5616,3.6165,3.6962,3.7073,3.6741,3.6326,3.5915,3.5842,3.7381,3.7905,3.8142,3.9597,4.002,3.9918,3.9918,3.9764,3.9415,3.8914,3.8952,3.9007,3.856,3.8694,3.9061,3.9061,3.8898,3.886,3.9007,3.875,3.8448,3.8391,3.8544,3.8805,3.9061,3.9152,3.9312,3.9556,3.9609,3.9661,3.9918,3.9935,3.9901,3.9952,4.0037,4.0188,4.0238,4.0387,4.0534,4.0534,4.0534,4.0485,4.0404,4.0337,4.0337,4.0337,4.0337,4.0355,4.0305,4.0188,4.0138,4.007,4.007,4.0493,3.1297,3.0937,3.0723,3.0196,3.1173,3.1873,3.0675,0.0,3.1295,3.0602,0.0,2.9397,3.004,0.0,0.0,3.0319,3.1116,3.1642,3.1619,3.2819,3.3854,3.4432,3.4358,3.4146,3.3808,3.3589,3.3705,3.4228,3.4089,3.3883,3.3699,3.3931,3.3719,3.2876,3.4595,3.5457,3.5256,3.7054,3.7845,3.7613,3.7685,3.7703,3.7667,3.6933,3.6145,3.5305,3.4533,3.3977,3.3723,3.4606,3.5222,3.5731,3.654,3.6655,3.6284,3.5827,3.5667,3.5842,3.7381,3.7905,3.8142,3.9597,3.9747,3.9312,3.9312,3.9115,3.8914,3.8805,3.8805,3.8805,3.8504,3.8448,3.8504,3.8504,3.8655,3.875,3.856,3.8655,3.8694,3.8448,3.8391,3.8544,3.8805,3.9061,3.9206,3.9259,3.9259,3.9259,3.9312,3.9661,3.9952,4.007,4.0188,4.0355,4.06,4.0534,4.0534,4.0648,4.0697,4.0648,4.0648,4.0534,4.0485,4.0485,4.0485,4.0436,4.0305,4.0288,4.0188,4.007,4.007,4.0493,3.1393,3.1151,3.0903,3.0046,3.0752,3.1376,3.0174,0.0,3.054,3.0197,0.0,0.0,0.0,0.0,0.0,0.0,2.9926,3.0224,3.0009,3.0667,3.1742,3.3184,0.0,0.0,3.4418,3.3827,3.3775,3.4619,3.4285,3.4041,3.3942,3.4089,3.3681,3.2603,3.4464,3.5339,3.4978,3.6968,3.7846,3.7649,3.7649,3.7667,3.7667,3.6362,3.5629,3.5357,3.4566,3.426,3.4412,3.5297,3.5817,3.6041,3.637,3.6409,3.6259,3.5783,3.591,3.6451,3.7533,3.8176,3.87,3.9732,3.9816,3.9435,3.9259,3.9098,3.8952,3.8655,3.8711,3.875,3.8448,3.8391,3.8448,3.86,3.86,3.86,3.86,3.86,3.8544,3.8391,3.8391,3.8448,3.8544,3.8655,3.8805,3.8952,3.8952,3.899,3.9206,3.9398,3.9625,3.9833,3.9558,3.9662,4.0288,3.9952,3.9952,4.0534,4.0648,4.0697,4.0697,4.0648,4.06,4.06,4.06,4.06,4.0551,4.0404,4.0288,4.0188,4.0138,4.0713,3.1343,0.0,3.0892,0.0,0.0,0.0,0.0,0.0,0.0,0.0,2.969,0.0,0.0,0.0,2.9279,2.9134,0.0,2.9214,2.8952,2.9156,2.9972,3.1671,0.0,0.0,0.0,3.3938,3.392,3.5122,3.4553,3.4249,3.4375,3.4497,3.4039,3.2897,3.4674,3.5455,3.5081,3.6934,3.781,3.7667,3.7649,3.7685,3.7703,3.6005,3.5449,3.5711,3.4688,3.4563,3.5116,3.5791,3.6059,3.6088,3.6088,3.6088,3.6088,3.5711,3.6113,3.6891,3.7652,3.8514,3.9377,3.9851,3.9816,3.9504,3.9169,3.9061,3.8898,3.8504,3.8544,3.8655,3.8448,3.8391,3.8448,3.8639,3.8544,3.8448,3.8655,3.856,3.8391,3.8391,3.8278,3.8148,3.8148,3.8278,3.8448,3.8472,3.8472,3.8511,3.8574,3.8701,3.8898,3.9082,3.8707,3.8745,3.9542,3.9229,3.9387,4.032,4.0485,4.0551,4.0551,4.0551,4.06,4.0631,4.0648,4.0648,4.0697,4.0502,4.0457,4.0594,4.0443,4.1068,0.0,0.0,0.0,2.9118,0.0,0.0,0.0,0.0,2.9822,0.0,0.0,0.0,3.1189,3.0649,3.0006,2.9571,2.8948,0.0,0.0,2.8597,2.907,3.0208,3.2107,3.3554,0.0,3.3769,3.4176,0.0,3.499,3.4627,3.5117,3.5352,3.5005,3.4081,3.5297,3.5909,3.5779,3.7184,3.7793,3.7613,3.7685,3.7757,3.7845,3.6161,3.5888,3.6666,3.5019,3.4798,3.5588,3.5605,3.5635,3.5622,3.5622,3.5622,3.5622,3.5622,3.6113,3.6891,3.7652,3.8853,4.0054,3.9764,3.9504,3.9152,3.8898,3.8655,3.8391,3.8391,3.8408,3.8391,3.8391,3.8391,3.8391,3.8391,3.8408,3.8391,3.8391,3.8408,3.8391,3.8391,3.7902,3.7417,3.7417,3.7976,3.8221,3.7817,3.7759,3.7551,3.7027,3.7354,3.7632,3.76,3.7716,3.793,3.8237,3.8547,3.9086,4.007,4.0138,4.0138,4.0138,4.0138,4.0221,4.0485,4.0534,4.0583,4.0697,4.0697,4.091,4.1359,4.1222,4.1576,0.0,0.0,3.0875,2.9787,0.0,0.0,0.0,0.0,0.0,0.0,0.0,0.0,3.0501,3.0128,2.9766,2.9593,2.7963,2.6862,0.0,2.7673,2.7965,2.8107,2.9736,3.1469,3.3067,0.0,0.0,3.5432,3.5272,0.0,3.5518,3.6475,3.6157,3.4229,3.5881,3.6476,3.5814,3.7184,3.7793,3.7577,3.7613,3.7453,3.7072,3.591,3.5636,3.6049,3.5475,3.5383,3.5657,3.6243,3.6108,3.5622,3.5622,3.5622,3.5622,3.5622,3.6434,3.7702,3.892,3.9564,3.9833,3.9729,3.9487,3.9152,3.8898,3.875,3.8655,3.8448,3.8391,3.8391,3.8391,3.8391,3.8391,3.8391,3.8391,3.8391,3.8391,3.8391,3.8278,3.7844,3.7535,3.7298,3.6982,3.7103,3.7222,3.7058,3.7103,3.7103,3.689,3.7131,3.7354,3.7557,3.716,3.7144,3.7857,3.8044,3.823,3.858,3.8712,3.9053,3.9387,3.9456,3.968,4.0221,4.0238,4.0171,3.9986,3.9885,3.9813,3.9801,4.0619,4.1744,3.119,3.119,0.0,3.0128,3.0352,0.0,2.8686,0.0,2.9328,0.0,0.0,0.0,0.0,2.9982,2.954,2.9319,2.7301,2.5853,0.0,2.6909,2.737,2.6841,2.8655,3.0607,3.2373,3.1957,3.2774,3.5497,3.5515,3.5722,0.0,0.0,3.7478,3.5879,3.7233,3.7694,3.7101,3.788,3.8205,3.8115,3.7756,3.7292,3.671,3.6106,3.599,3.6154,3.6154,3.6113,3.6099,3.6667,3.6392,3.5622,3.5622,3.5622,3.5622,3.5622,3.6371,3.7559,3.9058,3.9378,3.9222,3.9594,3.9398,3.9007,3.8843,3.875,3.86,3.8448,3.8391,3.8391,3.8391,3.8391,3.8391,3.8391,3.8391,3.8335,3.8091,3.8033,3.7844,3.7147,3.6906,3.6677,3.643,3.6243,3.6258,3.6492,3.6616,3.66,3.643,3.6492,3.66,3.6845,3.6368,3.6415,3.7203,3.7322,3.7381,3.7616,3.7831,3.8101,3.8492,3.8492,3.8728,3.9262,3.9262,3.9193,3.9123,3.9156,3.9143,3.9259,4.0402,4.1642]}]]